Wetterdaten: Samstag, 06.05.2017
Datum Zeit Temp. A. Pool Temp. Feuchte A. Luftdruck Regen Wind Richtung Richtung Sonnenschein ET UV Solar Taupunkt Windchill Windben Empfang
06.05.2017 00:00 8,2 C 15,0 C 95 % 1017,4 hPa 0,0 l/m 0,0 km/h (0 Bft) W-SW 257 0 min 0,000 mm 0,0 UV-I 0 W/m 7,4 C 8,2 C 0,0 km/h (0 Bft) 98,00 %
06.05.2017 00:02 8,1 C 14,4 C 94 % 1017,4 hPa 0,0 l/m 0,1 km/h (0 Bft) W-SW 257 0 min 0,000 mm 0,0 UV-I 0 W/m 7,2 C 8,1 C 1,6 km/h (1 Bft) 95,45 %
06.05.2017 00:04 8,1 C 14,4 C 94 % 1017,4 hPa 0,0 l/m 0,0 km/h (0 Bft) W-SW 257 0 min 0,000 mm 0,0 UV-I 0 W/m 7,2 C 8,1 C 1,6 km/h (1 Bft) 92,68 %
06.05.2017 00:06 8,0 C 14,4 C 94 % 1017,4 hPa 0,0 l/m 0,0 km/h (0 Bft) W-SW 257 0 min 0,000 mm 0,0 UV-I 0 W/m 7,1 C 8,0 C 0,0 km/h (0 Bft) 98,00 %
06.05.2017 00:08 8,0 C 14,4 C 94 % 1017,3 hPa 0,0 l/m 0,0 km/h (0 Bft) W-SW 257 0 min 0,000 mm 0,0 UV-I 0 W/m 7,1 C 8,0 C 0,0 km/h (0 Bft) 98,00 %
06.05.2017 00:10 7,9 C 14,4 C 94 % 1017,3 hPa 0,0 l/m 0,0 km/h (0 Bft) W-SW 257 0 min 0,000 mm 0,0 UV-I 0 W/m 7,0 C 7,9 C 0,0 km/h (0 Bft) 97,87 %
06.05.2017 00:12 8,0 C 14,4 C 95 % 1017,3 hPa 0,0 l/m 0,0 km/h (0 Bft) W-SW 257 0 min 0,000 mm 0,0 UV-I 0 W/m 7,2 C 8,0 C 0,0 km/h (0 Bft) 100,00 %
06.05.2017 00:14 8,0 C 14,4 C 95 % 1017,3 hPa 0,0 l/m 0,0 km/h (0 Bft) W-SW 257 0 min 0,000 mm 0,0 UV-I 0 W/m 7,2 C 8,0 C 0,0 km/h (0 Bft) 97,87 %
06.05.2017 00:16 7,9 C 14,4 C 95 % 1017,3 hPa 0,0 l/m 0,0 km/h (0 Bft) W-SW 257 0 min 0,000 mm 0,0 UV-I 0 W/m 7,1 C 7,9 C 0,0 km/h (0 Bft) 98,11 %
06.05.2017 00:18 7,8 C 14,4 C 94 % 1017,2 hPa 0,0 l/m 0,1 km/h (0 Bft) W-SW 257 0 min 0,000 mm 0,0 UV-I 0 W/m 6,9 C 7,8 C 1,6 km/h (1 Bft) 100,00 %
06.05.2017 00:20 7,8 C 14,4 C 94 % 1017,3 hPa 0,0 l/m 0,9 km/h (0 Bft) W-SW 257 0 min 0,000 mm 0,0 UV-I 0 W/m 6,9 C 7,8 C 3,2 km/h (1 Bft) 98,18 %
06.05.2017 00:22 7,7 C 14,4 C 94 % 1017,3 hPa 0,0 l/m 2,2 km/h (1 Bft) W-SW 257 0 min 0,000 mm 0,0 UV-I 0 W/m 6,8 C 7,7 C 3,2 km/h (1 Bft) 98,00 %
06.05.2017 00:24 7,7 C 14,4 C 95 % 1017,3 hPa 0,0 l/m 1,2 km/h (1 Bft) W-SW 257 0 min 0,000 mm 0,0 UV-I 0 W/m 7,0 C 7,7 C 1,6 km/h (1 Bft) 100,00 %
06.05.2017 00:26 7,7 C 14,4 C 95 % 1017,3 hPa 0,0 l/m 2,1 km/h (1 Bft) W-SW 257 0 min 0,000 mm 0,0 UV-I 0 W/m 7,0 C 7,7 C 3,2 km/h (1 Bft) 97,44 %
06.05.2017 00:28 7,7 C 14,4 C 95 % 1017,3 hPa 0,0 l/m 1,3 km/h (1 Bft) W-SW 257 0 min 0,000 mm 0,0 UV-I 0 W/m 7,0 C 7,7 C 3,2 km/h (1 Bft) 100,00 %
06.05.2017 00:30 7,7 C 14,4 C 95 % 1017,3 hPa 0,0 l/m 1,7 km/h (1 Bft) W-SW 257 0 min 0,000 mm 0,0 UV-I 0 W/m 7,0 C 7,7 C 3,2 km/h (1 Bft) 96,00 %
06.05.2017 00:32 7,7 C 14,4 C 95 % 1017,2 hPa 0,0 l/m 1,3 km/h (1 Bft) W-SW 257 0 min 0,000 mm 0,0 UV-I 0 W/m 7,0 C 7,7 C 3,2 km/h (1 Bft) 100,00 %
06.05.2017 00:34 7,7 C 14,4 C 95 % 1017,2 hPa 0,0 l/m 0,1 km/h (0 Bft) W-SW 257 0 min 0,000 mm 0,0 UV-I 0 W/m 7,0 C 7,7 C 1,6 km/h (1 Bft) 100,00 %
06.05.2017 00:36 7,6 C 14,4 C 95 % 1017,2 hPa 0,0 l/m 1,8 km/h (1 Bft) W-SW 257 0 min 0,000 mm 0,0 UV-I 0 W/m 6,9 C 7,6 C 3,2 km/h (1 Bft) 98,00 %
06.05.2017 00:38 7,6 C 14,4 C 95 % 1017,1 hPa 0,0 l/m 2,1 km/h (1 Bft) W-SW 257 0 min 0,000 mm 0,0 UV-I 0 W/m 6,9 C 7,6 C 3,2 km/h (1 Bft) 98,11 %
06.05.2017 00:40 7,7 C 14,4 C 95 % 1017,1 hPa 0,0 l/m 1,7 km/h (1 Bft) W-SW 257 0 min 0,000 mm 0,0 UV-I 0 W/m 7,0 C 7,7 C 3,2 km/h (1 Bft) 100,00 %
06.05.2017 00:42 7,7 C 14,4 C 95 % 1017,0 hPa 0,0 l/m 1,2 km/h (1 Bft) W-SW 257 0 min 0,000 mm 0,0 UV-I 0 W/m 7,0 C 7,7 C 1,6 km/h (1 Bft) 97,14 %
06.05.2017 00:44 7,7 C 14,4 C 95 % 1017,0 hPa 0,0 l/m 0,0 km/h (0 Bft) W-SW 257 0 min 0,000 mm 0,0 UV-I 0 W/m 7,0 C 7,7 C 1,6 km/h (1 Bft) 94,34 %
06.05.2017 00:46 7,7 C 14,4 C 95 % 1017,0 hPa 0,0 l/m 0,0 km/h (0 Bft) W-SW 257 0 min 0,000 mm 0,0 UV-I 0 W/m 7,0 C 7,7 C 0,0 km/h (0 Bft) 96,00 %
06.05.2017 00:48 7,7 C 14,4 C 95 % 1017,0 hPa 0,0 l/m 0,0 km/h (0 Bft) W-SW 257 0 min 0,000 mm 0,0 UV-I 0 W/m 7,0 C 7,7 C 0,0 km/h (0 Bft) 95,74 %
06.05.2017 00:50 7,6 C 14,4 C 95 % 1017,0 hPa 0,0 l/m 1,6 km/h (1 Bft) W-SW 257 0 min 0,000 mm 0,0 UV-I 0 W/m 6,9 C 7,6 C 3,2 km/h (1 Bft) 97,37 %
06.05.2017 00:52 7,6 C 14,4 C 95 % 1017,0 hPa 0,0 l/m 2,8 km/h (1 Bft) W-SW 257 0 min 0,000 mm 0,0 UV-I 0 W/m 6,9 C 7,6 C 4,8 km/h (1 Bft) 94,00 %
06.05.2017 00:54 7,6 C 14,4 C 95 % 1017,0 hPa 0,0 l/m 2,2 km/h (1 Bft) W-SW 257 0 min 0,000 mm 0,0 UV-I 0 W/m 6,9 C 7,6 C 3,2 km/h (1 Bft) 98,00 %
06.05.2017 00:56 7,6 C 14,4 C 95 % 1017,0 hPa 0,0 l/m 3,1 km/h (1 Bft) W-SW 257 0 min 0,000 mm 0,0 UV-I 0 W/m 6,9 C 7,6 C 6,4 km/h (2 Bft) 96,00 %
06.05.2017 00:58 7,6 C 14,4 C 95 % 1017,0 hPa 0,0 l/m 4,0 km/h (1 Bft) W-SW 257 0 min 0,000 mm 0,0 UV-I 0 W/m 6,9 C 7,6 C 6,4 km/h (2 Bft) 95,12 %
06.05.2017 01:00 7,6 C 14,4 C 95 % 1017,0 hPa 0,0 l/m 3,8 km/h (1 Bft) W-SW 257 0 min 0,000 mm 0,0 UV-I 0 W/m 6,9 C 7,6 C 4,8 km/h (1 Bft) 98,11 %
06.05.2017 01:02 7,6 C 14,4 C 95 % 1017,0 hPa 0,0 l/m 2,3 km/h (1 Bft) W-SW 257 0 min 0,000 mm 0,0 UV-I 0 W/m 6,9 C 7,6 C 4,8 km/h (1 Bft) 95,24 %
06.05.2017 01:04 7,6 C 14,4 C 95 % 1016,9 hPa 0,0 l/m 1,4 km/h (1 Bft) W-SW 257 0 min 0,000 mm 0,0 UV-I 0 W/m 6,9 C 7,6 C 3,2 km/h (1 Bft) 98,08 %
06.05.2017 01:06 7,5 C 14,4 C 95 % 1016,9 hPa 0,0 l/m 1,7 km/h (1 Bft) W-SW 257 0 min 0,000 mm 0,0 UV-I 0 W/m 6,8 C 7,5 C 3,2 km/h (1 Bft) 94,87 %
06.05.2017 01:08 7,4 C 14,4 C 95 % 1016,8 hPa 0,0 l/m 2,3 km/h (1 Bft) W-SW 257 0 min 0,000 mm 0,0 UV-I 0 W/m 6,7 C 7,4 C 3,2 km/h (1 Bft) 94,00 %
06.05.2017 01:10 7,5 C 14,4 C 95 % 1016,8 hPa 0,0 l/m 1,6 km/h (1 Bft) W-SW 257 0 min 0,000 mm 0,0 UV-I 0 W/m 6,8 C 7,5 C 3,2 km/h (1 Bft) 98,00 %
06.05.2017 01:12 7,6 C 14,4 C 96 % 1016,8 hPa 0,0 l/m 1,9 km/h (1 Bft) W-SW 257 0 min 0,000 mm 0,0 UV-I 0 W/m 7,0 C 7,6 C 3,2 km/h (1 Bft) 96,00 %
06.05.2017 01:14 7,6 C 14,4 C 96 % 1016,8 hPa 0,0 l/m 2,0 km/h (1 Bft) W-SW 257 0 min 0,000 mm 0,0 UV-I 0 W/m 7,0 C 7,6 C 3,2 km/h (1 Bft) 94,29 %
06.05.2017 01:16 7,6 C 14,4 C 95 % 1016,8 hPa 0,0 l/m 3,4 km/h (1 Bft) W-SW 257 0 min 0,000 mm 0,0 UV-I 0 W/m 6,9 C 7,6 C 4,8 km/h (1 Bft) 96,43 %
06.05.2017 01:18 7,5 C 14,4 C 95 % 1016,8 hPa 0,0 l/m 1,5 km/h (1 Bft) W-SW 257 0 min 0,000 mm 0,0 UV-I 0 W/m 6,8 C 7,5 C 3,2 km/h (1 Bft) 98,00 %
06.05.2017 01:20 7,4 C 14,4 C 95 % 1016,8 hPa 0,0 l/m 0,7 km/h (0 Bft) W-SW 257 0 min 0,000 mm 0,0 UV-I 0 W/m 6,7 C 7,4 C 1,6 km/h (1 Bft) 94,29 %
06.05.2017 01:22 7,2 C 14,4 C 95 % 1016,8 hPa 0,0 l/m 0,0 km/h (0 Bft) W-SW 257 0 min 0,000 mm 0,0 UV-I 0 W/m 6,5 C 7,2 C 0,0 km/h (0 Bft) 100,00 %
06.05.2017 01:24 7,2 C 14,4 C 95 % 1016,8 hPa 0,0 l/m 0,0 km/h (0 Bft) W-SW 257 0 min 0,000 mm 0,0 UV-I 0 W/m 6,5 C 7,2 C 0,0 km/h (0 Bft) 98,00 %
06.05.2017 01:26 7,2 C 14,4 C 95 % 1016,7 hPa 0,0 l/m 0,0 km/h (0 Bft) W-SW 257 0 min 0,000 mm 0,0 UV-I 0 W/m 6,5 C 7,2 C 0,0 km/h (0 Bft) 95,74 %
06.05.2017 01:28 7,1 C 14,4 C 95 % 1016,6 hPa 0,0 l/m 0,0 km/h (0 Bft) W-SW 257 0 min 0,000 mm 0,0 UV-I 0 W/m 6,4 C 7,1 C 0,0 km/h (0 Bft) 97,87 %
06.05.2017 01:30 7,1 C 14,4 C 95 % 1016,6 hPa 0,0 l/m 0,0 km/h (0 Bft) W-SW 257 0 min 0,000 mm 0,0 UV-I 0 W/m 6,4 C 7,1 C 0,0 km/h (0 Bft) 97,87 %
06.05.2017 01:32 7,1 C 14,4 C 95 % 1016,6 hPa 0,0 l/m 0,0 km/h (0 Bft) W-SW 257 0 min 0,000 mm 0,0 UV-I 0 W/m 6,4 C 7,1 C 0,0 km/h (0 Bft) 95,12 %
06.05.2017 01:34 7,1 C 14,4 C 96 % 1016,5 hPa 0,0 l/m 0,0 km/h (0 Bft) W-SW 257 0 min 0,000 mm 0,0 UV-I 0 W/m 6,5 C 7,1 C 0,0 km/h (0 Bft) 96,23 %
06.05.2017 01:36 7,1 C 14,4 C 95 % 1016,5 hPa 0,0 l/m 0,0 km/h (0 Bft) W-SW 257 0 min 0,000 mm 0,0 UV-I 0 W/m 6,4 C 7,1 C 0,0 km/h (0 Bft) 95,74 %
06.05.2017 01:38 7,0 C 14,4 C 95 % 1016,5 hPa 0,0 l/m 1,0 km/h (0 Bft) W-SW 257 0 min 0,000 mm 0,0 UV-I 0 W/m 6,3 C 7,0 C 1,6 km/h (1 Bft) 97,44 %
06.05.2017 01:40 7,1 C 14,4 C 96 % 1016,4 hPa 0,0 l/m 0,3 km/h (0 Bft) W-SW 257 0 min 0,000 mm 0,0 UV-I 0 W/m 6,5 C 7,1 C 1,6 km/h (1 Bft) 98,00 %
06.05.2017 01:42 7,1 C 14,4 C 96 % 1016,4 hPa 0,0 l/m 0,0 km/h (0 Bft) W-SW 257 0 min 0,000 mm 0,0 UV-I 0 W/m 6,5 C 7,1 C 0,0 km/h (0 Bft) 100,00 %
06.05.2017 01:44 6,9 C 14,4 C 95 % 1016,4 hPa 0,0 l/m 0,0 km/h (0 Bft) W-SW 257 0 min 0,000 mm 0,0 UV-I 0 W/m 6,2 C 6,9 C 0,0 km/h (0 Bft) 100,00 %
06.05.2017 01:46 6,9 C 14,4 C 96 % 1016,3 hPa 0,0 l/m 0,0 km/h (0 Bft) W-SW 257 0 min 0,000 mm 0,0 UV-I 0 W/m 6,3 C 6,9 C 0,0 km/h (0 Bft) 97,73 %
06.05.2017 01:48 6,9 C 14,4 C 96 % 1016,3 hPa 0,0 l/m 0,0 km/h (0 Bft) W-SW 257 0 min 0,000 mm 0,0 UV-I 0 W/m 6,3 C 6,9 C 0,0 km/h (0 Bft) 100,00 %
06.05.2017 01:50 6,8 C 14,4 C 96 % 1016,2 hPa 0,0 l/m 0,0 km/h (0 Bft) W-SW 257 0 min 0,000 mm 0,0 UV-I 0 W/m 6,2 C 6,8 C 0,0 km/h (0 Bft) 98,00 %
06.05.2017 01:52 6,8 C 14,4 C 96 % 1016,2 hPa 0,0 l/m 0,0 km/h (0 Bft) W-SW 257 0 min 0,000 mm 0,0 UV-I 0 W/m 6,2 C 6,8 C 0,0 km/h (0 Bft) 100,00 %
06.05.2017 01:54 6,8 C 14,4 C 96 % 1016,2 hPa 0,0 l/m 0,4 km/h (0 Bft) W-SW 257 0 min 0,000 mm 0,0 UV-I 0 W/m 6,2 C 6,8 C 3,2 km/h (1 Bft) 100,00 %
06.05.2017 01:56 6,9 C 14,4 C 96 % 1016,2 hPa 0,0 l/m 0,9 km/h (0 Bft) W-SW 257 0 min 0,000 mm 0,0 UV-I 0 W/m 6,3 C 6,9 C 1,6 km/h (1 Bft) 100,00 %
06.05.2017 01:58 6,8 C 14,4 C 96 % 1016,2 hPa 0,0 l/m 0,0 km/h (0 Bft) W-SW 257 0 min 0,000 mm 0,0 UV-I 0 W/m 6,2 C 6,8 C 0,0 km/h (0 Bft) 97,87 %
06.05.2017 02:00 6,7 C 14,4 C 95 % 1016,2 hPa 0,0 l/m 0,9 km/h (0 Bft) W-SW 257 0 min 0,000 mm 0,0 UV-I 0 W/m 6,0 C 6,7 C 3,2 km/h (1 Bft) 98,11 %
06.05.2017 02:02 6,6 C 14,4 C 95 % 1016,1 hPa 0,0 l/m 3,3 km/h (1 Bft) W-SW 257 0 min 0,000 mm 0,0 UV-I 0 W/m 5,9 C 6,6 C 4,8 km/h (1 Bft) 97,87 %
06.05.2017 02:04 6,4 C 14,4 C 95 % 1016,1 hPa 0,0 l/m 3,2 km/h (1 Bft) W-SW 257 0 min 0,000 mm 0,0 UV-I 0 W/m 5,7 C 6,4 C 4,8 km/h (1 Bft) 97,87 %
06.05.2017 02:06 6,4 C 14,4 C 95 % 1016,1 hPa 0,0 l/m 3,1 km/h (1 Bft) W-SW 257 0 min 0,000 mm 0,0 UV-I 0 W/m 5,7 C 6,4 C 4,8 km/h (1 Bft) 100,00 %
06.05.2017 02:08 6,4 C 14,4 C 95 % 1016,1 hPa 0,0 l/m 2,5 km/h (1 Bft) W-SW 257 0 min 0,000 mm 0,0 UV-I 0 W/m 5,7 C 6,4 C 3,2 km/h (1 Bft) 97,37 %
06.05.2017 02:10 6,4 C 14,4 C 96 % 1016,1 hPa 0,0 l/m 0,7 km/h (0 Bft) W-SW 257 0 min 0,000 mm 0,0 UV-I 0 W/m 5,8 C 6,4 C 3,2 km/h (1 Bft) 100,00 %
06.05.2017 02:12 6,4 C 14,4 C 96 % 1016,1 hPa 0,0 l/m 0,0 km/h (0 Bft) W-SW 257 0 min 0,000 mm 0,0 UV-I 0 W/m 5,8 C 6,4 C 1,6 km/h (1 Bft) 97,87 %
06.05.2017 02:14 6,5 C 14,4 C 96 % 1016,1 hPa 0,0 l/m 0,1 km/h (0 Bft) W-SW 257 0 min 0,000 mm 0,0 UV-I 0 W/m 5,9 C 6,5 C 1,6 km/h (1 Bft) 97,56 %
06.05.2017 02:16 6,5 C 14,4 C 96 % 1016,1 hPa 0,0 l/m 0,5 km/h (0 Bft) W-SW 257 0 min 0,000 mm 0,0 UV-I 0 W/m 5,9 C 6,5 C 1,6 km/h (1 Bft) 100,00 %
06.05.2017 02:18 6,4 C 14,4 C 96 % 1016,0 hPa 0,0 l/m 0,2 km/h (0 Bft) W-SW 257 0 min 0,000 mm 0,0 UV-I 0 W/m 5,8 C 6,4 C 1,6 km/h (1 Bft) 98,44 %
06.05.2017 02:20 6,4 C 14,4 C 96 % 1016,0 hPa 0,0 l/m 2,0 km/h (1 Bft) W-SW 257 0 min 0,000 mm 0,0 UV-I 0 W/m 5,8 C 6,4 C 3,2 km/h (1 Bft) 100,00 %
06.05.2017 02:22 6,3 C 14,4 C 96 % 1015,9 hPa 0,0 l/m 3,1 km/h (1 Bft) W-SW 257 0 min 0,000 mm 0,0 UV-I 0 W/m 5,7 C 6,3 C 4,8 km/h (1 Bft) 98,00 %
06.05.2017 02:24 6,1 C 14,4 C 95 % 1015,9 hPa 0,0 l/m 4,7 km/h (1 Bft) W-SW 257 0 min 0,000 mm 0,0 UV-I 0 W/m 5,4 C 6,1 C 6,4 km/h (2 Bft) 100,00 %
06.05.2017 02:26 6,1 C 14,4 C 95 % 1015,9 hPa 0,0 l/m 5,4 km/h (1 Bft) O-NO 67 0 min 0,000 mm 0,0 UV-I 0 W/m 5,4 C 6,1 C 6,4 km/h (2 Bft) 98,11 %
06.05.2017 02:28 6,2 C 14,4 C 96 % 1015,8 hPa 0,0 l/m 5,0 km/h (1 Bft) O-NO 74 0 min 0,000 mm 0,0 UV-I 0 W/m 5,6 C 6,2 C 6,4 km/h (2 Bft) 98,11 %
06.05.2017 02:30 6,5 C 14,4 C 96 % 1015,8 hPa 0,0 l/m 6,7 km/h (2 Bft) O-NO 69 0 min 0,000 mm 0,0 UV-I 0 W/m 5,9 C 6,3 C 9,7 km/h (2 Bft) 100,00 %
06.05.2017 02:32 6,7 C 14,4 C 97 % 1015,8 hPa 0,0 l/m 5,0 km/h (1 Bft) O-NO 74 0 min 0,000 mm 0,0 UV-I 0 W/m 6,3 C 6,7 C 6,4 km/h (2 Bft) 98,00 %
06.05.2017 02:34 6,9 C 14,4 C 97 % 1015,7 hPa 0,0 l/m 4,8 km/h (1 Bft) O-NO 77 0 min 0,000 mm 0,0 UV-I 0 W/m 6,5 C 6,9 C 6,4 km/h (2 Bft) 97,87 %
06.05.2017 02:36 6,8 C 14,4 C 96 % 1015,7 hPa 0,0 l/m 2,6 km/h (1 Bft) O-NO 68 0 min 0,000 mm 0,0 UV-I 0 W/m 6,2 C 6,8 C 6,4 km/h (2 Bft) 95,74 %
06.05.2017 02:38 6,8 C 14,4 C 96 % 1015,7 hPa 0,0 l/m 1,6 km/h (1 Bft) O-NO 68 0 min 0,000 mm 0,0 UV-I 0 W/m 6,2 C 6,8 C 3,2 km/h (1 Bft) 96,43 %
06.05.2017 02:40 6,7 C 14,4 C 96 % 1015,7 hPa 0,0 l/m 0,6 km/h (0 Bft) O-NO 68 0 min 0,000 mm 0,0 UV-I 0 W/m 6,1 C 6,7 C 3,2 km/h (1 Bft) 100,00 %
06.05.2017 02:42 6,7 C 14,4 C 96 % 1015,7 hPa 0,0 l/m 1,3 km/h (1 Bft) O-NO 78 0 min 0,000 mm 0,0 UV-I 0 W/m 6,1 C 6,7 C 4,8 km/h (1 Bft) 96,00 %
06.05.2017 02:44 6,6 C 14,4 C 96 % 1015,7 hPa 0,0 l/m 0,6 km/h (0 Bft) O-NO 78 0 min 0,000 mm 0,0 UV-I 0 W/m 6,0 C 6,6 C 3,2 km/h (1 Bft) 95,74 %
06.05.2017 02:46 6,5 C 14,4 C 96 % 1015,6 hPa 0,0 l/m 0,0 km/h (0 Bft) O-NO 78 0 min 0,000 mm 0,0 UV-I 0 W/m 5,9 C 6,5 C 0,0 km/h (0 Bft) 97,87 %
06.05.2017 02:48 6,3 C 14,4 C 96 % 1015,6 hPa 0,0 l/m 0,2 km/h (0 Bft) O-NO 78 0 min 0,000 mm 0,0 UV-I 0 W/m 5,7 C 6,3 C 1,6 km/h (1 Bft) 96,00 %
06.05.2017 02:50 6,3 C 14,4 C 96 % 1015,6 hPa 0,0 l/m 0,3 km/h (0 Bft) O-NO 78 0 min 0,000 mm 0,0 UV-I 0 W/m 5,7 C 6,3 C 1,6 km/h (1 Bft) 96,00 %
06.05.2017 02:52 6,2 C 14,4 C 96 % 1015,6 hPa 0,0 l/m 0,4 km/h (0 Bft) O-NO 78 0 min 0,000 mm 0,0 UV-I 0 W/m 5,6 C 6,2 C 1,6 km/h (1 Bft) 94,29 %
06.05.2017 02:54 6,1 C 14,4 C 96 % 1015,6 hPa 0,0 l/m 0,3 km/h (0 Bft) O-NO 78 0 min 0,000 mm 0,0 UV-I 0 W/m 5,5 C 6,1 C 1,6 km/h (1 Bft) 96,00 %
06.05.2017 02:56 6,1 C 14,4 C 96 % 1015,5 hPa 0,0 l/m 1,3 km/h (1 Bft) O-NO 78 0 min 0,000 mm 0,0 UV-I 0 W/m 5,5 C 6,1 C 3,2 km/h (1 Bft) 96,23 %
06.05.2017 02:58 6,1 C 14,4 C 96 % 1015,6 hPa 0,0 l/m 0,0 km/h (0 Bft) O-NO 78 0 min 0,000 mm 0,0 UV-I 0 W/m 5,5 C 6,1 C 0,0 km/h (0 Bft) 94,00 %
06.05.2017 03:00 6,0 C 14,4 C 96 % 1015,5 hPa 0,0 l/m 0,0 km/h (0 Bft) O-NO 78 0 min 0,000 mm 0,0 UV-I 0 W/m 5,4 C 6,0 C 0,0 km/h (0 Bft) 93,62 %
06.05.2017 03:02 6,0 C 14,4 C 96 % 1015,6 hPa 0,0 l/m 0,7 km/h (0 Bft) O-NO 78 0 min 0,000 mm 0,0 UV-I 0 W/m 5,4 C 6,0 C 1,6 km/h (1 Bft) 92,86 %
06.05.2017 03:04 5,9 C 14,4 C 96 % 1015,5 hPa 0,0 l/m 1,3 km/h (1 Bft) O-NO 78 0 min 0,000 mm 0,0 UV-I 0 W/m 5,3 C 5,9 C 3,2 km/h (1 Bft) 91,49 %
06.05.2017 03:06 5,9 C 14,4 C 96 % 1015,5 hPa 0,0 l/m 0,0 km/h (0 Bft) O-NO 78 0 min 0,000 mm 0,0 UV-I 0 W/m 5,3 C 5,9 C 0,0 km/h (0 Bft) 96,23 %
06.05.2017 03:08 5,9 C 14,4 C 96 % 1015,5 hPa 0,0 l/m 0,0 km/h (0 Bft) O-NO 78 0 min 0,000 mm 0,0 UV-I 0 W/m 5,3 C 5,9 C 0,0 km/h (0 Bft) 85,37 %
06.05.2017 03:10 5,9 C 14,4 C 96 % 1015,5 hPa 0,0 l/m 0,0 km/h (0 Bft) O-NO 78 0 min 0,000 mm 0,0 UV-I 0 W/m 5,3 C 5,9 C 0,0 km/h (0 Bft) 94,00 %
06.05.2017 03:12 5,8 C 14,4 C 96 % 1015,4 hPa 0,0 l/m 2,1 km/h (1 Bft) O-NO 78 0 min 0,000 mm 0,0 UV-I 0 W/m 5,2 C 5,8 C 4,8 km/h (1 Bft) 89,47 %
06.05.2017 03:14 5,7 C 14,4 C 96 % 1015,4 hPa 0,0 l/m 1,3 km/h (1 Bft) O-NO 78 0 min 0,000 mm 0,0 UV-I 0 W/m 5,1 C 5,7 C 3,2 km/h (1 Bft) 94,64 %
06.05.2017 03:16 5,6 C 14,4 C 96 % 1015,5 hPa 0,0 l/m 1,4 km/h (1 Bft) O-NO 78 0 min 0,000 mm 0,0 UV-I 0 W/m 5,0 C 5,6 C 3,2 km/h (1 Bft) 95,12 %
06.05.2017 03:18 5,5 C 14,4 C 96 % 1015,5 hPa 0,0 l/m 0,8 km/h (0 Bft) O-NO 78 0 min 0,000 mm 0,0 UV-I 0 W/m 4,9 C 5,5 C 3,2 km/h (1 Bft) 93,62 %
06.05.2017 03:20 5,6 C 14,4 C 96 % 1015,5 hPa 0,0 l/m 0,4 km/h (0 Bft) O-NO 78 0 min 0,000 mm 0,0 UV-I 0 W/m 5,0 C 5,6 C 1,6 km/h (1 Bft) 95,74 %
06.05.2017 03:22 5,6 C 14,4 C 96 % 1015,4 hPa 0,0 l/m 0,3 km/h (0 Bft) O-NO 78 0 min 0,000 mm 0,0 UV-I 0 W/m 5,0 C 5,6 C 1,6 km/h (1 Bft) 96,00 %
06.05.2017 03:24 5,6 C 14,4 C 96 % 1015,4 hPa 0,0 l/m 0,6 km/h (0 Bft) O-NO 78 0 min 0,000 mm 0,0 UV-I 0 W/m 5,0 C 5,6 C 3,2 km/h (1 Bft) 94,00 %
06.05.2017 03:26 5,7 C 14,4 C 96 % 1015,4 hPa 0,0 l/m 0,0 km/h (0 Bft) O-NO 78 0 min 0,000 mm 0,0 UV-I 0 W/m 5,1 C 5,7 C 0,0 km/h (0 Bft) 89,36 %
06.05.2017 03:28 5,6 C 14,4 C 96 % 1015,4 hPa 0,0 l/m 0,0 km/h (0 Bft) O-NO 78 0 min 0,000 mm 0,0 UV-I 0 W/m 5,0 C 5,6 C 0,0 km/h (0 Bft) 95,74 %
06.05.2017 03:30 5,6 C 14,4 C 96 % 1015,3 hPa 0,0 l/m 0,6 km/h (0 Bft) O-NO 78 0 min 0,000 mm 0,0 UV-I 0 W/m 5,0 C 5,6 C 3,2 km/h (1 Bft) 97,56 %
06.05.2017 03:32 5,6 C 14,4 C 96 % 1015,3 hPa 0,0 l/m 1,0 km/h (0 Bft) O-NO 78 0 min 0,000 mm 0,0 UV-I 0 W/m 5,0 C 5,6 C 3,2 km/h (1 Bft) 97,37 %
06.05.2017 03:34 5,5 C 14,4 C 96 % 1015,3 hPa 0,0 l/m 2,3 km/h (1 Bft) O-NO 78 0 min 0,000 mm 0,0 UV-I 0 W/m 4,9 C 5,5 C 4,8 km/h (1 Bft) 96,23 %
06.05.2017 03:36 5,7 C 14,4 C 96 % 1015,2 hPa 0,0 l/m 2,0 km/h (1 Bft) O-NO 78 0 min 0,000 mm 0,0 UV-I 0 W/m 5,1 C 5,7 C 3,2 km/h (1 Bft) 98,00 %
06.05.2017 03:38 5,8 C 14,4 C 97 % 1015,3 hPa 0,0 l/m 0,5 km/h (0 Bft) O-NO 78 0 min 0,000 mm 0,0 UV-I 0 W/m 5,4 C 5,8 C 1,6 km/h (1 Bft) 98,00 %
06.05.2017 03:40 5,9 C 14,4 C 97 % 1015,2 hPa 0,0 l/m 0,4 km/h (0 Bft) O-NO 78 0 min 0,000 mm 0,0 UV-I 0 W/m 5,5 C 5,9 C 1,6 km/h (1 Bft) 97,87 %
06.05.2017 03:42 5,9 C 14,4 C 96 % 1015,2 hPa 0,0 l/m 0,0 km/h (0 Bft) O-NO 78 0 min 0,000 mm 0,0 UV-I 0 W/m 5,3 C 5,9 C 0,0 km/h (0 Bft) 100,00 %
06.05.2017 03:44 5,8 C 14,4 C 96 % 1015,2 hPa 0,0 l/m 0,0 km/h (0 Bft) O-NO 78 0 min 0,000 mm 0,0 UV-I 0 W/m 5,2 C 5,8 C 0,0 km/h (0 Bft) 100,00 %
06.05.2017 03:46 5,6 C 14,4 C 96 % 1015,2 hPa 0,0 l/m 0,0 km/h (0 Bft) O-NO 78 0 min 0,000 mm 0,0 UV-I 0 W/m 5,0 C 5,6 C 0,0 km/h (0 Bft) 98,39 %
06.05.2017 03:48 5,5 C 14,4 C 96 % 1015,2 hPa 0,0 l/m 0,0 km/h (0 Bft) O-NO 78 0 min 0,000 mm 0,0 UV-I 0 W/m 4,9 C 5,5 C 0,0 km/h (0 Bft) 100,00 %
06.05.2017 03:50 5,5 C 14,4 C 96 % 1015,2 hPa 0,0 l/m 0,0 km/h (0 Bft) O-NO 78 0 min 0,000 mm 0,0 UV-I 0 W/m 4,9 C 5,5 C 0,0 km/h (0 Bft) 98,00 %
06.05.2017 03:52 5,4 C 14,4 C 96 % 1015,2 hPa 0,0 l/m 0,0 km/h (0 Bft) O-NO 78 0 min 0,000 mm 0,0 UV-I 0 W/m 4,8 C 5,4 C 0,0 km/h (0 Bft) 100,00 %
06.05.2017 03:54 5,4 C 14,4 C 96 % 1015,2 hPa 0,0 l/m 0,0 km/h (0 Bft) O-NO 78 0 min 0,000 mm 0,0 UV-I 0 W/m 4,8 C 5,4 C 0,0 km/h (0 Bft) 95,74 %
06.05.2017 03:56 5,4 C 14,4 C 96 % 1015,2 hPa 0,0 l/m 0,0 km/h (0 Bft) O-NO 78 0 min 0,000 mm 0,0 UV-I 0 W/m 4,8 C 5,4 C 0,0 km/h (0 Bft) 98,11 %
06.05.2017 03:58 5,3 C 14,4 C 96 % 1015,1 hPa 0,0 l/m 0,0 km/h (0 Bft) O-NO 78 0 min 0,000 mm 0,0 UV-I 0 W/m 4,7 C 5,3 C 0,0 km/h (0 Bft) 100,00 %
06.05.2017 04:00 5,4 C 14,4 C 96 % 1015,1 hPa 0,0 l/m 2,0 km/h (1 Bft) O-NO 78 0 min 0,000 mm 0,0 UV-I 0 W/m 4,8 C 5,4 C 3,2 km/h (1 Bft) 97,87 %
06.05.2017 04:02 5,6 C 14,4 C 97 % 1015,0 hPa 0,0 l/m 3,4 km/h (1 Bft) O-NO 78 0 min 0,000 mm 0,0 UV-I 0 W/m 5,2 C 5,6 C 4,8 km/h (1 Bft) 100,00 %
06.05.2017 04:04 5,9 C 14,4 C 97 % 1015,0 hPa 0,0 l/m 4,0 km/h (1 Bft) O-NO 78 0 min 0,000 mm 0,0 UV-I 0 W/m 5,5 C 5,9 C 4,8 km/h (1 Bft) 98,00 %
06.05.2017 04:06 6,0 C 14,4 C 97 % 1014,9 hPa 0,0 l/m 3,6 km/h (1 Bft) O-NO 78 0 min 0,000 mm 0,0 UV-I 0 W/m 5,6 C 6,0 C 4,8 km/h (1 Bft) 97,87 %
06.05.2017 04:08 6,1 C 14,4 C 97 % 1015,0 hPa 0,0 l/m 4,1 km/h (1 Bft) O-NO 78 0 min 0,000 mm 0,0 UV-I 0 W/m 5,7 C 6,1 C 4,8 km/h (1 Bft) 98,00 %
06.05.2017 04:10 6,2 C 14,4 C 97 % 1014,9 hPa 0,0 l/m 3,3 km/h (1 Bft) O-NO 78 0 min 0,000 mm 0,0 UV-I 0 W/m 5,8 C 6,2 C 4,8 km/h (1 Bft) 100,00 %
06.05.2017 04:12 6,1 C 14,4 C 97 % 1014,9 hPa 0,0 l/m 2,7 km/h (1 Bft) O-NO 78 0 min 0,000 mm 0,0 UV-I 0 W/m 5,7 C 6,1 C 4,8 km/h (1 Bft) 100,00 %
06.05.2017 04:14 6,1 C 14,4 C 97 % 1014,9 hPa 0,0 l/m 3,6 km/h (1 Bft) O-NO 78 0 min 0,000 mm 0,0 UV-I 0 W/m 5,7 C 6,1 C 4,8 km/h (1 Bft) 100,00 %
06.05.2017 04:16 6,1 C 14,4 C 97 % 1014,9 hPa 0,0 l/m 2,9 km/h (1 Bft) O-NO 78 0 min 0,000 mm 0,0 UV-I 0 W/m 5,7 C 6,1 C 4,8 km/h (1 Bft) 100,00 %
06.05.2017 04:18 5,9 C 14,4 C 96 % 1014,9 hPa 0,0 l/m 0,6 km/h (0 Bft) O-NO 78 0 min 0,000 mm 0,0 UV-I 0 W/m 5,3 C 5,9 C 4,8 km/h (1 Bft) 100,00 %
06.05.2017 04:20 5,7 C 14,4 C 96 % 1014,8 hPa 0,0 l/m 0,5 km/h (0 Bft) O-NO 78 0 min 0,000 mm 0,0 UV-I 0 W/m 5,1 C 5,7 C 1,6 km/h (1 Bft) 100,00 %
06.05.2017 04:22 5,4 C 14,4 C 96 % 1014,9 hPa 0,0 l/m 0,6 km/h (0 Bft) O-NO 78 0 min 0,000 mm 0,0 UV-I 0 W/m 4,8 C 5,4 C 1,6 km/h (1 Bft) 98,39 %
06.05.2017 04:24 5,3 C 14,4 C 96 % 1014,8 hPa 0,0 l/m 1,4 km/h (1 Bft) O-NO 78 0 min 0,000 mm 0,0 UV-I 0 W/m 4,7 C 5,3 C 3,2 km/h (1 Bft) 100,00 %
06.05.2017 04:26 5,2 C 14,4 C 96 % 1014,8 hPa 0,0 l/m 0,5 km/h (0 Bft) O-NO 78 0 min 0,000 mm 0,0 UV-I 0 W/m 4,6 C 5,2 C 1,6 km/h (1 Bft) 95,74 %
06.05.2017 04:28 5,1 C 14,4 C 96 % 1014,8 hPa 0,0 l/m 0,0 km/h (0 Bft) O-NO 78 0 min 0,000 mm 0,0 UV-I 0 W/m 4,5 C 5,1 C 0,0 km/h (0 Bft) 97,87 %
06.05.2017 04:30 5,0 C 14,4 C 96 % 1014,8 hPa 0,0 l/m 0,3 km/h (0 Bft) O-NO 78 0 min 0,000 mm 0,0 UV-I 0 W/m 4,4 C 5,0 C 3,2 km/h (1 Bft) 100,00 %
06.05.2017 04:32 5,0 C 14,4 C 96 % 1014,9 hPa 0,0 l/m 1,5 km/h (1 Bft) O-NO 78 0 min 0,000 mm 0,0 UV-I 0 W/m 4,4 C 5,0 C 3,2 km/h (1 Bft) 98,00 %
06.05.2017 04:34 5,1 C 14,4 C 96 % 1014,9 hPa 0,0 l/m 3,5 km/h (1 Bft) S 173 0 min 0,000 mm 0,0 UV-I 0 W/m 4,5 C 5,1 C 4,8 km/h (1 Bft) 95,74 %
06.05.2017 04:36 5,0 C 14,4 C 96 % 1014,9 hPa 0,0 l/m 4,4 km/h (1 Bft) SW 214 0 min 0,000 mm 0,0 UV-I 0 W/m 4,4 C 5,0 C 6,4 km/h (2 Bft) 100,00 %
06.05.2017 04:38 4,9 C 14,4 C 96 % 1014,9 hPa 0,0 l/m 4,3 km/h (1 Bft) SW 215 0 min 0,000 mm 0,0 UV-I 0 W/m 4,3 C 4,9 C 6,4 km/h (2 Bft) 97,87 %
06.05.2017 04:40 4,9 C 14,4 C 96 % 1014,9 hPa 0,0 l/m 4,1 km/h (1 Bft) SW 215 0 min 0,000 mm 0,0 UV-I 0 W/m 4,3 C 4,9 C 4,8 km/h (1 Bft) 95,74 %
06.05.2017 04:42 4,9 C 14,4 C 96 % 1014,9 hPa 0,0 l/m 3,5 km/h (1 Bft) SW 215 0 min 0,000 mm 0,0 UV-I 0 W/m 4,3 C 4,9 C 6,4 km/h (2 Bft) 97,87 %
06.05.2017 04:44 5,0 C 14,4 C 96 % 1014,9 hPa 0,0 l/m 1,3 km/h (1 Bft) SW 215 0 min 0,000 mm 0,0 UV-I 0 W/m 4,4 C 5,0 C 3,2 km/h (1 Bft) 100,00 %
06.05.2017 04:46 5,0 C 14,4 C 97 % 1014,8 hPa 0,0 l/m 1,2 km/h (1 Bft) SW 215 0 min 0,000 mm 0,0 UV-I 0 W/m 4,6 C 5,0 C 3,2 km/h (1 Bft) 97,87 %
06.05.2017 04:48 4,9 C 14,4 C 96 % 1014,8 hPa 0,0 l/m 1,3 km/h (1 Bft) SW 215 0 min 0,000 mm 0,0 UV-I 0 W/m 4,3 C 4,9 C 3,2 km/h (1 Bft) 95,74 %
06.05.2017 04:50 4,8 C 14,4 C 96 % 1014,8 hPa 0,0 l/m 2,3 km/h (1 Bft) SW 215 0 min 0,000 mm 0,0 UV-I 0 W/m 4,2 C 4,8 C 4,8 km/h (1 Bft) 97,87 %
06.05.2017 04:52 4,7 C 14,4 C 96 % 1014,8 hPa 0,0 l/m 3,4 km/h (1 Bft) SW 215 0 min 0,000 mm 0,0 UV-I 0 W/m 4,1 C 4,7 C 4,8 km/h (1 Bft) 95,74 %
06.05.2017 04:54 4,7 C 14,4 C 96 % 1014,8 hPa 0,0 l/m 1,5 km/h (1 Bft) SW 215 0 min 0,000 mm 0,0 UV-I 0 W/m 4,1 C 4,7 C 3,2 km/h (1 Bft) 98,00 %
06.05.2017 04:56 4,8 C 14,4 C 96 % 1014,8 hPa 0,0 l/m 2,1 km/h (1 Bft) S-SW 213 0 min 0,000 mm 0,0 UV-I 0 W/m 4,2 C 4,8 C 3,2 km/h (1 Bft) 100,00 %
06.05.2017 04:58 4,9 C 14,4 C 97 % 1014,8 hPa 0,0 l/m 2,0 km/h (1 Bft) S-SW 213 0 min 0,000 mm 0,0 UV-I 0 W/m 4,5 C 4,9 C 4,8 km/h (1 Bft) 98,00 %
06.05.2017 05:00 5,2 C 14,4 C 97 % 1014,8 hPa 0,0 l/m 0,9 km/h (0 Bft) S-SW 213 0 min 0,000 mm 0,0 UV-I 0 W/m 4,8 C 5,2 C 3,2 km/h (1 Bft) 100,00 %
06.05.2017 05:02 5,2 C 14,4 C 97 % 1014,8 hPa 0,0 l/m 1,5 km/h (1 Bft) S-SW 213 0 min 0,000 mm 0,0 UV-I 0 W/m 4,8 C 5,2 C 3,2 km/h (1 Bft) 97,87 %
06.05.2017 05:04 5,3 C 14,4 C 97 % 1014,7 hPa 0,0 l/m 0,0 km/h (0 Bft) S-SW 213 0 min 0,000 mm 0,0 UV-I 0 W/m 4,9 C 5,3 C 1,6 km/h (1 Bft) 97,87 %
06.05.2017 05:06 5,3 C 14,4 C 97 % 1014,7 hPa 0,0 l/m 0,3 km/h (0 Bft) S-SW 213 0 min 0,000 mm 0,0 UV-I 0 W/m 4,9 C 5,3 C 1,6 km/h (1 Bft) 97,87 %
06.05.2017 05:08 5,3 C 14,4 C 97 % 1014,7 hPa 0,0 l/m 0,2 km/h (0 Bft) S-SW 213 0 min 0,000 mm 0,0 UV-I 0 W/m 4,9 C 5,3 C 1,6 km/h (1 Bft) 97,87 %
06.05.2017 05:10 5,2 C 14,4 C 97 % 1014,7 hPa 0,0 l/m 0,8 km/h (0 Bft) S-SW 213 0 min 0,000 mm 0,0 UV-I 0 W/m 4,8 C 5,2 C 1,6 km/h (1 Bft) 97,87 %
06.05.2017 05:12 5,2 C 14,4 C 97 % 1014,7 hPa 0,0 l/m 0,6 km/h (0 Bft) S-SW 213 0 min 0,000 mm 0,0 UV-I 0 W/m 4,8 C 5,2 C 1,6 km/h (1 Bft) 97,87 %
06.05.2017 05:14 5,3 C 14,4 C 97 % 1014,7 hPa 0,0 l/m 1,8 km/h (1 Bft) S-SW 213 0 min 0,000 mm 0,0 UV-I 0 W/m 4,9 C 5,3 C 3,2 km/h (1 Bft) 97,87 %
06.05.2017 05:16 5,5 C 14,4 C 97 % 1014,7 hPa 0,0 l/m 0,0 km/h (0 Bft) S-SW 213 0 min 0,000 mm 0,0 UV-I 0 W/m 5,1 C 5,5 C 0,0 km/h (0 Bft) 95,74 %
06.05.2017 05:18 5,5 C 14,4 C 97 % 1014,7 hPa 0,0 l/m 0,0 km/h (0 Bft) S-SW 213 0 min 0,000 mm 0,0 UV-I 0 W/m 5,1 C 5,5 C 0,0 km/h (0 Bft) 97,87 %
06.05.2017 05:20 5,5 C 14,4 C 97 % 1014,6 hPa 0,0 l/m 0,0 km/h (0 Bft) S-SW 213 0 min 0,000 mm 0,0 UV-I 0 W/m 5,1 C 5,5 C 0,0 km/h (0 Bft) 93,62 %
06.05.2017 05:22 5,4 C 14,4 C 97 % 1014,7 hPa 0,0 l/m 0,0 km/h (0 Bft) S-SW 213 0 min 0,000 mm 0,0 UV-I 0 W/m 5,0 C 5,4 C 0,0 km/h (0 Bft) 97,87 %
06.05.2017 05:24 5,3 C 14,4 C 96 % 1014,6 hPa 0,0 l/m 1,5 km/h (1 Bft) S-SW 213 0 min 0,000 mm 0,0 UV-I 0 W/m 4,7 C 5,3 C 3,2 km/h (1 Bft) 93,62 %
06.05.2017 05:26 5,2 C 14,4 C 96 % 1014,5 hPa 0,0 l/m 1,3 km/h (1 Bft) S-SW 213 0 min 0,000 mm 0,0 UV-I 1 W/m 4,6 C 5,2 C 3,2 km/h (1 Bft) 97,87 %
06.05.2017 05:28 5,4 C 14,4 C 97 % 1014,5 hPa 0,0 l/m 2,0 km/h (1 Bft) S-SW 213 0 min 0,000 mm 0,0 UV-I 5 W/m 5,0 C 5,4 C 3,2 km/h (1 Bft) 97,87 %
06.05.2017 05:30 5,5 C 14,4 C 97 % 1014,6 hPa 0,0 l/m 0,5 km/h (0 Bft) S-SW 213 0 min 0,000 mm 0,0 UV-I 5 W/m 5,1 C 5,5 C 3,2 km/h (1 Bft) 93,62 %
06.05.2017 05:32 5,5 C 14,4 C 97 % 1014,6 hPa 0,0 l/m 0,0 km/h (0 Bft) S-SW 213 0 min 0,000 mm 0,0 UV-I 5 W/m 5,1 C 5,5 C 0,0 km/h (0 Bft) 95,74 %
06.05.2017 05:34 5,3 C 14,4 C 97 % 1014,6 hPa 0,0 l/m 1,0 km/h (0 Bft) S-SW 213 0 min 0,000 mm 0,0 UV-I 5 W/m 4,9 C 5,3 C 1,6 km/h (1 Bft) 98,00 %
06.05.2017 05:36 5,2 C 14,4 C 96 % 1014,5 hPa 0,0 l/m 0,1 km/h (0 Bft) S-SW 213 0 min 0,000 mm 0,0 UV-I 5 W/m 4,6 C 5,2 C 1,6 km/h (1 Bft) 95,74 %
06.05.2017 05:38 5,1 C 14,4 C 96 % 1014,5 hPa 0,0 l/m 0,4 km/h (0 Bft) S-SW 213 0 min 0,000 mm 0,0 UV-I 7 W/m 4,5 C 5,1 C 1,6 km/h (1 Bft) 95,74 %
06.05.2017 05:40 5,0 C 14,4 C 96 % 1014,4 hPa 0,0 l/m 2,6 km/h (1 Bft) S-SW 209 0 min 0,000 mm 0,0 UV-I 7 W/m 4,4 C 5,0 C 4,8 km/h (1 Bft) 97,92 %
06.05.2017 05:42 5,2 C 14,4 C 97 % 1014,3 hPa 0,0 l/m 5,0 km/h (1 Bft) O-NO 77 0 min 0,000 mm 0,0 UV-I 7 W/m 4,8 C 5,2 C 6,4 km/h (2 Bft) 97,87 %
06.05.2017 05:44 5,6 C 14,4 C 97 % 1014,3 hPa 0,0 l/m 3,8 km/h (1 Bft) O-NO 77 0 min 0,000 mm 0,0 UV-I 9 W/m 5,2 C 5,6 C 6,4 km/h (2 Bft) 93,62 %
06.05.2017 05:46 5,8 C 14,4 C 97 % 1014,3 hPa 0,0 l/m 1,9 km/h (1 Bft) O-NO 77 0 min 0,000 mm 0,0 UV-I 9 W/m 5,4 C 5,8 C 3,2 km/h (1 Bft) 91,49 %
06.05.2017 05:48 5,7 C 14,4 C 97 % 1014,4 hPa 0,0 l/m 1,3 km/h (1 Bft) O-NO 77 0 min 0,000 mm 0,0 UV-I 10 W/m 5,3 C 5,7 C 3,2 km/h (1 Bft) 93,62 %
06.05.2017 05:50 5,7 C 14,4 C 97 % 1014,4 hPa 0,0 l/m 0,5 km/h (0 Bft) O-NO 77 2 min 0,000 mm 0,0 UV-I 11 W/m 5,3 C 5,7 C 1,6 km/h (1 Bft) 94,74 %
06.05.2017 05:52 5,6 C 14,4 C 97 % 1014,5 hPa 0,0 l/m 1,2 km/h (1 Bft) O-NO 77 0 min 0,000 mm 0,0 UV-I 12 W/m 5,2 C 5,6 C 3,2 km/h (1 Bft) 95,74 %
06.05.2017 05:54 5,2 C 13,9 C 96 % 1014,5 hPa 0,0 l/m 1,2 km/h (1 Bft) O-NO 77 0 min 0,000 mm 0,0 UV-I 12 W/m 4,6 C 5,2 C 3,2 km/h (1 Bft) 92,00 %
06.05.2017 05:56 4,9 C 13,9 C 96 % 1014,5 hPa 0,0 l/m 0,0 km/h (0 Bft) O-NO 77 0 min 0,000 mm 0,0 UV-I 13 W/m 4,3 C 4,9 C 0,0 km/h (0 Bft) 97,87 %
06.05.2017 05:58 4,7 C 13,9 C 96 % 1014,5 hPa 0,0 l/m 0,0 km/h (0 Bft) O-NO 77 0 min 0,000 mm 0,0 UV-I 12 W/m 4,1 C 4,7 C 0,0 km/h (0 Bft) 95,74 %
06.05.2017 06:00 4,7 C 13,9 C 96 % 1014,5 hPa 0,0 l/m 0,0 km/h (0 Bft) O-NO 77 0 min 0,000 mm 0,0 UV-I 12 W/m 4,1 C 4,7 C 0,0 km/h (0 Bft) 92,00 %
06.05.2017 06:02 4,7 C 13,9 C 97 % 1014,5 hPa 0,0 l/m 0,0 km/h (0 Bft) O-NO 77 0 min 0,000 mm 0,0 UV-I 16 W/m 4,3 C 4,7 C 0,0 km/h (0 Bft) 98,00 %
06.05.2017 06:04 4,7 C 13,9 C 96 % 1014,5 hPa 0,0 l/m 0,0 km/h (0 Bft) O-NO 77 0 min 0,000 mm 0,0 UV-I 19 W/m 4,1 C 4,7 C 0,0 km/h (0 Bft) 93,62 %
06.05.2017 06:06 4,8 C 13,9 C 97 % 1014,5 hPa 0,0 l/m 0,0 km/h (0 Bft) O-NO 77 0 min 0,000 mm 0,0 UV-I 19 W/m 4,4 C 4,8 C 0,0 km/h (0 Bft) 89,36 %
06.05.2017 06:08 4,9 C 13,9 C 97 % 1014,5 hPa 0,0 l/m 0,0 km/h (0 Bft) O-NO 77 0 min 0,000 mm 0,0 UV-I 22 W/m 4,5 C 4,9 C 0,0 km/h (0 Bft) 93,62 %
06.05.2017 06:10 4,9 C 13,9 C 97 % 1014,5 hPa 0,2 l/m 0,0 km/h (0 Bft) O-NO 77 0 min 0,000 mm 0,0 UV-I 22 W/m 4,5 C 4,9 C 0,0 km/h (0 Bft) 91,49 %
06.05.2017 06:12 5,0 C 13,9 C 97 % 1014,5 hPa 0,0 l/m 0,0 km/h (0 Bft) O-NO 77 0 min 0,000 mm 0,0 UV-I 22 W/m 4,6 C 5,0 C 0,0 km/h (0 Bft) 91,49 %
06.05.2017 06:14 5,1 C 13,9 C 97 % 1014,5 hPa 0,0 l/m 1,8 km/h (1 Bft) O-NO 77 0 min 0,000 mm 0,0 UV-I 23 W/m 4,7 C 5,1 C 6,4 km/h (2 Bft) 97,87 %
06.05.2017 06:16 5,5 C 13,9 C 97 % 1014,5 hPa 0,0 l/m 4,1 km/h (1 Bft) O-NO 77 0 min 0,000 mm 0,0 UV-I 25 W/m 5,1 C 5,5 C 6,4 km/h (2 Bft) 95,74 %
06.05.2017 06:18 6,0 C 13,9 C 97 % 1014,5 hPa 0,0 l/m 4,8 km/h (1 Bft) O-NO 76 0 min 0,000 mm 0,0 UV-I 25 W/m 5,6 C 6,0 C 11,3 km/h (2 Bft) 94,44 %
06.05.2017 06:20 6,3 C 13,9 C 98 % 1014,5 hPa 0,0 l/m 4,9 km/h (1 Bft) O-NO 78 0 min 0,000 mm 0,0 UV-I 26 W/m 6,0 C 6,3 C 6,4 km/h (2 Bft) 95,74 %
06.05.2017 06:22 6,6 C 13,9 C 98 % 1014,5 hPa 0,0 l/m 4,7 km/h (1 Bft) O-NO 74 0 min 0,000 mm 0,0 UV-I 26 W/m 6,3 C 6,6 C 6,4 km/h (2 Bft) 97,87 %
06.05.2017 06:24 6,8 C 13,9 C 98 % 1014,4 hPa 0,0 l/m 4,2 km/h (1 Bft) O-NO 73 0 min 0,000 mm 0,0 UV-I 28 W/m 6,5 C 6,8 C 6,4 km/h (2 Bft) 95,74 %
06.05.2017 06:26 6,8 C 13,9 C 98 % 1014,4 hPa 0,0 l/m 3,3 km/h (1 Bft) O-NO 73 0 min 0,000 mm 0,0 UV-I 35 W/m 6,5 C 6,8 C 4,8 km/h (1 Bft) 97,87 %
06.05.2017 06:28 6,8 C 13,9 C 97 % 1014,4 hPa 0,0 l/m 5,1 km/h (1 Bft) NO 40 0 min 0,000 mm 0,0 UV-I 33 W/m 6,4 C 6,8 C 6,4 km/h (2 Bft) 95,74 %
06.05.2017 06:30 6,8 C 13,9 C 97 % 1014,4 hPa 0,0 l/m 2,1 km/h (1 Bft) NO 40 0 min 0,000 mm 0,0 UV-I 35 W/m 6,4 C 6,8 C 4,8 km/h (1 Bft) 95,74 %
06.05.2017 06:32 6,7 C 13,9 C 97 % 1014,4 hPa 0,0 l/m 4,3 km/h (1 Bft) O-NO 75 0 min 0,000 mm 0,0 UV-I 37 W/m 6,3 C 6,7 C 8,0 km/h (2 Bft) 97,87 %
06.05.2017 06:34 6,7 C 13,9 C 97 % 1014,4 hPa 0,0 l/m 4,9 km/h (1 Bft) O-NO 62 0 min 0,000 mm 0,0 UV-I 40 W/m 6,3 C 6,7 C 8,0 km/h (2 Bft) 95,74 %
06.05.2017 06:36 6,7 C 13,9 C 97 % 1014,5 hPa 0,0 l/m 4,7 km/h (1 Bft) O-NO 63 0 min 0,000 mm 0,0 UV-I 47 W/m 6,3 C 6,7 C 6,4 km/h (2 Bft) 96,23 %
06.05.2017 06:38 6,7 C 13,9 C 97 % 1014,5 hPa 0,0 l/m 6,2 km/h (2 Bft) O-NO 58 0 min 0,000 mm 0,0 UV-I 47 W/m 6,3 C 6,7 C 8,0 km/h (2 Bft) 95,74 %
06.05.2017 06:40 6,7 C 13,9 C 97 % 1014,5 hPa 0,0 l/m 6,0 km/h (2 Bft) O-NO 69 0 min 0,000 mm 0,0 UV-I 50 W/m 6,3 C 6,7 C 9,7 km/h (2 Bft) 97,87 %
06.05.2017 06:42 6,8 C 13,9 C 97 % 1014,5 hPa 0,0 l/m 5,9 km/h (2 Bft) NO 55 0 min 0,000 mm 0,0 UV-I 59 W/m 6,4 C 6,8 C 8,0 km/h (2 Bft) 97,87 %
06.05.2017 06:44 6,8 C 13,9 C 97 % 1014,5 hPa 0,0 l/m 5,6 km/h (1 Bft) O-NO 64 0 min 0,000 mm 0,0 UV-I 60 W/m 6,4 C 6,8 C 8,0 km/h (2 Bft) 95,74 %
06.05.2017 06:46 6,8 C 13,9 C 97 % 1014,5 hPa 0,0 l/m 7,6 km/h (2 Bft) O 92 0 min 0,000 mm 0,0 UV-I 59 W/m 6,4 C 5,8 C 12,9 km/h (3 Bft) 100,00 %
06.05.2017 06:48 6,8 C 13,9 C 97 % 1014,5 hPa 0,0 l/m 6,7 km/h (2 Bft) O-NO 65 0 min 0,000 mm 0,0 UV-I 57 W/m 6,4 C 6,6 C 9,7 km/h (2 Bft) 100,00 %
06.05.2017 06:50 6,8 C 13,9 C 97 % 1014,5 hPa 0,0 l/m 8,2 km/h (2 Bft) O-NO 65 0 min 0,000 mm 0,0 UV-I 48 W/m 6,4 C 5,3 C 12,9 km/h (3 Bft) 97,87 %
06.05.2017 06:52 6,8 C 13,9 C 97 % 1014,5 hPa 0,0 l/m 7,1 km/h (2 Bft) O 82 0 min 0,000 mm 0,0 UV-I 55 W/m 6,4 C 6,2 C 12,9 km/h (3 Bft) 97,87 %
06.05.2017 06:54 6,8 C 13,9 C 97 % 1014,5 hPa 0,0 l/m 6,6 km/h (2 Bft) O-NO 70 0 min 0,000 mm 0,0 UV-I 74 W/m 6,4 C 6,7 C 12,9 km/h (3 Bft) 97,22 %
06.05.2017 06:56 6,8 C 13,9 C 97 % 1014,5 hPa 0,0 l/m 7,8 km/h (2 Bft) O-NO 66 0 min 0,000 mm 0,0 UV-I 76 W/m 6,4 C 5,6 C 12,9 km/h (3 Bft) 100,00 %
06.05.2017 06:58 6,8 C 13,9 C 97 % 1014,4 hPa 0,0 l/m 7,3 km/h (2 Bft) O 80 0 min 0,000 mm 0,0 UV-I 59 W/m 6,4 C 6,1 C 12,9 km/h (3 Bft) 97,87 %
06.05.2017 07:00 6,8 C 13,9 C 97 % 1014,5 hPa 0,0 l/m 8,3 km/h (2 Bft) O 94 0 min 0,025 mm 0,0 UV-I 86 W/m 6,4 C 5,3 C 12,9 km/h (3 Bft) 94,00 %
06.05.2017 07:02 6,8 C 13,9 C 97 % 1014,5 hPa 0,0 l/m 4,9 km/h (1 Bft) SO 135 0 min 0,000 mm 0,0 UV-I 82 W/m 6,4 C 6,8 C 8,0 km/h (2 Bft) 97,92 %
06.05.2017 07:04 6,9 C 13,9 C 97 % 1014,5 hPa 0,0 l/m 1,6 km/h (1 Bft) SO 136 0 min 0,000 mm 0,0 UV-I 88 W/m 6,5 C 6,9 C 3,2 km/h (1 Bft) 97,14 %
06.05.2017 07:06 6,9 C 13,9 C 97 % 1014,5 hPa 0,0 l/m 1,5 km/h (1 Bft) SO 138 0 min 0,000 mm 0,0 UV-I 91 W/m 6,5 C 6,9 C 3,2 km/h (1 Bft) 96,08 %
06.05.2017 07:08 7,1 C 13,9 C 97 % 1014,5 hPa 0,0 l/m 3,9 km/h (1 Bft) NO 49 0 min 0,000 mm 0,0 UV-I 101 W/m 6,7 C 7,1 C 6,4 km/h (2 Bft) 97,87 %
06.05.2017 07:10 7,2 C 13,9 C 97 % 1014,4 hPa 0,0 l/m 5,5 km/h (1 Bft) O-NO 58 0 min 0,000 mm 0,0 UV-I 100 W/m 6,8 C 7,2 C 9,7 km/h (2 Bft) 97,87 %
06.05.2017 07:12 7,2 C 13,9 C 98 % 1014,4 hPa 0,0 l/m 6,2 km/h (2 Bft) O-NO 58 0 min 0,000 mm 0,0 UV-I 99 W/m 6,9 C 7,2 C 11,3 km/h (2 Bft) 97,87 %
06.05.2017 07:14 7,2 C 13,9 C 98 % 1014,4 hPa 0,0 l/m 7,9 km/h (2 Bft) O-NO 74 0 min 0,000 mm 0,0 UV-I 101 W/m 6,9 C 6,0 C 12,9 km/h (3 Bft) 97,87 %
06.05.2017 07:16 7,2 C 13,9 C 98 % 1014,4 hPa 0,0 l/m 6,8 km/h (2 Bft) O-NO 69 0 min 0,000 mm 0,0 UV-I 98 W/m 6,9 C 6,9 C 12,9 km/h (3 Bft) 95,74 %
06.05.2017 07:18 7,3 C 13,9 C 98 % 1014,4 hPa 0,0 l/m 7,5 km/h (2 Bft) O-NO 64 0 min 0,000 mm 0,0 UV-I 101 W/m 7,0 C 6,4 C 12,9 km/h (3 Bft) 100,00 %
06.05.2017 07:20 7,3 C 13,9 C 98 % 1014,4 hPa 0,0 l/m 8,3 km/h (2 Bft) N-NO 24 0 min 0,000 mm 0,0 UV-I 107 W/m 7,0 C 5,8 C 11,3 km/h (2 Bft) 93,62 %
06.05.2017 07:22 7,4 C 13,9 C 97 % 1014,4 hPa 0,0 l/m 10,5 km/h (2 Bft) NO 52 0 min 0,000 mm 0,0 UV-I 94 W/m 7,0 C 4,4 C 14,5 km/h (3 Bft) 87,23 %
06.05.2017 07:24 7,5 C 13,9 C 97 % 1014,4 hPa 0,0 l/m 11,3 km/h (2 Bft) O-NO 71 0 min 0,000 mm 0,0 UV-I 75 W/m 7,1 C 4,0 C 19,3 km/h (3 Bft) 96,23 %
06.05.2017 07:26 7,4 C 13,9 C 97 % 1014,3 hPa 0,0 l/m 14,6 km/h (3 Bft) O-NO 71 0 min 0,000 mm 0,0 UV-I 89 W/m 7,0 C 2,2 C 22,5 km/h (4 Bft) 93,62 %
06.05.2017 07:28 7,4 C 13,9 C 97 % 1014,4 hPa 0,0 l/m 11,3 km/h (2 Bft) NO 51 0 min 0,000 mm 0,0 UV-I 64 W/m 7,0 C 3,9 C 16,1 km/h (3 Bft) 92,11 %
06.05.2017 07:30 7,4 C 13,9 C 97 % 1014,4 hPa 0,0 l/m 13,9 km/h (3 Bft) O-NO 74 0 min 0,000 mm 0,0 UV-I 66 W/m 7,0 C 2,5 C 19,3 km/h (3 Bft) 95,83 %
06.05.2017 07:32 7,4 C 13,9 C 97 % 1014,4 hPa 0,0 l/m 13,2 km/h (3 Bft) O-NO 59 0 min 0,000 mm 0,0 UV-I 82 W/m 7,0 C 2,9 C 19,3 km/h (3 Bft) 91,49 %
06.05.2017 07:34 7,4 C 13,9 C 97 % 1014,4 hPa 0,0 l/m 13,8 km/h (3 Bft) NO 49 0 min 0,000 mm 0,0 UV-I 83 W/m 7,0 C 2,6 C 19,3 km/h (3 Bft) 97,87 %
06.05.2017 07:36 7,4 C 13,9 C 97 % 1014,3 hPa 0,0 l/m 13,7 km/h (3 Bft) O-NO 65 0 min 0,000 mm 0,0 UV-I 70 W/m 7,0 C 2,6 C 17,7 km/h (3 Bft) 98,00 %
06.05.2017 07:38 7,4 C 13,9 C 97 % 1014,3 hPa 0,0 l/m 16,1 km/h (3 Bft) O-NO 57 0 min 0,000 mm 0,0 UV-I 100 W/m 7,0 C 1,5 C 20,9 km/h (4 Bft) 95,74 %
06.05.2017 07:40 7,4 C 13,9 C 97 % 1014,3 hPa 0,0 l/m 14,7 km/h (3 Bft) O-NO 60 0 min 0,000 mm 0,0 UV-I 122 W/m 7,0 C 2,1 C 20,9 km/h (4 Bft) 95,83 %
06.05.2017 07:42 7,4 C 13,9 C 97 % 1014,3 hPa 0,0 l/m 13,5 km/h (3 Bft) NO 56 0 min 0,000 mm 0,0 UV-I 83 W/m 7,0 C 2,7 C 17,7 km/h (3 Bft) 91,67 %
06.05.2017 07:44 7,4 C 13,9 C 97 % 1014,3 hPa 0,0 l/m 15,1 km/h (3 Bft) O-NO 63 0 min 0,000 mm 0,0 UV-I 154 W/m 7,0 C 1,9 C 19,3 km/h (3 Bft) 97,37 %
06.05.2017 07:46 7,4 C 13,9 C 97 % 1014,3 hPa 0,0 l/m 13,0 km/h (3 Bft) O-NO 68 0 min 0,000 mm 0,0 UV-I 170 W/m 7,0 C 3,0 C 20,9 km/h (4 Bft) 91,49 %
06.05.2017 07:48 7,4 C 13,9 C 97 % 1014,3 hPa 0,0 l/m 13,5 km/h (3 Bft) O-NO 69 0 min 0,000 mm 0,0 UV-I 148 W/m 7,0 C 2,7 C 19,3 km/h (3 Bft) 93,62 %
06.05.2017 07:50 7,6 C 13,9 C 97 % 1014,3 hPa 0,0 l/m 11,0 km/h (2 Bft) O 80 0 min 0,000 mm 0,0 UV-I 142 W/m 7,2 C 4,3 C 16,1 km/h (3 Bft) 92,00 %
06.05.2017 07:52 7,6 C 13,9 C 98 % 1014,3 hPa 0,0 l/m 10,8 km/h (2 Bft) O-NO 60 0 min 0,000 mm 0,0 UV-I 164 W/m 7,3 C 4,4 C 14,5 km/h (3 Bft) 98,00 %
06.05.2017 07:54 7,6 C 13,9 C 98 % 1014,3 hPa 0,0 l/m 9,5 km/h (2 Bft) O-NO 75 0 min 0,000 mm 0,0 UV-I 131 W/m 7,3 C 5,3 C 14,5 km/h (3 Bft) 91,49 %
06.05.2017 07:56 7,6 C 13,9 C 98 % 1014,3 hPa 0,0 l/m 8,7 km/h (2 Bft) NO 55 0 min 0,000 mm 0,0 UV-I 155 W/m 7,3 C 5,8 C 12,9 km/h (3 Bft) 97,87 %
06.05.2017 07:58 7,7 C 13,9 C 98 % 1014,3 hPa 0,0 l/m 8,7 km/h (2 Bft) O-NO 66 0 min 0,000 mm 0,0 UV-I 160 W/m 7,4 C 5,9 C 14,5 km/h (3 Bft) 95,92 %
06.05.2017 08:00 7,7 C 13,9 C 98 % 1014,3 hPa 0,0 l/m 7,0 km/h (2 Bft) O-NO 71 0 min 0,051 mm 0,0 UV-I 177 W/m 7,4 C 7,2 C 12,9 km/h (3 Bft) 95,12 %
06.05.2017 08:02 7,8 C 13,9 C 98 % 1014,3 hPa 0,0 l/m 9,6 km/h (2 Bft) NO 55 0 min 0,000 mm 0,0 UV-I 168 W/m 7,5 C 5,4 C 14,5 km/h (3 Bft) 100,00 %
06.05.2017 08:04 7,8 C 13,9 C 98 % 1014,3 hPa 0,0 l/m 7,4 km/h (2 Bft) NO 48 0 min 0,000 mm 0,0 UV-I 153 W/m 7,5 C 7,0 C 11,3 km/h (2 Bft) 97,87 %
06.05.2017 08:06 7,8 C 13,9 C 98 % 1014,2 hPa 0,0 l/m 9,1 km/h (2 Bft) O-NO 60 0 min 0,000 mm 0,0 UV-I 142 W/m 7,5 C 5,8 C 14,5 km/h (3 Bft) 100,00 %
06.05.2017 08:08 7,9 C 13,9 C 98 % 1014,3 hPa 0,0 l/m 7,9 km/h (2 Bft) N-NO 12 0 min 0,000 mm 0,0 UV-I 160 W/m 7,6 C 6,7 C 11,3 km/h (2 Bft) 97,96 %
06.05.2017 08:10 8,1 C 13,9 C 98 % 1014,2 hPa 0,0 l/m 6,9 km/h (2 Bft) O-NO 65 0 min 0,000 mm 0,4 UV-I 158 W/m 7,8 C 7,7 C 9,7 km/h (2 Bft) 97,37 %
06.05.2017 08:12 8,0 C 13,9 C 98 % 1014,2 hPa 0,0 l/m 7,0 km/h (2 Bft) NO 55 0 min 0,000 mm 0,5 UV-I 185 W/m 7,7 C 7,5 C 12,9 km/h (3 Bft) 93,62 %
06.05.2017 08:14 7,9 C 13,9 C 98 % 1014,2 hPa 0,0 l/m 9,8 km/h (2 Bft) O-NO 61 2 min 0,000 mm 0,6 UV-I 256 W/m 7,6 C 5,4 C 16,1 km/h (3 Bft) 100,00 %
06.05.2017 08:16 7,9 C 13,9 C 98 % 1014,2 hPa 0,0 l/m 11,4 km/h (2 Bft) O-NO 65 2 min 0,000 mm 0,7 UV-I 335 W/m 7,6 C 4,4 C 16,1 km/h (3 Bft) 97,87 %
06.05.2017 08:18 8,1 C 14,4 C 98 % 1014,2 hPa 0,0 l/m 9,6 km/h (2 Bft) NO 46 2 min 0,000 mm 0,8 UV-I 471 W/m 7,8 C 5,8 C 14,5 km/h (3 Bft) 100,00 %
06.05.2017 08:20 8,2 C 13,9 C 98 % 1014,2 hPa 0,0 l/m 11,3 km/h (2 Bft) NO 55 2 min 0,000 mm 0,8 UV-I 444 W/m 7,9 C 4,8 C 14,5 km/h (3 Bft) 100,00 %
06.05.2017 08:22 8,2 C 13,9 C 98 % 1014,2 hPa 0,0 l/m 11,7 km/h (2 Bft) O-NO 72 0 min 0,000 mm 0,7 UV-I 189 W/m 7,9 C 4,6 C 19,3 km/h (3 Bft) 95,74 %
06.05.2017 08:24 8,1 C 14,4 C 98 % 1014,2 hPa 0,0 l/m 9,6 km/h (2 Bft) NO 47 0 min 0,000 mm 0,8 UV-I 237 W/m 7,8 C 5,8 C 14,5 km/h (3 Bft) 95,74 %
06.05.2017 08:26 8,2 C 13,9 C 97 % 1014,1 hPa 0,0 l/m 11,1 km/h (2 Bft) NO 44 2 min 0,000 mm 0,8 UV-I 278 W/m 7,8 C 4,9 C 16,1 km/h (3 Bft) 97,87 %
06.05.2017 08:28 8,3 C 14,4 C 98 % 1014,1 hPa 0,0 l/m 10,2 km/h (2 Bft) NO 49 2 min 0,000 mm 0,9 UV-I 388 W/m 8,0 C 5,6 C 14,5 km/h (3 Bft) 95,74 %
06.05.2017 08:30 8,4 C 14,4 C 98 % 1014,1 hPa 0,0 l/m 8,4 km/h (2 Bft) O 81 2 min 0,000 mm 0,9 UV-I 388 W/m 8,1 C 6,9 C 14,5 km/h (3 Bft) 95,74 %
06.05.2017 08:32 8,6 C 14,4 C 98 % 1014,1 hPa 0,0 l/m 11,7 km/h (2 Bft) NO 52 2 min 0,000 mm 0,9 UV-I 282 W/m 8,3 C 5,1 C 16,1 km/h (3 Bft) 100,00 %
06.05.2017 08:34 8,8 C 14,4 C 98 % 1014,1 hPa 0,0 l/m 6,7 km/h (2 Bft) O-NO 59 2 min 0,000 mm 1,0 UV-I 267 W/m 8,5 C 8,6 C 12,9 km/h (3 Bft) 100,00 %
06.05.2017 08:36 9,0 C 14,4 C 98 % 1014,0 hPa 0,0 l/m 12,0 km/h (2 Bft) O-NO 65 2 min 0,000 mm 1,0 UV-I 424 W/m 8,7 C 5,4 C 17,7 km/h (3 Bft) 97,87 %
06.05.2017 08:38 9,0 C 14,4 C 98 % 1014,0 hPa 0,0 l/m 14,5 km/h (3 Bft) O-NO 78 2 min 0,000 mm 1,1 UV-I 466 W/m 8,7 C 4,1 C 20,9 km/h (4 Bft) 100,00 %
06.05.2017 08:40 8,9 C 14,4 C 97 % 1014,0 hPa 0,0 l/m 16,6 km/h (3 Bft) NO 51 2 min 0,000 mm 1,1 UV-I 498 W/m 8,4 C 3,1 C 20,9 km/h (4 Bft) 95,74 %
06.05.2017 08:42 9,0 C 13,9 C 97 % 1013,9 hPa 0,0 l/m 12,1 km/h (2 Bft) O-NO 61 2 min 0,000 mm 1,0 UV-I 377 W/m 8,5 C 5,3 C 16,1 km/h (3 Bft) 94,00 %
06.05.2017 08:44 9,1 C 13,9 C 97 % 1013,9 hPa 0,0 l/m 12,7 km/h (3 Bft) O-NO 61 0 min 0,000 mm 1,0 UV-I 251 W/m 8,6 C 5,1 C 20,9 km/h (4 Bft) 97,37 %
06.05.2017 08:46 9,2 C 14,4 C 97 % 1013,9 hPa 0,0 l/m 11,0 km/h (2 Bft) NO 50 2 min 0,000 mm 1,0 UV-I 306 W/m 8,7 C 6,1 C 19,3 km/h (3 Bft) 97,87 %
06.05.2017 08:48 9,2 C 13,9 C 97 % 1013,9 hPa 0,0 l/m 13,1 km/h (3 Bft) NO 45 2 min 0,000 mm 1,2 UV-I 480 W/m 8,7 C 5,0 C 19,3 km/h (3 Bft) 95,74 %
06.05.2017 08:50 9,3 C 14,4 C 97 % 1013,7 hPa 0,0 l/m 15,8 km/h (3 Bft) O-NO 65 2 min 0,000 mm 1,2 UV-I 530 W/m 8,8 C 3,9 C 20,9 km/h (4 Bft) 97,87 %
06.05.2017 08:52 9,4 C 14,4 C 96 % 1013,7 hPa 0,0 l/m 13,7 km/h (3 Bft) O-NO 57 2 min 0,000 mm 1,3 UV-I 521 W/m 8,8 C 5,0 C 20,9 km/h (4 Bft) 95,74 %
06.05.2017 08:54 9,7 C 14,4 C 96 % 1013,7 hPa 0,0 l/m 12,1 km/h (2 Bft) O-NO 61 2 min 0,000 mm 1,3 UV-I 504 W/m 9,1 C 6,1 C 19,3 km/h (3 Bft) 100,00 %
06.05.2017 08:56 9,9 C 14,4 C 96 % 1013,7 hPa 0,0 l/m 10,7 km/h (2 Bft) N-NO 32 2 min 0,000 mm 1,3 UV-I 510 W/m 9,3 C 7,1 C 17,7 km/h (3 Bft) 93,62 %
06.05.2017 08:58 10,1 C 14,4 C 95 % 1013,7 hPa 0,0 l/m 15,1 km/h (3 Bft) O-NO 69 2 min 0,000 mm 1,4 UV-I 520 W/m 9,3 C 5,2 C 22,5 km/h (4 Bft) 100,00 %
06.05.2017 09:00 10,2 C 14,4 C 94 % 1013,7 hPa 0,0 l/m 11,1 km/h (2 Bft) O-NO 57 2 min 0,153 mm 1,4 UV-I 521 W/m 9,3 C 7,2 C 19,3 km/h (3 Bft) 95,74 %
06.05.2017 09:02 10,2 C 14,4 C 93 % 1013,7 hPa 0,0 l/m 15,8 km/h (3 Bft) NO 53 2 min 0,000 mm 1,4 UV-I 461 W/m 9,1 C 5,1 C 19,3 km/h (3 Bft) 97,87 %
06.05.2017 09:04 10,3 C 14,4 C 92 % 1013,7 hPa 0,0 l/m 15,3 km/h (3 Bft) O-NO 69 2 min 0,000 mm 1,5 UV-I 518 W/m 9,1 C 5,4 C 22,5 km/h (4 Bft) 98,00 %
06.05.2017 09:06 10,4 C 14,4 C 93 % 1013,7 hPa 0,0 l/m 14,7 km/h (3 Bft) NO 36 2 min 0,000 mm 1,5 UV-I 539 W/m 9,3 C 5,7 C 20,9 km/h (4 Bft) 100,00 %
06.05.2017 09:08 10,7 C 14,4 C 93 % 1013,7 hPa 0,0 l/m 12,3 km/h (3 Bft) O-NO 68 2 min 0,000 mm 1,5 UV-I 543 W/m 9,6 C 7,2 C 20,9 km/h (4 Bft) 94,74 %
06.05.2017 09:10 10,8 C 14,4 C 91 % 1013,7 hPa 0,0 l/m 12,4 km/h (3 Bft) O-NO 59 2 min 0,000 mm 1,6 UV-I 555 W/m 9,4 C 7,2 C 19,3 km/h (3 Bft) 98,11 %
06.05.2017 09:12 10,8 C 14,4 C 89 % 1013,7 hPa 0,0 l/m 15,3 km/h (3 Bft) O-NO 69 2 min 0,000 mm 1,6 UV-I 561 W/m 9,1 C 6,0 C 22,5 km/h (4 Bft) 100,00 %
06.05.2017 09:14 10,8 C 14,4 C 89 % 1013,6 hPa 0,0 l/m 16,0 km/h (3 Bft) O-NO 74 2 min 0,000 mm 1,6 UV-I 572 W/m 9,1 C 5,7 C 22,5 km/h (4 Bft) 93,62 %
06.05.2017 09:16 10,9 C 14,4 C 88 % 1013,6 hPa 0,0 l/m 15,9 km/h (3 Bft) O-NO 59 2 min 0,000 mm 1,7 UV-I 574 W/m 9,0 C 5,9 C 22,5 km/h (4 Bft) 93,62 %
06.05.2017 09:18 11,0 C 14,4 C 88 % 1013,6 hPa 0,0 l/m 15,3 km/h (3 Bft) O-NO 73 2 min 0,000 mm 1,6 UV-I 525 W/m 9,1 C 6,2 C 22,5 km/h (4 Bft) 87,23 %
06.05.2017 09:20 11,1 C 14,4 C 88 % 1013,6 hPa 0,0 l/m 12,8 km/h (3 Bft) NO 51 2 min 0,000 mm 1,7 UV-I 542 W/m 9,2 C 7,4 C 19,3 km/h (3 Bft) 95,74 %
06.05.2017 09:22 11,2 C 14,4 C 88 % 1013,5 hPa 0,0 l/m 17,9 km/h (3 Bft) NO 55 2 min 0,000 mm 1,7 UV-I 562 W/m 9,3 C 5,5 C 22,5 km/h (4 Bft) 95,74 %
06.05.2017 09:24 11,3 C 14,4 C 87 % 1013,5 hPa 0,0 l/m 16,5 km/h (3 Bft) O 82 2 min 0,000 mm 1,8 UV-I 543 W/m 9,2 C 6,1 C 24,1 km/h (4 Bft) 93,62 %
06.05.2017 09:26 11,3 C 14,4 C 86 % 1013,4 hPa 0,0 l/m 16,6 km/h (3 Bft) O-NO 59 2 min 0,000 mm 1,8 UV-I 583 W/m 9,0 C 6,1 C 20,9 km/h (4 Bft) 88,00 %
06.05.2017 09:28 11,4 C 14,4 C 87 % 1013,4 hPa 0,0 l/m 11,3 km/h (2 Bft) NO 47 2 min 0,000 mm 1,8 UV-I 592 W/m 9,3 C 8,5 C 16,1 km/h (3 Bft) 91,49 %
06.05.2017 09:30 11,7 C 14,4 C 88 % 1013,4 hPa 0,0 l/m 16,3 km/h (3 Bft) O-NO 57 2 min 0,000 mm 1,9 UV-I 604 W/m 9,8 C 6,7 C 27,4 km/h (4 Bft) 85,11 %
06.05.2017 09:32 11,8 C 14,4 C 86 % 1013,4 hPa 0,0 l/m 13,8 km/h (3 Bft) O-NO 60 2 min 0,000 mm 1,9 UV-I 608 W/m 9,5 C 7,8 C 19,3 km/h (3 Bft) 93,62 %
06.05.2017 09:34 12,0 C 14,4 C 86 % 1013,4 hPa 0,0 l/m 15,8 km/h (3 Bft) O 88 2 min 0,000 mm 2,0 UV-I 614 W/m 9,7 C 7,3 C 25,7 km/h (4 Bft) 93,62 %
06.05.2017 09:36 12,0 C 14,4 C 83 % 1013,3 hPa 0,0 l/m 20,4 km/h (4 Bft) NO 54 2 min 0,000 mm 2,0 UV-I 619 W/m 9,2 C 5,8 C 29,0 km/h (5 Bft) 91,67 %
06.05.2017 09:39 12,0 C 14,4 C 83 % 1013,3 hPa 0,0 l/m 20,9 km/h (4 Bft) O-NO 76 3 min 0,000 mm 2,0 UV-I 628 W/m 9,2 C 5,6 C 27,4 km/h (4 Bft) 94,52 %
06.05.2017 09:40 11,9 C 14,4 C 83 % 1013,3 hPa 0,0 l/m 13,9 km/h (3 Bft) O-NO 71 1 min 0,000 mm 2,1 UV-I 632 W/m 9,1 C 7,9 C 17,7 km/h (3 Bft) 100,00 %
06.05.2017 09:42 12,0 C 14,4 C 84 % 1013,3 hPa 0,0 l/m 17,6 km/h (3 Bft) O 87 2 min 0,000 mm 2,1 UV-I 632 W/m 9,4 C 6,6 C 20,9 km/h (4 Bft) 94,74 %
06.05.2017 09:44 12,1 C 14,4 C 84 % 1013,3 hPa 0,0 l/m 15,8 km/h (3 Bft) O-NO 63 2 min 0,000 mm 2,1 UV-I 636 W/m 9,5 C 7,4 C 24,1 km/h (4 Bft) 95,74 %
06.05.2017 09:46 12,2 C 14,4 C 84 % 1013,2 hPa 0,0 l/m 16,1 km/h (3 Bft) O 83 2 min 0,000 mm 2,2 UV-I 639 W/m 9,6 C 7,4 C 20,9 km/h (4 Bft) 94,00 %
06.05.2017 09:48 12,3 C 14,4 C 84 % 1013,2 hPa 0,0 l/m 15,4 km/h (3 Bft) NO 55 2 min 0,000 mm 2,2 UV-I 639 W/m 9,7 C 7,8 C 22,5 km/h (4 Bft) 95,74 %
06.05.2017 09:50 12,4 C 14,4 C 83 % 1013,2 hPa 0,0 l/m 16,6 km/h (3 Bft) O-NO 63 2 min 0,000 mm 2,2 UV-I 656 W/m 9,6 C 7,5 C 27,4 km/h (4 Bft) 93,62 %
06.05.2017 09:52 12,5 C 14,4 C 84 % 1013,2 hPa 0,0 l/m 17,0 km/h (3 Bft) O-NO 63 2 min 0,000 mm 2,3 UV-I 656 W/m 9,9 C 7,5 C 25,7 km/h (4 Bft) 97,87 %
06.05.2017 09:54 12,6 C 14,4 C 82 % 1013,2 hPa 0,0 l/m 19,1 km/h (3 Bft) NO 48 2 min 0,000 mm 2,3 UV-I 655 W/m 9,6 C 6,9 C 27,4 km/h (4 Bft) 92,00 %
06.05.2017 09:56 12,6 C 14,4 C 82 % 1013,1 hPa 0,0 l/m 18,5 km/h (3 Bft) O-NO 67 2 min 0,000 mm 2,3 UV-I 664 W/m 9,6 C 7,1 C 24,1 km/h (4 Bft) 94,74 %
06.05.2017 09:58 12,7 C 14,4 C 83 % 1013,1 hPa 0,0 l/m 17,0 km/h (3 Bft) O-NO 62 2 min 0,000 mm 2,4 UV-I 663 W/m 9,9 C 7,7 C 22,5 km/h (4 Bft) 96,23 %
06.05.2017 10:00 12,8 C 14,4 C 82 % 1013,1 hPa 0,0 l/m 19,6 km/h (3 Bft) NO 54 2 min 0,000 mm 2,4 UV-I 673 W/m 9,8 C 7,0 C 30,6 km/h (5 Bft) 95,74 %
06.05.2017 10:02 12,8 C 14,4 C 82 % 1013,1 hPa 0,0 l/m 17,5 km/h (3 Bft) O-NO 74 2 min 0,304 mm 2,5 UV-I 681 W/m 9,8 C 7,7 C 25,7 km/h (4 Bft) 91,49 %
06.05.2017 10:04 12,9 C 14,4 C 82 % 1013,1 hPa 0,0 l/m 16,2 km/h (3 Bft) O-NO 59 2 min 0,000 mm 2,5 UV-I 686 W/m 9,9 C 8,2 C 22,5 km/h (4 Bft) 92,00 %
06.05.2017 10:06 13,1 C 14,4 C 82 % 1013,1 hPa 0,0 l/m 14,6 km/h (3 Bft) O-NO 59 2 min 0,000 mm 2,5 UV-I 686 W/m 10,1 C 9,0 C 20,9 km/h (4 Bft) 97,87 %
06.05.2017 10:08 13,1 C 14,4 C 81 % 1012,9 hPa 0,0 l/m 16,4 km/h (3 Bft) NO 35 2 min 0,000 mm 2,6 UV-I 689 W/m 9,9 C 8,4 C 22,5 km/h (4 Bft) 92,11 %
06.05.2017 10:10 13,2 C 14,4 C 80 % 1012,9 hPa 0,0 l/m 18,8 km/h (3 Bft) O-NO 76 2 min 0,000 mm 2,6 UV-I 700 W/m 9,8 C 7,8 C 27,4 km/h (4 Bft) 94,00 %
06.05.2017 10:12 13,3 C 14,4 C 81 % 1012,9 hPa 0,0 l/m 17,9 km/h (3 Bft) O-NO 60 2 min 0,000 mm 2,6 UV-I 705 W/m 10,1 C 8,2 C 24,1 km/h (4 Bft) 91,84 %
06.05.2017 10:14 13,3 C 14,4 C 81 % 1012,9 hPa 0,0 l/m 13,3 km/h (3 Bft) N 5 2 min 0,000 mm 2,7 UV-I 703 W/m 10,1 C 9,8 C 22,5 km/h (4 Bft) 93,62 %
06.05.2017 10:16 13,6 C 14,4 C 81 % 1012,9 hPa 0,0 l/m 14,7 km/h (3 Bft) O 88 2 min 0,000 mm 2,7 UV-I 711 W/m 10,4 C 9,6 C 20,9 km/h (4 Bft) 100,00 %
06.05.2017 10:18 13,7 C 14,4 C 80 % 1012,8 hPa 0,0 l/m 16,5 km/h (3 Bft) O-NO 65 2 min 0,000 mm 2,8 UV-I 712 W/m 10,3 C 9,1 C 22,5 km/h (4 Bft) 97,87 %
06.05.2017 10:20 13,7 C 14,4 C 79 % 1012,7 hPa 0,0 l/m 17,3 km/h (3 Bft) O 101 2 min 0,000 mm 2,8 UV-I 718 W/m 10,1 C 8,9 C 22,5 km/h (4 Bft) 94,00 %
06.05.2017 10:22 13,8 C 14,4 C 79 % 1012,7 hPa 0,0 l/m 17,1 km/h (3 Bft) O-NO 71 2 min 0,000 mm 2,8 UV-I 722 W/m 10,2 C 9,0 C 24,1 km/h (4 Bft) 91,89 %
06.05.2017 10:24 13,9 C 14,4 C 79 % 1012,7 hPa 0,0 l/m 16,8 km/h (3 Bft) O-NO 65 2 min 0,000 mm 2,9 UV-I 725 W/m 10,3 C 9,3 C 20,9 km/h (4 Bft) 97,87 %
06.05.2017 10:26 14,0 C 14,4 C 80 % 1012,7 hPa 0,0 l/m 15,3 km/h (3 Bft) NO 47 2 min 0,000 mm 2,9 UV-I 730 W/m 10,6 C 9,9 C 20,9 km/h (4 Bft) 97,87 %
06.05.2017 10:28 14,2 C 14,4 C 80 % 1012,7 hPa 0,0 l/m 16,4 km/h (3 Bft) NO 53 2 min 0,000 mm 3,0 UV-I 736 W/m 10,8 C 9,8 C 25,7 km/h (4 Bft) 97,87 %
06.05.2017 10:30 14,2 C 14,4 C 78 % 1012,7 hPa 0,0 l/m 17,4 km/h (3 Bft) N-NO 32 2 min 0,000 mm 3,0 UV-I 741 W/m 10,4 C 9,4 C 29,0 km/h (5 Bft) 97,87 %
06.05.2017 10:32 14,3 C 14,4 C 79 % 1012,6 hPa 0,0 l/m 16,0 km/h (3 Bft) O-NO 68 2 min 0,000 mm 3,0 UV-I 745 W/m 10,7 C 10,0 C 20,9 km/h (4 Bft) 95,74 %
06.05.2017 10:34 14,4 C 14,4 C 78 % 1012,5 hPa 0,0 l/m 18,8 km/h (3 Bft) O-NO 71 2 min 0,000 mm 3,1 UV-I 751 W/m 10,6 C 9,3 C 30,6 km/h (5 Bft) 100,00 %
06.05.2017 10:36 14,5 C 14,4 C 78 % 1012,5 hPa 0,0 l/m 17,2 km/h (3 Bft) NO 40 2 min 0,000 mm 3,1 UV-I 744 W/m 10,7 C 9,9 C 22,5 km/h (4 Bft) 100,00 %
06.05.2017 10:38 14,6 C 14,4 C 78 % 1012,4 hPa 0,0 l/m 18,0 km/h (3 Bft) NO 54 2 min 0,000 mm 3,1 UV-I 750 W/m 10,8 C 9,8 C 25,7 km/h (4 Bft) 96,00 %
06.05.2017 10:40 14,6 C 14,4 C 76 % 1012,3 hPa 0,0 l/m 12,8 km/h (3 Bft) O-NO 61 2 min 0,000 mm 3,1 UV-I 752 W/m 10,4 C 11,5 C 17,7 km/h (3 Bft) 92,00 %
06.05.2017 10:42 14,9 C 14,4 C 80 % 1012,3 hPa 0,0 l/m 15,8 km/h (3 Bft) NO 34 2 min 0,000 mm 3,2 UV-I 756 W/m 11,5 C 10,8 C 27,4 km/h (4 Bft) 97,37 %
06.05.2017 10:44 15,1 C 14,4 C 76 % 1012,3 hPa 0,0 l/m 18,9 km/h (3 Bft) N-NO 28 2 min 0,000 mm 3,3 UV-I 763 W/m 10,9 C 10,2 C 27,4 km/h (4 Bft) 100,00 %
06.05.2017 10:46 15,2 C 14,4 C 76 % 1012,2 hPa 0,0 l/m 18,1 km/h (3 Bft) O-NO 67 2 min 0,000 mm 3,3 UV-I 766 W/m 11,0 C 10,5 C 24,1 km/h (4 Bft) 97,87 %
06.05.2017 10:48 15,2 C 14,4 C 73 % 1012,3 hPa 0,0 l/m 17,8 km/h (3 Bft) NO 44 2 min 0,000 mm 3,3 UV-I 773 W/m 10,4 C 10,6 C 25,7 km/h (4 Bft) 93,62 %
06.05.2017 10:50 15,1 C 14,4 C 72 % 1012,2 hPa 0,0 l/m 18,6 km/h (3 Bft) NO 40 2 min 0,000 mm 3,4 UV-I 778 W/m 10,1 C 10,2 C 24,1 km/h (4 Bft) 95,83 %
06.05.2017 10:52 15,2 C 14,4 C 75 % 1012,2 hPa 0,0 l/m 19,6 km/h (3 Bft) NO 49 2 min 0,000 mm 3,4 UV-I 782 W/m 10,8 C 10,1 C 30,6 km/h (5 Bft) 100,00 %
06.05.2017 10:54 15,3 C 14,4 C 73 % 1012,2 hPa 0,0 l/m 20,3 km/h (4 Bft) NO 47 2 min 0,000 mm 3,4 UV-I 787 W/m 10,5 C 10,1 C 29,0 km/h (5 Bft) 92,00 %
06.05.2017 10:56 15,2 C 14,4 C 71 % 1012,2 hPa 0,0 l/m 19,9 km/h (4 Bft) O-NO 72 2 min 0,000 mm 3,5 UV-I 789 W/m 10,0 C 10,0 C 25,7 km/h (4 Bft) 100,00 %
06.05.2017 10:58 15,2 C 14,4 C 70 % 1012,1 hPa 0,0 l/m 19,7 km/h (3 Bft) O-NO 76 2 min 0,000 mm 3,5 UV-I 791 W/m 9,8 C 10,1 C 27,4 km/h (4 Bft) 93,62 %
06.05.2017 11:00 15,2 C 14,4 C 70 % 1012,1 hPa 0,0 l/m 16,9 km/h (3 Bft) O-NO 68 2 min 0,432 mm 3,5 UV-I 797 W/m 9,8 C 10,8 C 25,7 km/h (4 Bft) 93,62 %
06.05.2017 11:02 15,3 C 14,4 C 73 % 1012,0 hPa 0,0 l/m 12,6 km/h (3 Bft) NO 52 2 min 0,000 mm 3,6 UV-I 803 W/m 10,5 C 12,4 C 17,7 km/h (3 Bft) 97,87 %
06.05.2017 11:04 15,6 C 14,4 C 75 % 1012,0 hPa 0,0 l/m 15,8 km/h (3 Bft) O-NO 57 2 min 0,000 mm 3,6 UV-I 804 W/m 11,2 C 11,7 C 24,1 km/h (4 Bft) 100,00 %
06.05.2017 11:06 15,8 C 14,4 C 73 % 1011,9 hPa 0,0 l/m 15,5 km/h (3 Bft) NO 41 2 min 0,000 mm 3,7 UV-I 810 W/m 11,0 C 12,0 C 22,5 km/h (4 Bft) 94,29 %
06.05.2017 11:08 15,9 C 14,4 C 73 % 1011,9 hPa 0,0 l/m 16,6 km/h (3 Bft) O-NO 69 2 min 0,000 mm 3,7 UV-I 811 W/m 11,1 C 11,8 C 24,1 km/h (4 Bft) 92,86 %
06.05.2017 11:10 15,9 C 14,4 C 70 % 1011,8 hPa 0,0 l/m 15,1 km/h (3 Bft) NO 52 2 min 0,000 mm 3,7 UV-I 816 W/m 10,4 C 12,3 C 22,5 km/h (4 Bft) 95,74 %
06.05.2017 11:12 15,9 C 14,4 C 72 % 1011,8 hPa 0,0 l/m 17,2 km/h (3 Bft) N-NO 30 2 min 0,000 mm 3,8 UV-I 820 W/m 10,9 C 11,6 C 22,5 km/h (4 Bft) 98,00 %
06.05.2017 11:14 16,0 C 14,4 C 72 % 1011,8 hPa 0,0 l/m 18,0 km/h (3 Bft) N-NO 30 2 min 0,000 mm 3,8 UV-I 822 W/m 11,0 C 11,5 C 29,0 km/h (5 Bft) 93,62 %
06.05.2017 11:16 15,9 C 14,4 C 70 % 1011,7 hPa 0,0 l/m 20,3 km/h (4 Bft) O-NO 58 2 min 0,000 mm 3,8 UV-I 819 W/m 10,4 C 10,8 C 27,4 km/h (4 Bft) 93,62 %
06.05.2017 11:18 16,0 C 14,4 C 72 % 1011,7 hPa 0,0 l/m 16,6 km/h (3 Bft) N-NO 33 2 min 0,000 mm 3,9 UV-I 825 W/m 11,0 C 11,9 C 22,5 km/h (4 Bft) 91,49 %
06.05.2017 11:20 16,1 C 14,4 C 71 % 1011,7 hPa 0,0 l/m 17,0 km/h (3 Bft) N-NO 30 2 min 0,000 mm 3,9 UV-I 826 W/m 10,8 C 11,9 C 25,7 km/h (4 Bft) 97,56 %
06.05.2017 11:22 16,1 C 14,4 C 72 % 1011,7 hPa 0,0 l/m 17,4 km/h (3 Bft) NO 49 2 min 0,000 mm 3,9 UV-I 825 W/m 11,0 C 11,8 C 24,1 km/h (4 Bft) 98,11 %
06.05.2017 11:24 16,1 C 14,4 C 70 % 1011,7 hPa 0,0 l/m 18,2 km/h (3 Bft) O-NO 69 2 min 0,000 mm 4,0 UV-I 831 W/m 10,6 C 11,6 C 25,7 km/h (4 Bft) 97,37 %
06.05.2017 11:26 16,1 C 14,4 C 69 % 1011,7 hPa 0,0 l/m 19,0 km/h (3 Bft) O-NO 61 2 min 0,000 mm 4,0 UV-I 839 W/m 10,4 C 11,4 C 27,4 km/h (4 Bft) 95,74 %
06.05.2017 11:28 16,1 C 14,4 C 68 % 1011,6 hPa 0,0 l/m 18,3 km/h (3 Bft) O-NO 74 2 min 0,000 mm 4,0 UV-I 835 W/m 10,2 C 11,6 C 24,1 km/h (4 Bft) 97,87 %
06.05.2017 11:30 16,2 C 14,4 C 71 % 1011,6 hPa 0,0 l/m 15,7 km/h (3 Bft) NO 46 2 min 0,000 mm 4,0 UV-I 838 W/m 10,9 C 12,4 C 22,5 km/h (4 Bft) 95,83 %
06.05.2017 11:32 16,2 C 14,4 C 69 % 1011,6 hPa 0,0 l/m 18,1 km/h (3 Bft) NO 52 2 min 0,000 mm 4,1 UV-I 844 W/m 10,5 C 11,8 C 24,1 km/h (4 Bft) 96,00 %
06.05.2017 11:34 16,3 C 14,4 C 70 % 1011,5 hPa 0,0 l/m 18,8 km/h (3 Bft) NO 39 2 min 0,000 mm 4,1 UV-I 842 W/m 10,8 C 11,7 C 25,7 km/h (4 Bft) 97,96 %
06.05.2017 11:36 16,4 C 14,4 C 69 % 1011,5 hPa 0,0 l/m 21,3 km/h (4 Bft) NO 36 2 min 0,000 mm 4,1 UV-I 846 W/m 10,7 C 11,3 C 27,4 km/h (4 Bft) 100,00 %
06.05.2017 11:38 16,4 C 14,4 C 70 % 1011,4 hPa 0,0 l/m 21,5 km/h (4 Bft) NO 54 2 min 0,000 mm 4,1 UV-I 846 W/m 10,9 C 11,2 C 30,6 km/h (5 Bft) 98,00 %
06.05.2017 11:40 16,6 C 14,4 C 69 % 1011,4 hPa 0,0 l/m 14,6 km/h (3 Bft) O-NO 60 2 min 0,000 mm 4,1 UV-I 842 W/m 10,9 C 13,3 C 22,5 km/h (4 Bft) 97,87 %
06.05.2017 11:42 16,6 C 14,4 C 67 % 1011,5 hPa 0,0 l/m 12,4 km/h (3 Bft) O-NO 66 2 min 0,000 mm 4,2 UV-I 851 W/m 10,4 C 14,0 C 19,3 km/h (3 Bft) 97,87 %
06.05.2017 11:44 16,6 C 14,4 C 67 % 1011,5 hPa 0,0 l/m 17,5 km/h (3 Bft) NO 51 2 min 0,000 mm 4,3 UV-I 856 W/m 10,4 C 12,4 C 25,7 km/h (4 Bft) 100,00 %
06.05.2017 11:46 16,6 C 14,4 C 66 % 1011,5 hPa 0,0 l/m 17,6 km/h (3 Bft) NO 54 2 min 0,000 mm 4,3 UV-I 857 W/m 10,2 C 12,4 C 24,1 km/h (4 Bft) 97,87 %
06.05.2017 11:48 16,5 C 14,4 C 67 % 1011,4 hPa 0,0 l/m 14,6 km/h (3 Bft) NO 41 2 min 0,000 mm 4,3 UV-I 859 W/m 10,4 C 13,1 C 24,1 km/h (4 Bft) 97,87 %
06.05.2017 11:50 16,6 C 14,4 C 67 % 1011,4 hPa 0,0 l/m 15,9 km/h (3 Bft) NO 45 2 min 0,000 mm 4,3 UV-I 863 W/m 10,4 C 12,9 C 20,9 km/h (4 Bft) 95,74 %
06.05.2017 11:52 16,8 C 14,4 C 71 % 1011,3 hPa 0,0 l/m 14,7 km/h (3 Bft) NO 37 2 min 0,000 mm 4,4 UV-I 863 W/m 11,5 C 13,5 C 20,9 km/h (4 Bft) 97,87 %
06.05.2017 11:54 17,0 C 14,4 C 69 % 1011,3 hPa 0,0 l/m 16,1 km/h (3 Bft) O-NO 61 2 min 0,000 mm 4,4 UV-I 866 W/m 11,3 C 13,3 C 22,5 km/h (4 Bft) 93,62 %
06.05.2017 11:56 16,9 C 14,4 C 67 % 1011,2 hPa 0,0 l/m 13,2 km/h (3 Bft) O 93 2 min 0,000 mm 4,4 UV-I 866 W/m 10,7 C 14,1 C 19,3 km/h (3 Bft) 97,87 %
06.05.2017 11:58 16,9 C 14,4 C 67 % 1011,3 hPa 0,0 l/m 12,2 km/h (2 Bft) O-NO 69 2 min 0,000 mm 4,4 UV-I 866 W/m 10,7 C 14,4 C 20,9 km/h (4 Bft) 95,74 %
06.05.2017 12:00 17,0 C 14,4 C 66 % 1011,2 hPa 0,0 l/m 9,0 km/h (2 Bft) NO 51 2 min 0,508 mm 4,5 UV-I 868 W/m 10,6 C 15,7 C 22,5 km/h (4 Bft) 97,87 %
06.05.2017 12:02 17,0 C 14,4 C 65 % 1011,1 hPa 0,0 l/m 17,4 km/h (3 Bft) O-NO 59 2 min 0,000 mm 4,5 UV-I 869 W/m 10,4 C 13,0 C 24,1 km/h (4 Bft) 95,74 %
06.05.2017 12:04 17,0 C 14,4 C 63 % 1011,1 hPa 0,0 l/m 17,2 km/h (3 Bft) NO 34 2 min 0,000 mm 4,5 UV-I 875 W/m 9,9 C 13,0 C 24,1 km/h (4 Bft) 97,87 %
06.05.2017 12:06 17,1 C 14,4 C 66 % 1011,1 hPa 0,0 l/m 15,7 km/h (3 Bft) NO 51 2 min 0,000 mm 4,6 UV-I 878 W/m 10,7 C 13,5 C 22,5 km/h (4 Bft) 100,00 %
06.05.2017 12:08 17,1 C 14,4 C 63 % 1011,1 hPa 0,0 l/m 18,1 km/h (3 Bft) O-NO 78 2 min 0,000 mm 4,6 UV-I 881 W/m 10,0 C 12,9 C 24,1 km/h (4 Bft) 97,87 %
06.05.2017 12:10 17,1 C 14,4 C 66 % 1011,1 hPa 0,0 l/m 14,8 km/h (3 Bft) O-NO 71 2 min 0,000 mm 4,6 UV-I 881 W/m 10,7 C 13,8 C 22,5 km/h (4 Bft) 93,62 %
06.05.2017 12:12 17,2 C 14,4 C 65 % 1011,0 hPa 0,0 l/m 13,9 km/h (3 Bft) O-NO 60 2 min 0,000 mm 4,6 UV-I 878 W/m 10,6 C 14,2 C 19,3 km/h (3 Bft) 97,87 %
06.05.2017 12:14 17,3 C 14,4 C 67 % 1011,0 hPa 0,0 l/m 14,3 km/h (3 Bft) O 82 2 min 0,000 mm 4,6 UV-I 881 W/m 11,1 C 14,2 C 20,9 km/h (4 Bft) 93,75 %
06.05.2017 12:16 17,4 C 14,4 C 68 % 1010,9 hPa 0,0 l/m 16,6 km/h (3 Bft) N-NO 22 2 min 0,000 mm 4,7 UV-I 883 W/m 11,4 C 13,7 C 24,1 km/h (4 Bft) 95,74 %
06.05.2017 12:18 17,7 C 14,4 C 69 % 1010,9 hPa 0,0 l/m 17,0 km/h (3 Bft) O-NO 62 2 min 0,000 mm 4,7 UV-I 885 W/m 11,9 C 13,9 C 24,1 km/h (4 Bft) 100,00 %
06.05.2017 12:20 17,6 C 14,4 C 63 % 1010,9 hPa 0,0 l/m 19,5 km/h (3 Bft) NO 40 2 min 0,000 mm 4,7 UV-I 885 W/m 10,5 C 13,2 C 24,1 km/h (4 Bft) 95,74 %
06.05.2017 12:22 17,6 C 14,4 C 68 % 1010,9 hPa 0,0 l/m 17,4 km/h (3 Bft) O-NO 65 2 min 0,000 mm 4,7 UV-I 882 W/m 11,6 C 13,7 C 24,1 km/h (4 Bft) 100,00 %
06.05.2017 12:24 17,6 C 14,4 C 68 % 1010,8 hPa 0,0 l/m 14,8 km/h (3 Bft) NO 53 2 min 0,000 mm 4,7 UV-I 883 W/m 11,6 C 14,4 C 20,9 km/h (4 Bft) 97,87 %
06.05.2017 12:26 17,6 C 14,4 C 67 % 1010,7 hPa 0,0 l/m 17,9 km/h (3 Bft) NO 46 2 min 0,000 mm 4,7 UV-I 885 W/m 11,4 C 13,6 C 24,1 km/h (4 Bft) 100,00 %
06.05.2017 12:28 17,7 C 14,4 C 67 % 1010,7 hPa 0,0 l/m 14,2 km/h (3 Bft) O 83 2 min 0,000 mm 4,7 UV-I 885 W/m 11,5 C 14,7 C 19,3 km/h (3 Bft) 94,00 %
06.05.2017 12:30 17,8 C 14,4 C 66 % 1010,7 hPa 0,0 l/m 13,6 km/h (3 Bft) NO 37 2 min 0,000 mm 4,7 UV-I 886 W/m 11,4 C 15,0 C 22,5 km/h (4 Bft) 100,00 %
06.05.2017 12:32 17,8 C 14,4 C 64 % 1010,6 hPa 0,0 l/m 15,0 km/h (3 Bft) O-NO 71 2 min 0,000 mm 4,7 UV-I 890 W/m 10,9 C 14,6 C 20,9 km/h (4 Bft) 93,62 %
06.05.2017 12:34 17,8 C 14,4 C 62 % 1010,6 hPa 0,0 l/m 16,3 km/h (3 Bft) O-NO 72 2 min 0,000 mm 4,7 UV-I 892 W/m 10,4 C 14,2 C 22,5 km/h (4 Bft) 100,00 %
06.05.2017 12:36 17,9 C 14,4 C 63 % 1010,5 hPa 0,0 l/m 15,3 km/h (3 Bft) O-NO 76 2 min 0,000 mm 4,8 UV-I 896 W/m 10,8 C 14,6 C 22,5 km/h (4 Bft) 100,00 %
06.05.2017 12:38 17,9 C 14,4 C 62 % 1010,5 hPa 0,0 l/m 13,8 km/h (3 Bft) O-NO 58 2 min 0,000 mm 4,8 UV-I 896 W/m 10,5 C 15,0 C 19,3 km/h (3 Bft) 100,00 %
06.05.2017 12:40 17,9 C 14,4 C 65 % 1010,5 hPa 0,0 l/m 14,1 km/h (3 Bft) O-NO 67 2 min 0,000 mm 4,8 UV-I 897 W/m 11,2 C 15,0 C 20,9 km/h (4 Bft) 95,74 %
06.05.2017 12:42 18,1 C 14,4 C 65 % 1010,4 hPa 0,0 l/m 10,5 km/h (2 Bft) O-NO 62 2 min 0,000 mm 4,9 UV-I 899 W/m 11,4 C 16,4 C 16,1 km/h (3 Bft) 100,00 %
06.05.2017 12:44 18,2 C 14,4 C 66 % 1010,4 hPa 0,0 l/m 14,1 km/h (3 Bft) NO 42 2 min 0,000 mm 4,9 UV-I 897 W/m 11,7 C 15,3 C 27,4 km/h (4 Bft) 97,87 %
06.05.2017 12:46 18,3 C 14,4 C 65 % 1010,4 hPa 0,0 l/m 12,4 km/h (3 Bft) NO 34 2 min 0,000 mm 4,9 UV-I 895 W/m 11,6 C 15,9 C 24,1 km/h (4 Bft) 96,00 %
06.05.2017 12:48 18,4 C 14,4 C 64 % 1010,4 hPa 0,0 l/m 11,5 km/h (2 Bft) O 79 2 min 0,000 mm 4,9 UV-I 893 W/m 11,5 C 16,4 C 20,9 km/h (4 Bft) 100,00 %
06.05.2017 12:50 18,5 C 14,4 C 64 % 1010,3 hPa 0,0 l/m 13,6 km/h (3 Bft) O-NO 67 2 min 0,000 mm 4,9 UV-I 898 W/m 11,6 C 15,8 C 19,3 km/h (3 Bft) 93,62 %
06.05.2017 12:52 18,5 C 14,4 C 61 % 1010,3 hPa 0,0 l/m 14,1 km/h (3 Bft) O-NO 58 2 min 0,000 mm 4,9 UV-I 890 W/m 10,8 C 15,7 C 22,5 km/h (4 Bft) 97,87 %
06.05.2017 12:54 18,4 C 14,4 C 62 % 1010,2 hPa 0,0 l/m 11,2 km/h (2 Bft) NO 43 2 min 0,000 mm 4,9 UV-I 894 W/m 11,0 C 16,5 C 17,7 km/h (3 Bft) 95,83 %
06.05.2017 12:56 18,4 C 14,4 C 63 % 1010,1 hPa 0,0 l/m 9,4 km/h (2 Bft) NO 51 2 min 0,000 mm 4,9 UV-I 890 W/m 11,2 C 17,1 C 16,1 km/h (3 Bft) 97,87 %
06.05.2017 12:58 18,4 C 14,4 C 64 % 1010,0 hPa 0,0 l/m 15,4 km/h (3 Bft) NO 40 2 min 0,000 mm 4,9 UV-I 893 W/m 11,5 C 15,2 C 20,9 km/h (4 Bft) 94,00 %
06.05.2017 13:00 18,6 C 14,4 C 65 % 1010,0 hPa 0,0 l/m 14,7 km/h (3 Bft) NO 51 2 min 0,559 mm 4,9 UV-I 881 W/m 11,9 C 15,6 C 19,3 km/h (3 Bft) 97,87 %
06.05.2017 13:02 18,7 C 14,4 C 67 % 1010,0 hPa 0,0 l/m 16,5 km/h (3 Bft) O-NO 65 2 min 0,000 mm 4,9 UV-I 894 W/m 12,4 C 15,3 C 24,1 km/h (4 Bft) 93,62 %
06.05.2017 13:04 18,7 C 14,4 C 65 % 1010,0 hPa 0,0 l/m 10,8 km/h (2 Bft) NO 42 2 min 0,000 mm 5,0 UV-I 897 W/m 12,0 C 16,9 C 20,9 km/h (4 Bft) 93,62 %
06.05.2017 13:06 18,8 C 14,4 C 69 % 1009,9 hPa 0,0 l/m 11,5 km/h (2 Bft) O 101 2 min 0,000 mm 5,0 UV-I 891 W/m 13,0 C 16,8 C 22,5 km/h (4 Bft) 98,00 %
06.05.2017 13:08 19,0 C 14,4 C 66 % 1009,9 hPa 0,0 l/m 16,0 km/h (3 Bft) N-NO 32 2 min 0,000 mm 5,0 UV-I 891 W/m 12,5 C 15,8 C 20,9 km/h (4 Bft) 93,62 %
06.05.2017 13:10 18,8 C 14,4 C 62 % 1009,8 hPa 0,0 l/m 10,4 km/h (2 Bft) O-NO 69 2 min 0,000 mm 4,9 UV-I 889 W/m 11,4 C 17,2 C 17,7 km/h (3 Bft) 95,74 %
06.05.2017 13:12 18,8 C 14,4 C 64 % 1009,8 hPa 0,0 l/m 17,6 km/h (3 Bft) O-NO 59 2 min 0,000 mm 4,9 UV-I 892 W/m 11,8 C 15,2 C 25,7 km/h (4 Bft) 95,12 %
06.05.2017 13:14 18,8 C 14,4 C 66 % 1009,7 hPa 0,0 l/m 16,8 km/h (3 Bft) NO 43 2 min 0,000 mm 5,0 UV-I 895 W/m 12,3 C 15,4 C 22,5 km/h (4 Bft) 98,00 %
06.05.2017 13:16 18,8 C 14,4 C 67 % 1009,6 hPa 0,0 l/m 13,7 km/h (3 Bft) N-NO 26 2 min 0,000 mm 4,9 UV-I 894 W/m 12,5 C 16,1 C 22,5 km/h (4 Bft) 95,74 %
06.05.2017 13:18 18,8 C 14,4 C 62 % 1009,6 hPa 0,0 l/m 17,3 km/h (3 Bft) NO 53 2 min 0,000 mm 4,9 UV-I 888 W/m 11,4 C 15,2 C 25,7 km/h (4 Bft) 95,74 %
06.05.2017 13:20 18,9 C 14,4 C 64 % 1009,5 hPa 0,0 l/m 10,3 km/h (2 Bft) O-NO 59 2 min 0,000 mm 4,9 UV-I 891 W/m 11,9 C 17,3 C 17,7 km/h (3 Bft) 97,87 %
06.05.2017 13:22 19,0 C 14,4 C 65 % 1009,5 hPa 0,0 l/m 11,2 km/h (2 Bft) NO 53 2 min 0,000 mm 4,9 UV-I 889 W/m 12,3 C 17,1 C 20,9 km/h (4 Bft) 95,74 %
06.05.2017 13:24 19,0 C 14,4 C 61 % 1009,4 hPa 0,0 l/m 16,3 km/h (3 Bft) NO 42 2 min 0,000 mm 4,9 UV-I 891 W/m 11,3 C 15,7 C 22,5 km/h (4 Bft) 93,62 %
06.05.2017 13:26 19,1 C 14,4 C 63 % 1009,3 hPa 0,0 l/m 12,2 km/h (2 Bft) NO 50 2 min 0,000 mm 4,9 UV-I 893 W/m 11,9 C 16,9 C 17,7 km/h (3 Bft) 94,74 %
06.05.2017 13:28 19,1 C 14,4 C 66 % 1009,3 hPa 0,0 l/m 13,2 km/h (3 Bft) NO 46 2 min 0,000 mm 4,9 UV-I 887 W/m 12,6 C 16,6 C 22,5 km/h (4 Bft) 96,00 %
06.05.2017 13:30 19,0 C 14,4 C 65 % 1009,3 hPa 0,0 l/m 16,4 km/h (3 Bft) N-NO 19 2 min 0,000 mm 4,9 UV-I 883 W/m 12,3 C 15,7 C 22,5 km/h (4 Bft) 95,74 %
06.05.2017 13:32 18,9 C 14,4 C 67 % 1009,3 hPa 0,0 l/m 14,0 km/h (3 Bft) NO 45 2 min 0,000 mm 4,9 UV-I 884 W/m 12,6 C 16,2 C 20,9 km/h (4 Bft) 95,92 %
06.05.2017 13:34 19,1 C 14,4 C 68 % 1009,2 hPa 0,0 l/m 12,3 km/h (3 Bft) NO 51 2 min 0,000 mm 4,9 UV-I 883 W/m 13,1 C 16,9 C 22,5 km/h (4 Bft) 98,00 %
06.05.2017 13:36 19,2 C 14,4 C 66 % 1009,2 hPa 0,0 l/m 11,7 km/h (2 Bft) NO 42 2 min 0,000 mm 4,9 UV-I 885 W/m 12,7 C 17,2 C 17,7 km/h (3 Bft) 95,74 %
06.05.2017 13:38 19,2 C 14,4 C 66 % 1009,1 hPa 0,0 l/m 12,9 km/h (3 Bft) N-NO 32 2 min 0,000 mm 4,9 UV-I 880 W/m 12,7 C 16,8 C 19,3 km/h (3 Bft) 97,92 %
06.05.2017 13:40 19,3 C 14,4 C 66 % 1009,1 hPa 0,0 l/m 15,6 km/h (3 Bft) NO 50 2 min 0,000 mm 4,8 UV-I 875 W/m 12,8 C 16,3 C 22,5 km/h (4 Bft) 95,00 %
06.05.2017 13:42 19,4 C 14,4 C 65 % 1009,0 hPa 0,0 l/m 12,7 km/h (3 Bft) O-NO 63 2 min 0,000 mm 4,8 UV-I 874 W/m 12,6 C 17,1 C 19,3 km/h (3 Bft) 94,34 %
06.05.2017 13:44 19,6 C 14,4 C 65 % 1009,0 hPa 0,0 l/m 14,8 km/h (3 Bft) O-NO 68 2 min 0,000 mm 4,8 UV-I 879 W/m 12,8 C 16,8 C 20,9 km/h (4 Bft) 97,87 %
06.05.2017 13:46 19,6 C 14,4 C 66 % 1008,9 hPa 0,0 l/m 13,4 km/h (3 Bft) NO 34 2 min 0,000 mm 4,8 UV-I 874 W/m 13,1 C 17,2 C 25,7 km/h (4 Bft) 100,00 %
06.05.2017 13:48 19,6 C 14,4 C 64 % 1008,9 hPa 0,0 l/m 13,8 km/h (3 Bft) N-NW 333 2 min 0,000 mm 4,8 UV-I 868 W/m 12,6 C 17,1 C 22,5 km/h (4 Bft) 91,49 %
06.05.2017 13:50 19,6 C 14,4 C 65 % 1008,8 hPa 0,0 l/m 13,9 km/h (3 Bft) O 88 2 min 0,000 mm 4,8 UV-I 871 W/m 12,8 C 17,0 C 22,5 km/h (4 Bft) 97,96 %
06.05.2017 13:52 19,7 C 14,4 C 61 % 1008,8 hPa 0,0 l/m 11,0 km/h (2 Bft) NO 40 2 min 0,000 mm 4,8 UV-I 880 W/m 12,0 C 18,0 C 16,1 km/h (3 Bft) 95,74 %
06.05.2017 13:54 19,7 C 14,4 C 60 % 1008,8 hPa 0,0 l/m 13,4 km/h (3 Bft) O-NO 59 2 min 0,000 mm 4,8 UV-I 873 W/m 11,7 C 17,3 C 22,5 km/h (4 Bft) 95,74 %
06.05.2017 13:56 19,6 C 14,4 C 60 % 1008,7 hPa 0,0 l/m 11,9 km/h (2 Bft) NO 55 2 min 0,000 mm 4,8 UV-I 869 W/m 11,6 C 17,6 C 17,7 km/h (3 Bft) 93,62 %
06.05.2017 13:58 19,6 C 14,4 C 64 % 1008,7 hPa 0,0 l/m 12,7 km/h (3 Bft) NO 49 2 min 0,000 mm 4,8 UV-I 867 W/m 12,6 C 17,4 C 19,3 km/h (3 Bft) 95,74 %
06.05.2017 14:00 19,6 C 14,4 C 64 % 1008,7 hPa 0,0 l/m 11,4 km/h (2 Bft) N-NO 13 2 min 0,000 mm 4,7 UV-I 856 W/m 12,6 C 17,7 C 17,7 km/h (3 Bft) 97,87 %
06.05.2017 14:02 19,7 C 14,4 C 63 % 1008,7 hPa 0,0 l/m 16,2 km/h (3 Bft) O-NO 57 2 min 0,559 mm 4,7 UV-I 858 W/m 12,5 C 16,6 C 24,1 km/h (4 Bft) 95,74 %
06.05.2017 14:04 19,7 C 14,4 C 62 % 1008,6 hPa 0,0 l/m 16,7 km/h (3 Bft) NO 53 2 min 0,000 mm 4,7 UV-I 855 W/m 12,2 C 16,5 C 24,1 km/h (4 Bft) 95,74 %
06.05.2017 14:06 19,7 C 14,4 C 63 % 1008,5 hPa 0,0 l/m 19,3 km/h (3 Bft) O-NO 61 2 min 0,000 mm 4,6 UV-I 849 W/m 12,5 C 16,0 C 24,1 km/h (4 Bft) 95,74 %
06.05.2017 14:08 19,7 C 14,4 C 63 % 1008,5 hPa 0,0 l/m 18,2 km/h (3 Bft) NO 42 2 min 0,000 mm 4,6 UV-I 856 W/m 12,5 C 16,2 C 25,7 km/h (4 Bft) 95,74 %
06.05.2017 14:10 19,8 C 14,4 C 64 % 1008,4 hPa 0,0 l/m 12,0 km/h (2 Bft) NO 51 2 min 0,000 mm 4,6 UV-I 853 W/m 12,8 C 17,8 C 22,5 km/h (4 Bft) 95,74 %
06.05.2017 14:12 19,9 C 14,4 C 62 % 1008,4 hPa 0,0 l/m 20,0 km/h (4 Bft) NO 44 2 min 0,000 mm 4,5 UV-I 847 W/m 12,4 C 16,1 C 25,7 km/h (4 Bft) 97,87 %
06.05.2017 14:14 19,9 C 14,4 C 62 % 1008,3 hPa 0,0 l/m 14,0 km/h (3 Bft) N-NO 13 2 min 0,000 mm 4,5 UV-I 846 W/m 12,4 C 17,4 C 22,5 km/h (4 Bft) 91,67 %
06.05.2017 14:16 19,8 C 14,4 C 58 % 1008,2 hPa 0,0 l/m 19,2 km/h (3 Bft) NO 42 2 min 0,000 mm 4,5 UV-I 844 W/m 11,3 C 16,1 C 27,4 km/h (4 Bft) 95,74 %
06.05.2017 14:18 19,8 C 14,4 C 61 % 1008,1 hPa 0,0 l/m 14,0 km/h (3 Bft) N-NO 29 2 min 0,000 mm 4,5 UV-I 849 W/m 12,1 C 17,3 C 24,1 km/h (4 Bft) 95,74 %
06.05.2017 14:20 19,9 C 14,4 C 60 % 1008,1 hPa 0,0 l/m 14,1 km/h (3 Bft) N-NO 17 2 min 0,000 mm 4,5 UV-I 845 W/m 11,9 C 17,3 C 20,9 km/h (4 Bft) 93,62 %
06.05.2017 14:22 20,1 C 14,4 C 60 % 1008,1 hPa 0,0 l/m 12,5 km/h (3 Bft) NO 45 2 min 0,000 mm 4,5 UV-I 846 W/m 12,1 C 18,0 C 19,3 km/h (3 Bft) 96,00 %
06.05.2017 14:24 20,3 C 16,1 C 62 % 1008,1 hPa 0,0 l/m 14,5 km/h (3 Bft) NO 40 2 min 0,000 mm 4,4 UV-I 835 W/m 12,8 C 17,7 C 24,1 km/h (4 Bft) 97,87 %
06.05.2017 14:26 20,3 C 16,1 C 59 % 1008,1 hPa 0,0 l/m 16,3 km/h (3 Bft) NO 43 2 min 0,000 mm 4,3 UV-I 820 W/m 12,0 C 17,3 C 20,9 km/h (4 Bft) 93,62 %
06.05.2017 14:28 20,3 C 16,1 C 62 % 1008,1 hPa 0,0 l/m 12,1 km/h (2 Bft) O-NO 59 2 min 0,000 mm 4,3 UV-I 808 W/m 12,8 C 18,3 C 20,9 km/h (4 Bft) 91,49 %
06.05.2017 14:30 20,3 C 16,1 C 57 % 1008,1 hPa 0,0 l/m 15,1 km/h (3 Bft) O-NO 59 2 min 0,000 mm 4,1 UV-I 768 W/m 11,5 C 17,6 C 22,5 km/h (4 Bft) 97,87 %
06.05.2017 14:32 20,3 C 16,1 C 57 % 1008,1 hPa 0,0 l/m 12,0 km/h (2 Bft) NO 41 2 min 0,000 mm 4,2 UV-I 792 W/m 11,5 C 18,4 C 19,3 km/h (3 Bft) 94,74 %
06.05.2017 14:34 20,3 C 16,1 C 55 % 1008,1 hPa 0,0 l/m 19,3 km/h (3 Bft) O-NO 57 2 min 0,000 mm 4,1 UV-I 813 W/m 11,0 C 16,7 C 27,4 km/h (4 Bft) 97,87 %
06.05.2017 14:36 20,3 C 16,1 C 58 % 1008,1 hPa 0,0 l/m 16,5 km/h (3 Bft) O-NO 71 2 min 0,000 mm 4,1 UV-I 808 W/m 11,8 C 17,3 C 27,4 km/h (4 Bft) 97,87 %
06.05.2017 14:38 20,4 C 16,1 C 57 % 1008,1 hPa 0,0 l/m 17,2 km/h (3 Bft) NO 46 2 min 0,000 mm 4,2 UV-I 823 W/m 11,6 C 17,3 C 25,7 km/h (4 Bft) 94,00 %
06.05.2017 14:40 20,4 C 16,1 C 51 % 1008,1 hPa 0,0 l/m 14,4 km/h (3 Bft) O-NO 60 2 min 0,000 mm 4,2 UV-I 822 W/m 9,9 C 17,9 C 20,9 km/h (4 Bft) 86,00 %
06.05.2017 14:42 20,4 C 16,1 C 50 % 1008,1 hPa 0,0 l/m 15,6 km/h (3 Bft) O 88 2 min 0,000 mm 4,2 UV-I 829 W/m 9,6 C 17,6 C 24,1 km/h (4 Bft) 93,62 %
06.05.2017 14:44 20,4 C 16,1 C 53 % 1008,1 hPa 0,0 l/m 15,0 km/h (3 Bft) NO 49 2 min 0,000 mm 4,1 UV-I 808 W/m 10,5 C 17,7 C 19,3 km/h (3 Bft) 94,29 %
06.05.2017 14:46 20,4 C 16,1 C 54 % 1008,1 hPa 0,0 l/m 17,6 km/h (3 Bft) O-NO 71 2 min 0,000 mm 4,1 UV-I 810 W/m 10,8 C 17,2 C 22,5 km/h (4 Bft) 88,00 %
06.05.2017 14:48 20,4 C 16,1 C 52 % 1008,3 hPa 0,0 l/m 16,1 km/h (3 Bft) O-NO 68 2 min 0,000 mm 4,1 UV-I 810 W/m 10,2 C 17,5 C 24,1 km/h (4 Bft) 93,75 %
06.05.2017 14:50 20,4 C 16,1 C 56 % 1008,3 hPa 0,0 l/m 13,2 km/h (3 Bft) O-NO 59 2 min 0,000 mm 4,0 UV-I 814 W/m 11,3 C 18,2 C 22,5 km/h (4 Bft) 93,62 %
06.05.2017 14:52 20,4 C 16,1 C 51 % 1008,3 hPa 0,0 l/m 17,4 km/h (3 Bft) NO 46 2 min 0,000 mm 4,0 UV-I 813 W/m 9,9 C 17,2 C 24,1 km/h (4 Bft) 93,62 %
06.05.2017 14:54 20,4 C 16,1 C 53 % 1008,3 hPa 0,0 l/m 17,3 km/h (3 Bft) O-NO 61 2 min 0,000 mm 3,9 UV-I 794 W/m 10,5 C 17,2 C 24,1 km/h (4 Bft) 94,00 %
06.05.2017 14:56 20,5 C 16,1 C 56 % 1008,4 hPa 0,0 l/m 9,4 km/h (2 Bft) N-NO 29 2 min 0,000 mm 3,9 UV-I 793 W/m 11,4 C 19,4 C 14,5 km/h (3 Bft) 93,62 %
06.05.2017 14:58 20,6 C 16,1 C 59 % 1008,4 hPa 0,0 l/m 11,3 km/h (2 Bft) NO 56 2 min 0,000 mm 3,9 UV-I 787 W/m 12,3 C 18,9 C 19,3 km/h (3 Bft) 94,00 %
06.05.2017 15:00 20,6 C 16,1 C 54 % 1008,3 hPa 0,0 l/m 14,1 km/h (3 Bft) NO 36 2 min 0,000 mm 3,8 UV-I 776 W/m 11,0 C 18,2 C 19,3 km/h (3 Bft) 89,36 %
06.05.2017 15:02 20,7 C 16,1 C 55 % 1008,3 hPa 0,0 l/m 9,5 km/h (2 Bft) N-NO 27 2 min 0,559 mm 3,8 UV-I 777 W/m 11,3 C 19,6 C 16,1 km/h (3 Bft) 96,00 %
06.05.2017 15:04 20,9 C 16,1 C 59 % 1008,2 hPa 0,0 l/m 10,4 km/h (2 Bft) SO 129 2 min 0,000 mm 3,8 UV-I 780 W/m 12,6 C 19,5 C 19,3 km/h (3 Bft) 93,62 %
06.05.2017 15:06 21,1 C 16,1 C 52 % 1008,3 hPa 0,0 l/m 12,6 km/h (3 Bft) O 82 2 min 0,000 mm 3,7 UV-I 778 W/m 10,9 C 19,1 C 22,5 km/h (4 Bft) 97,56 %
06.05.2017 15:08 21,1 C 16,1 C 57 % 1008,3 hPa 0,0 l/m 14,4 km/h (3 Bft) O-NO 62 2 min 0,000 mm 3,7 UV-I 776 W/m 12,2 C 18,7 C 20,9 km/h (4 Bft) 96,00 %
06.05.2017 15:10 21,1 C 16,1 C 55 % 1008,2 hPa 0,0 l/m 14,6 km/h (3 Bft) NO 44 2 min 0,000 mm 3,7 UV-I 775 W/m 11,7 C 18,7 C 17,7 km/h (3 Bft) 100,00 %
06.05.2017 15:12 21,1 C 16,1 C 52 % 1008,1 hPa 0,0 l/m 14,5 km/h (3 Bft) O-NO 76 2 min 0,000 mm 3,6 UV-I 771 W/m 10,9 C 18,7 C 20,9 km/h (4 Bft) 97,87 %
06.05.2017 15:14 21,1 C 16,1 C 54 % 1008,0 hPa 0,0 l/m 12,9 km/h (3 Bft) O 80 2 min 0,000 mm 3,4 UV-I 704 W/m 11,4 C 19,1 C 17,7 km/h (3 Bft) 95,74 %
06.05.2017 15:16 20,9 C 16,1 C 53 % 1008,0 hPa 0,0 l/m 16,5 km/h (3 Bft) O-NO 75 2 min 0,000 mm 3,2 UV-I 585 W/m 11,0 C 18,0 C 22,5 km/h (4 Bft) 100,00 %
06.05.2017 15:18 20,8 C 16,7 C 52 % 1007,9 hPa 0,0 l/m 12,3 km/h (3 Bft) NO 46 2 min 0,000 mm 3,4 UV-I 702 W/m 10,6 C 18,9 C 17,7 km/h (3 Bft) 97,87 %
06.05.2017 15:20 20,9 C 16,7 C 59 % 1007,8 hPa 0,0 l/m 12,8 km/h (3 Bft) NO 37 2 min 0,000 mm 3,5 UV-I 751 W/m 12,6 C 18,9 C 17,7 km/h (3 Bft) 95,74 %
06.05.2017 15:22 21,1 C 16,7 C 55 % 1007,8 hPa 0,0 l/m 12,3 km/h (3 Bft) NO 55 2 min 0,000 mm 3,3 UV-I 711 W/m 11,7 C 19,2 C 17,7 km/h (3 Bft) 97,87 %
06.05.2017 15:24 21,1 C 16,7 C 58 % 1007,7 hPa 0,0 l/m 15,4 km/h (3 Bft) O 86 2 min 0,000 mm 3,3 UV-I 718 W/m 12,5 C 18,5 C 24,1 km/h (4 Bft) 100,00 %
06.05.2017 15:26 21,1 C 16,7 C 55 % 1007,6 hPa 0,0 l/m 18,4 km/h (3 Bft) NO 38 2 min 0,000 mm 3,1 UV-I 694 W/m 11,7 C 17,9 C 27,4 km/h (4 Bft) 95,92 %
06.05.2017 15:28 20,9 C 16,7 C 59 % 1007,6 hPa 0,0 l/m 17,8 km/h (3 Bft) NO 43 2 min 0,000 mm 3,0 UV-I 671 W/m 12,6 C 17,8 C 27,4 km/h (4 Bft) 98,00 %
06.05.2017 15:30 20,8 C 16,7 C 60 % 1007,6 hPa 0,0 l/m 13,0 km/h (3 Bft) O-NO 63 2 min 0,000 mm 3,0 UV-I 647 W/m 12,7 C 18,7 C 16,1 km/h (3 Bft) 97,87 %
06.05.2017 15:32 20,9 C 16,7 C 57 % 1007,5 hPa 0,0 l/m 20,6 km/h (4 Bft) N-NO 23 2 min 0,000 mm 2,8 UV-I 585 W/m 12,1 C 17,3 C 25,7 km/h (4 Bft) 97,22 %
06.05.2017 15:34 20,9 C 16,7 C 55 % 1007,4 hPa 0,0 l/m 17,0 km/h (3 Bft) NO 52 2 min 0,000 mm 2,7 UV-I 551 W/m 11,5 C 17,9 C 20,9 km/h (4 Bft) 93,55 %
06.05.2017 15:36 20,8 C 16,7 C 53 % 1007,4 hPa 0,0 l/m 15,2 km/h (3 Bft) O-NO 57 2 min 0,000 mm 2,9 UV-I 626 W/m 10,9 C 18,2 C 19,3 km/h (3 Bft) 97,87 %
06.05.2017 15:38 20,9 C 16,7 C 56 % 1007,3 hPa 0,0 l/m 11,0 km/h (2 Bft) N-NO 32 2 min 0,000 mm 2,7 UV-I 590 W/m 11,8 C 19,3 C 17,7 km/h (3 Bft) 100,00 %
06.05.2017 15:40 20,9 C 16,7 C 58 % 1007,2 hPa 0,0 l/m 18,1 km/h (3 Bft) NO 41 2 min 0,000 mm 2,9 UV-I 631 W/m 12,3 C 17,7 C 22,5 km/h (4 Bft) 97,56 %
06.05.2017 15:42 20,9 C 16,7 C 57 % 1007,2 hPa 0,0 l/m 20,1 km/h (4 Bft) NO 40 2 min 0,000 mm 3,0 UV-I 713 W/m 12,1 C 17,4 C 27,4 km/h (4 Bft) 97,87 %
06.05.2017 15:44 20,9 C 16,7 C 55 % 1007,1 hPa 0,0 l/m 15,2 km/h (3 Bft) NO 51 2 min 0,000 mm 2,8 UV-I 705 W/m 11,5 C 18,3 C 24,1 km/h (4 Bft) 100,00 %
06.05.2017 15:46 20,7 C 16,7 C 59 % 1007,0 hPa 0,0 l/m 18,4 km/h (3 Bft) N 355 2 min 0,000 mm 2,4 UV-I 688 W/m 12,4 C 17,4 C 25,7 km/h (4 Bft) 98,11 %
06.05.2017 15:48 20,7 C 16,7 C 58 % 1007,0 hPa 0,0 l/m 15,3 km/h (3 Bft) O-NO 64 2 min 0,000 mm 2,3 UV-I 495 W/m 12,1 C 18,0 C 24,1 km/h (4 Bft) 92,11 %
06.05.2017 15:50 20,7 C 16,7 C 61 % 1006,9 hPa 0,0 l/m 16,0 km/h (3 Bft) N-NO 26 2 min 0,000 mm 2,4 UV-I 478 W/m 12,9 C 17,9 C 20,9 km/h (4 Bft) 98,00 %
06.05.2017 15:52 20,8 C 16,7 C 62 % 1006,9 hPa 0,0 l/m 17,3 km/h (3 Bft) NO 34 2 min 0,000 mm 2,5 UV-I 603 W/m 13,2 C 17,7 C 25,7 km/h (4 Bft) 96,00 %
06.05.2017 15:54 20,8 C 16,7 C 60 % 1006,8 hPa 0,0 l/m 20,0 km/h (4 Bft) O-NO 59 2 min 0,000 mm 2,5 UV-I 561 W/m 12,7 C 17,2 C 27,4 km/h (4 Bft) 98,00 %
06.05.2017 15:56 20,8 C 16,7 C 58 % 1006,8 hPa 0,0 l/m 19,6 km/h (3 Bft) O-NO 75 2 min 0,000 mm 2,4 UV-I 565 W/m 12,2 C 17,3 C 27,4 km/h (4 Bft) 97,87 %
06.05.2017 15:58 20,8 C 16,7 C 56 % 1006,7 hPa 0,0 l/m 15,6 km/h (3 Bft) O-NO 57 2 min 0,000 mm 2,5 UV-I 591 W/m 11,7 C 18,1 C 24,1 km/h (4 Bft) 93,62 %
06.05.2017 16:00 20,8 C 16,7 C 56 % 1006,7 hPa 0,0 l/m 18,1 km/h (3 Bft) NO 47 2 min 0,000 mm 2,4 UV-I 569 W/m 11,7 C 17,6 C 25,7 km/h (4 Bft) 91,43 %
06.05.2017 16:03 20,7 C 16,7 C 59 % 1006,6 hPa 0,0 l/m 25,1 km/h (4 Bft) NO 53 3 min 0,482 mm 2,4 UV-I 575 W/m 12,4 C 16,3 C 30,6 km/h (5 Bft) 97,53 %
06.05.2017 16:04 20,7 C 16,7 C 59 % 1006,6 hPa 0,0 l/m 22,4 km/h (4 Bft) O-NO 63 1 min 0,000 mm 2,3 UV-I 554 W/m 12,4 C 16,7 C 32,2 km/h (5 Bft) 100,00 %
06.05.2017 16:06 20,6 C 16,7 C 59 % 1006,6 hPa 0,0 l/m 18,3 km/h (3 Bft) NO 34 2 min 0,000 mm 2,2 UV-I 539 W/m 12,3 C 17,3 C 25,7 km/h (4 Bft) 93,62 %
06.05.2017 16:08 20,7 C 16,7 C 59 % 1006,6 hPa 0,0 l/m 18,1 km/h (3 Bft) O-NO 63 2 min 0,000 mm 2,2 UV-I 546 W/m 12,4 C 17,5 C 25,7 km/h (4 Bft) 97,22 %
06.05.2017 16:10 20,7 C 16,7 C 56 % 1006,6 hPa 0,0 l/m 11,8 km/h (2 Bft) N-NO 22 2 min 0,000 mm 2,2 UV-I 549 W/m 11,6 C 18,9 C 17,7 km/h (3 Bft) 96,00 %
06.05.2017 16:12 20,7 C 16,7 C 55 % 1006,6 hPa 0,0 l/m 20,8 km/h (4 Bft) O-NO 63 2 min 0,000 mm 2,2 UV-I 533 W/m 11,3 C 17,0 C 29,0 km/h (5 Bft) 95,74 %
06.05.2017 16:14 20,7 C 16,7 C 56 % 1006,6 hPa 0,0 l/m 22,4 km/h (4 Bft) O-NO 65 2 min 0,000 mm 2,2 UV-I 544 W/m 11,6 C 16,7 C 32,2 km/h (5 Bft) 93,62 %
06.05.2017 16:16 20,7 C 16,7 C 57 % 1006,5 hPa 0,0 l/m 18,3 km/h (3 Bft) NO 43 2 min 0,000 mm 2,2 UV-I 560 W/m 11,9 C 17,4 C 29,0 km/h (5 Bft) 93,62 %
06.05.2017 16:18 20,7 C 16,7 C 58 % 1006,6 hPa 0,0 l/m 15,0 km/h (3 Bft) O-NO 65 2 min 0,000 mm 2,1 UV-I 530 W/m 12,1 C 18,1 C 24,1 km/h (4 Bft) 95,74 %
06.05.2017 16:20 20,7 C 16,7 C 56 % 1006,5 hPa 0,0 l/m 17,7 km/h (3 Bft) O-NO 63 2 min 0,000 mm 2,0 UV-I 519 W/m 11,6 C 17,5 C 25,7 km/h (4 Bft) 95,74 %
06.05.2017 16:22 20,6 C 16,7 C 56 % 1006,5 hPa 0,0 l/m 19,8 km/h (3 Bft) O-NO 69 2 min 0,000 mm 1,8 UV-I 435 W/m 11,5 C 17,0 C 29,0 km/h (5 Bft) 100,00 %
06.05.2017 16:24 20,5 C 16,7 C 59 % 1006,5 hPa 0,0 l/m 19,8 km/h (3 Bft) NO 42 2 min 0,000 mm 1,6 UV-I 346 W/m 12,2 C 16,9 C 30,6 km/h (5 Bft) 100,00 %
06.05.2017 16:26 20,3 C 16,7 C 58 % 1006,4 hPa 0,0 l/m 21,1 km/h (4 Bft) O-NO 65 2 min 0,000 mm 1,6 UV-I 377 W/m 11,8 C 16,4 C 30,6 km/h (5 Bft) 94,00 %
06.05.2017 16:29 20,3 C 16,7 C 57 % 1006,4 hPa 0,0 l/m 18,1 km/h (3 Bft) O-NO 69 3 min 0,000 mm 1,6 UV-I 368 W/m 11,5 C 17,0 C 29,0 km/h (5 Bft) 97,14 %
06.05.2017 16:30 20,3 C 16,7 C 58 % 1006,4 hPa 0,0 l/m 11,9 km/h (2 Bft) NO 52 1 min 0,000 mm 1,6 UV-I 415 W/m 11,8 C 18,4 C 17,7 km/h (3 Bft) 95,83 %
06.05.2017 16:32 20,2 C 16,7 C 58 % 1006,3 hPa 0,0 l/m 18,5 km/h (3 Bft) O-NO 59 2 min 0,000 mm 1,5 UV-I 369 W/m 11,7 C 16,7 C 30,6 km/h (5 Bft) 93,62 %
06.05.2017 16:34 20,2 C 16,7 C 58 % 1006,3 hPa 0,0 l/m 14,7 km/h (3 Bft) O-NO 58 2 min 0,000 mm 1,5 UV-I 347 W/m 11,7 C 17,6 C 20,9 km/h (4 Bft) 93,62 %
06.05.2017 16:36 20,2 C 16,7 C 60 % 1006,3 hPa 0,0 l/m 13,8 km/h (3 Bft) O-NO 74 2 min 0,000 mm 1,6 UV-I 364 W/m 12,2 C 17,8 C 19,3 km/h (3 Bft) 94,74 %
06.05.2017 16:38 20,2 C 16,7 C 59 % 1006,3 hPa 0,0 l/m 16,6 km/h (3 Bft) O-NO 63 2 min 0,000 mm 1,8 UV-I 443 W/m 11,9 C 17,1 C 29,0 km/h (5 Bft) 96,00 %
06.05.2017 16:40 20,4 C 16,7 C 60 % 1006,2 hPa 0,0 l/m 16,4 km/h (3 Bft) NO 51 2 min 0,000 mm 2,0 UV-I 674 W/m 12,4 C 17,4 C 25,7 km/h (4 Bft) 95,74 %
06.05.2017 16:42 20,6 C 16,7 C 56 % 1006,3 hPa 0,0 l/m 19,9 km/h (4 Bft) NO 44 2 min 0,000 mm 2,1 UV-I 630 W/m 11,5 C 17,0 C 30,6 km/h (5 Bft) 92,00 %
06.05.2017 16:44 20,7 C 16,7 C 54 % 1006,2 hPa 0,0 l/m 22,2 km/h (4 Bft) NO 55 2 min 0,000 mm 2,0 UV-I 593 W/m 11,1 C 16,7 C 29,0 km/h (5 Bft) 90,00 %
06.05.2017 16:46 20,7 C 16,7 C 56 % 1006,2 hPa 0,0 l/m 18,2 km/h (3 Bft) NO 44 2 min 0,000 mm 1,9 UV-I 644 W/m 11,6 C 17,4 C 24,1 km/h (4 Bft) 96,00 %
06.05.2017 16:48 20,8 C 16,7 C 56 % 1006,2 hPa 0,0 l/m 17,5 km/h (3 Bft) NO 42 2 min 0,000 mm 1,9 UV-I 628 W/m 11,7 C 17,7 C 27,4 km/h (4 Bft) 91,67 %
06.05.2017 16:50 20,8 C 16,7 C 56 % 1006,1 hPa 0,0 l/m 16,8 km/h (3 Bft) O-NO 67 2 min 0,000 mm 1,8 UV-I 609 W/m 11,7 C 17,8 C 27,4 km/h (4 Bft) 96,00 %
06.05.2017 16:52 20,9 C 16,7 C 56 % 1006,1 hPa 0,0 l/m 17,6 km/h (3 Bft) NO 44 2 min 0,000 mm 1,7 UV-I 556 W/m 11,8 C 17,8 C 27,4 km/h (4 Bft) 93,62 %
06.05.2017 16:54 20,9 C 16,7 C 59 % 1006,1 hPa 0,0 l/m 13,8 km/h (3 Bft) O-NO 67 2 min 0,000 mm 1,6 UV-I 512 W/m 12,6 C 18,6 C 22,5 km/h (4 Bft) 91,49 %
06.05.2017 16:56 21,0 C 16,7 C 58 % 1006,1 hPa 0,0 l/m 15,2 km/h (3 Bft) O-NO 68 2 min 0,000 mm 1,6 UV-I 495 W/m 12,4 C 18,4 C 22,5 km/h (4 Bft) 94,00 %
06.05.2017 16:58 21,0 C 16,7 C 57 % 1006,1 hPa 0,0 l/m 19,8 km/h (3 Bft) O-NO 69 2 min 0,000 mm 1,5 UV-I 478 W/m 12,1 C 17,5 C 25,7 km/h (4 Bft) 95,74 %
06.05.2017 17:00 20,9 C 16,7 C 56 % 1006,0 hPa 0,0 l/m 21,4 km/h (4 Bft) O-SO 121 2 min 0,000 mm 1,6 UV-I 516 W/m 11,8 C 17,1 C 33,8 km/h (5 Bft) 94,00 %
06.05.2017 17:02 20,9 C 16,7 C 56 % 1006,0 hPa 0,0 l/m 16,4 km/h (3 Bft) NO 46 2 min 0,407 mm 1,6 UV-I 526 W/m 11,8 C 18,0 C 22,5 km/h (4 Bft) 93,62 %
06.05.2017 17:04 20,9 C 16,7 C 55 % 1005,9 hPa 0,0 l/m 18,5 km/h (3 Bft) O-NO 66 2 min 0,000 mm 1,6 UV-I 533 W/m 11,5 C 17,6 C 25,7 km/h (4 Bft) 100,00 %
06.05.2017 17:06 20,9 C 16,7 C 58 % 1005,9 hPa 0,0 l/m 17,4 km/h (3 Bft) NO 53 2 min 0,000 mm 1,5 UV-I 496 W/m 12,3 C 17,8 C 22,5 km/h (4 Bft) 97,87 %
06.05.2017 17:08 20,9 C 16,7 C 58 % 1005,9 hPa 0,0 l/m 16,4 km/h (3 Bft) NO 47 2 min 0,000 mm 1,4 UV-I 404 W/m 12,3 C 18,0 C 24,1 km/h (4 Bft) 100,00 %
06.05.2017 17:10 20,9 C 16,7 C 56 % 1005,9 hPa 0,0 l/m 20,0 km/h (4 Bft) NO 51 2 min 0,000 mm 1,2 UV-I 344 W/m 11,8 C 17,4 C 25,7 km/h (4 Bft) 100,00 %
06.05.2017 17:12 20,8 C 16,7 C 56 % 1005,8 hPa 0,0 l/m 19,0 km/h (3 Bft) O-NO 71 2 min 0,000 mm 1,2 UV-I 352 W/m 11,7 C 17,4 C 27,4 km/h (4 Bft) 92,00 %
06.05.2017 17:14 20,7 C 16,7 C 58 % 1005,8 hPa 0,0 l/m 14,7 km/h (3 Bft) NO 42 2 min 0,000 mm 1,2 UV-I 382 W/m 12,1 C 18,2 C 19,3 km/h (3 Bft) 97,87 %
06.05.2017 17:16 20,7 C 16,7 C 58 % 1005,8 hPa 0,0 l/m 19,7 km/h (3 Bft) O 84 2 min 0,000 mm 1,2 UV-I 403 W/m 12,1 C 17,2 C 25,7 km/h (4 Bft) 100,00 %
06.05.2017 17:18 20,7 C 16,7 C 58 % 1005,8 hPa 0,0 l/m 17,7 km/h (3 Bft) O-NO 58 2 min 0,000 mm 1,3 UV-I 441 W/m 12,1 C 17,5 C 24,1 km/h (4 Bft) 95,74 %
06.05.2017 17:20 20,7 C 16,7 C 59 % 1005,7 hPa 0,0 l/m 15,4 km/h (3 Bft) NO 54 2 min 0,000 mm 1,3 UV-I 463 W/m 12,4 C 18,0 C 25,7 km/h (4 Bft) 95,74 %
06.05.2017 17:22 20,7 C 16,7 C 57 % 1005,7 hPa 0,0 l/m 20,8 km/h (4 Bft) O-NO 61 2 min 0,000 mm 1,1 UV-I 378 W/m 11,9 C 17,0 C 27,4 km/h (4 Bft) 93,62 %
06.05.2017 17:24 20,6 C 16,7 C 57 % 1005,7 hPa 0,0 l/m 18,6 km/h (3 Bft) O-NO 73 2 min 0,000 mm 1,1 UV-I 409 W/m 11,8 C 17,2 C 25,7 km/h (4 Bft) 93,62 %
06.05.2017 17:26 20,6 C 16,7 C 59 % 1005,6 hPa 0,0 l/m 18,8 km/h (3 Bft) NO 35 2 min 0,000 mm 1,2 UV-I 444 W/m 12,3 C 17,2 C 24,1 km/h (4 Bft) 100,00 %
06.05.2017 17:28 20,7 C 16,7 C 59 % 1005,6 hPa 0,0 l/m 17,5 km/h (3 Bft) O-NO 65 2 min 0,000 mm 1,2 UV-I 445 W/m 12,4 C 17,6 C 27,4 km/h (4 Bft) 100,00 %
06.05.2017 17:30 20,7 C 16,7 C 55 % 1005,6 hPa 0,0 l/m 23,7 km/h (4 Bft) O-NO 63 2 min 0,000 mm 1,2 UV-I 448 W/m 11,3 C 16,5 C 30,6 km/h (5 Bft) 97,87 %
06.05.2017 17:32 20,7 C 16,7 C 55 % 1005,5 hPa 0,0 l/m 20,2 km/h (4 Bft) NO 53 2 min 0,000 mm 1,1 UV-I 443 W/m 11,3 C 17,1 C 29,0 km/h (5 Bft) 92,31 %
06.05.2017 17:34 20,7 C 16,7 C 55 % 1005,5 hPa 0,0 l/m 23,0 km/h (4 Bft) O-NO 66 2 min 0,000 mm 1,1 UV-I 431 W/m 11,3 C 16,6 C 33,8 km/h (5 Bft) 92,00 %
06.05.2017 17:36 20,7 C 16,7 C 57 % 1005,5 hPa 0,0 l/m 14,4 km/h (3 Bft) O-NO 60 2 min 0,000 mm 1,1 UV-I 421 W/m 11,9 C 18,2 C 25,7 km/h (4 Bft) 100,00 %
06.05.2017 17:38 20,7 C 16,7 C 56 % 1005,5 hPa 0,0 l/m 17,5 km/h (3 Bft) O-NO 69 2 min 0,000 mm 1,0 UV-I 413 W/m 11,6 C 17,6 C 25,7 km/h (4 Bft) 97,87 %
06.05.2017 17:40 20,7 C 16,7 C 57 % 1005,4 hPa 0,0 l/m 17,6 km/h (3 Bft) O-NO 58 2 min 0,000 mm 1,0 UV-I 399 W/m 11,9 C 17,6 C 25,7 km/h (4 Bft) 91,49 %
06.05.2017 17:42 20,7 C 16,7 C 57 % 1005,4 hPa 0,0 l/m 17,6 km/h (3 Bft) O-NO 60 2 min 0,000 mm 1,0 UV-I 396 W/m 11,9 C 17,6 C 22,5 km/h (4 Bft) 98,00 %
06.05.2017 17:44 20,8 C 16,7 C 58 % 1005,4 hPa 0,0 l/m 16,4 km/h (3 Bft) O-NO 68 2 min 0,000 mm 0,9 UV-I 386 W/m 12,2 C 17,9 C 25,7 km/h (4 Bft) 97,87 %
06.05.2017 17:46 20,8 C 16,7 C 57 % 1005,4 hPa 0,0 l/m 17,6 km/h (3 Bft) O-NO 74 2 min 0,000 mm 0,9 UV-I 375 W/m 12,0 C 17,7 C 24,1 km/h (4 Bft) 97,14 %
06.05.2017 17:48 20,8 C 16,7 C 58 % 1005,4 hPa 0,0 l/m 17,6 km/h (3 Bft) O-NO 67 2 min 0,000 mm 0,9 UV-I 364 W/m 12,2 C 17,7 C 25,7 km/h (4 Bft) 94,00 %
06.05.2017 17:50 20,7 C 16,7 C 56 % 1005,4 hPa 0,0 l/m 18,2 km/h (3 Bft) NO 56 2 min 0,000 mm 0,9 UV-I 359 W/m 11,6 C 17,4 C 24,1 km/h (4 Bft) 98,00 %
06.05.2017 17:52 20,7 C 16,7 C 55 % 1005,4 hPa 0,0 l/m 20,8 km/h (4 Bft) O-NO 62 2 min 0,000 mm 0,8 UV-I 351 W/m 11,3 C 17,0 C 27,4 km/h (4 Bft) 100,00 %
06.05.2017 17:54 20,7 C 16,7 C 57 % 1005,4 hPa 0,0 l/m 17,8 km/h (3 Bft) O-NO 67 2 min 0,000 mm 0,8 UV-I 349 W/m 11,9 C 17,5 C 27,4 km/h (4 Bft) 97,87 %
06.05.2017 17:56 20,6 C 16,7 C 56 % 1005,3 hPa 0,0 l/m 21,8 km/h (4 Bft) NO 45 2 min 0,000 mm 0,8 UV-I 343 W/m 11,5 C 16,7 C 30,6 km/h (5 Bft) 92,00 %
06.05.2017 17:58 20,6 C 16,7 C 56 % 1005,3 hPa 0,0 l/m 21,4 km/h (4 Bft) O-NO 67 2 min 0,000 mm 0,7 UV-I 337 W/m 11,5 C 16,7 C 27,4 km/h (4 Bft) 95,74 %
06.05.2017 18:00 20,6 C 16,7 C 57 % 1005,3 hPa 0,0 l/m 18,0 km/h (3 Bft) O-NO 73 2 min 0,000 mm 0,7 UV-I 335 W/m 11,8 C 17,3 C 25,7 km/h (4 Bft) 100,00 %
06.05.2017 18:02 20,6 C 16,7 C 57 % 1005,3 hPa 0,0 l/m 20,4 km/h (4 Bft) O-SO 106 2 min 0,355 mm 0,7 UV-I 323 W/m 11,8 C 16,9 C 30,6 km/h (5 Bft) 94,00 %
06.05.2017 18:04 20,5 C 16,7 C 56 % 1005,3 hPa 0,0 l/m 19,6 km/h (3 Bft) O 83 2 min 0,000 mm 0,7 UV-I 302 W/m 11,4 C 16,9 C 27,4 km/h (4 Bft) 100,00 %
06.05.2017 18:06 20,5 C 16,7 C 57 % 1005,2 hPa 0,0 l/m 18,7 km/h (3 Bft) O-NO 73 2 min 0,000 mm 0,6 UV-I 300 W/m 11,7 C 17,1 C 25,7 km/h (4 Bft) 100,00 %
06.05.2017 18:08 20,5 C 16,7 C 56 % 1005,2 hPa 0,0 l/m 19,0 km/h (3 Bft) O-NO 62 2 min 0,000 mm 0,6 UV-I 287 W/m 11,4 C 17,0 C 27,4 km/h (4 Bft) 93,75 %
06.05.2017 18:10 20,4 C 16,7 C 57 % 1005,2 hPa 0,0 l/m 18,8 km/h (3 Bft) O-NO 71 2 min 0,000 mm 0,6 UV-I 296 W/m 11,6 C 16,9 C 25,7 km/h (4 Bft) 95,74 %
06.05.2017 18:12 20,4 C 16,7 C 58 % 1005,1 hPa 0,0 l/m 17,0 km/h (3 Bft) O 92 2 min 0,000 mm 0,6 UV-I 299 W/m 11,9 C 17,3 C 24,1 km/h (4 Bft) 100,00 %
06.05.2017 18:14 20,4 C 16,7 C 57 % 1005,1 hPa 0,0 l/m 16,7 km/h (3 Bft) N-NO 18 2 min 0,000 mm 0,6 UV-I 281 W/m 11,6 C 17,4 C 20,9 km/h (4 Bft) 95,74 %
06.05.2017 18:16 20,4 C 16,7 C 58 % 1005,1 hPa 0,0 l/m 16,8 km/h (3 Bft) NO 44 2 min 0,000 mm 0,5 UV-I 276 W/m 11,9 C 17,3 C 25,7 km/h (4 Bft) 95,74 %
06.05.2017 18:18 20,4 C 16,7 C 58 % 1005,1 hPa 0,0 l/m 16,0 km/h (3 Bft) NO 54 2 min 0,000 mm 0,5 UV-I 188 W/m 11,9 C 17,5 C 25,7 km/h (4 Bft) 89,36 %
06.05.2017 18:20 20,3 C 16,7 C 57 % 1005,0 hPa 0,0 l/m 19,9 km/h (4 Bft) NO 55 0 min 0,000 mm 0,5 UV-I 168 W/m 11,5 C 16,6 C 27,4 km/h (4 Bft) 95,74 %
06.05.2017 18:22 20,2 C 16,7 C 58 % 1005,1 hPa 0,0 l/m 16,7 km/h (3 Bft) O 88 2 min 0,000 mm 0,2 UV-I 181 W/m 11,7 C 17,1 C 25,7 km/h (4 Bft) 97,87 %
06.05.2017 18:24 20,2 C 16,7 C 59 % 1005,0 hPa 0,0 l/m 16,0 km/h (3 Bft) O 84 0 min 0,000 mm 0,0 UV-I 131 W/m 11,9 C 17,3 C 22,5 km/h (4 Bft) 100,00 %
06.05.2017 18:26 20,1 C 16,7 C 59 % 1005,0 hPa 0,0 l/m 18,3 km/h (3 Bft) O-NO 61 0 min 0,000 mm 0,0 UV-I 132 W/m 11,8 C 16,7 C 25,7 km/h (4 Bft) 93,62 %
06.05.2017 18:28 19,9 C 16,7 C 57 % 1005,0 hPa 0,0 l/m 20,1 km/h (4 Bft) O-NO 78 0 min 0,000 mm 0,0 UV-I 120 W/m 11,1 C 16,1 C 30,6 km/h (5 Bft) 100,00 %
06.05.2017 18:30 19,9 C 16,7 C 59 % 1005,0 hPa 0,0 l/m 20,4 km/h (4 Bft) O 87 0 min 0,000 mm 0,0 UV-I 125 W/m 11,6 C 16,0 C 29,0 km/h (5 Bft) 95,74 %
06.05.2017 18:32 19,8 C 16,7 C 59 % 1005,0 hPa 0,0 l/m 16,9 km/h (3 Bft) O-NO 69 0 min 0,000 mm 0,0 UV-I 126 W/m 11,6 C 16,6 C 25,7 km/h (4 Bft) 97,87 %
06.05.2017 18:34 19,7 C 16,7 C 58 % 1005,0 hPa 0,0 l/m 20,3 km/h (4 Bft) O 82 2 min 0,000 mm 0,0 UV-I 166 W/m 11,2 C 15,8 C 25,7 km/h (4 Bft) 94,00 %
06.05.2017 18:36 19,8 C 16,7 C 58 % 1005,0 hPa 0,0 l/m 17,7 km/h (3 Bft) O-NO 74 2 min 0,000 mm 0,0 UV-I 218 W/m 11,3 C 16,4 C 24,1 km/h (4 Bft) 97,87 %
06.05.2017 18:38 19,8 C 16,7 C 59 % 1005,0 hPa 0,0 l/m 15,9 km/h (3 Bft) O-NO 76 2 min 0,000 mm 0,0 UV-I 213 W/m 11,6 C 16,8 C 22,5 km/h (4 Bft) 91,84 %
06.05.2017 18:40 19,8 C 16,7 C 60 % 1004,9 hPa 0,0 l/m 11,0 km/h (2 Bft) O-NO 65 2 min 0,000 mm 0,0 UV-I 205 W/m 11,8 C 18,1 C 17,7 km/h (3 Bft) 91,49 %
06.05.2017 18:42 19,8 C 16,7 C 60 % 1004,9 hPa 0,0 l/m 9,9 km/h (2 Bft) O-NO 74 2 min 0,000 mm 0,0 UV-I 198 W/m 11,8 C 18,5 C 16,1 km/h (3 Bft) 87,18 %
06.05.2017 18:44 19,8 C 16,7 C 61 % 1004,9 hPa 0,0 l/m 9,3 km/h (2 Bft) O 80 2 min 0,000 mm 0,0 UV-I 191 W/m 12,1 C 18,7 C 12,9 km/h (3 Bft) 87,23 %
06.05.2017 18:46 19,8 C 16,7 C 60 % 1004,8 hPa 0,0 l/m 10,4 km/h (2 Bft) O 84 2 min 0,000 mm 0,0 UV-I 184 W/m 11,8 C 18,3 C 16,1 km/h (3 Bft) 93,62 %
06.05.2017 18:48 19,9 C 16,7 C 61 % 1004,8 hPa 0,0 l/m 11,4 km/h (2 Bft) O-NO 69 2 min 0,000 mm 0,0 UV-I 177 W/m 12,2 C 18,1 C 19,3 km/h (3 Bft) 89,80 %
06.05.2017 18:50 19,8 C 16,7 C 59 % 1004,8 hPa 0,0 l/m 19,4 km/h (3 Bft) O-NO 75 2 min 0,000 mm 0,0 UV-I 146 W/m 11,6 C 16,1 C 24,1 km/h (4 Bft) 91,49 %
06.05.2017 18:52 19,8 C 16,7 C 60 % 1004,8 hPa 0,0 l/m 13,4 km/h (3 Bft) O-NO 67 0 min 0,000 mm 0,0 UV-I 80 W/m 11,8 C 17,4 C 17,7 km/h (3 Bft) 91,49 %
06.05.2017 18:54 19,7 C 16,7 C 60 % 1004,7 hPa 0,0 l/m 14,9 km/h (3 Bft) O-NO 59 0 min 0,000 mm 0,0 UV-I 97 W/m 11,7 C 16,9 C 20,9 km/h (4 Bft) 91,49 %
06.05.2017 18:56 19,7 C 16,7 C 60 % 1004,7 hPa 0,0 l/m 12,5 km/h (3 Bft) NO 47 2 min 0,000 mm 0,0 UV-I 138 W/m 11,7 C 17,5 C 17,7 km/h (3 Bft) 91,49 %
06.05.2017 18:58 19,6 C 16,7 C 61 % 1004,7 hPa 0,0 l/m 16,8 km/h (3 Bft) NO 56 0 min 0,000 mm 0,0 UV-I 100 W/m 11,9 C 16,3 C 25,7 km/h (4 Bft) 91,49 %
06.05.2017 19:00 19,4 C 16,7 C 60 % 1004,6 hPa 0,0 l/m 15,5 km/h (3 Bft) O-NO 61 0 min 0,000 mm 0,0 UV-I 90 W/m 11,4 C 16,4 C 22,5 km/h (4 Bft) 95,74 %
06.05.2017 19:02 19,4 C 16,7 C 60 % 1004,7 hPa 0,0 l/m 18,9 km/h (3 Bft) O-NO 68 0 min 0,203 mm 0,0 UV-I 63 W/m 11,4 C 15,6 C 30,6 km/h (5 Bft) 93,62 %
06.05.2017 19:04 19,3 C 16,7 C 60 % 1004,6 hPa 0,0 l/m 19,7 km/h (3 Bft) O-NO 74 0 min 0,000 mm 0,0 UV-I 60 W/m 11,3 C 15,4 C 27,4 km/h (4 Bft) 95,74 %
06.05.2017 19:06 19,3 C 16,7 C 60 % 1004,6 hPa 0,0 l/m 18,9 km/h (3 Bft) O-NO 69 0 min 0,000 mm 0,0 UV-I 60 W/m 11,3 C 15,5 C 25,7 km/h (4 Bft) 91,49 %
06.05.2017 19:08 19,3 C 16,7 C 60 % 1004,6 hPa 0,0 l/m 19,3 km/h (3 Bft) O-NO 62 0 min 0,000 mm 0,0 UV-I 64 W/m 11,3 C 15,4 C 25,7 km/h (4 Bft) 93,62 %
06.05.2017 19:10 19,3 C 16,7 C 59 % 1004,5 hPa 0,0 l/m 19,3 km/h (3 Bft) O-NO 70 0 min 0,000 mm 0,0 UV-I 62 W/m 11,1 C 15,4 C 27,4 km/h (4 Bft) 91,49 %
06.05.2017 19:12 19,2 C 16,7 C 60 % 1004,6 hPa 0,0 l/m 15,5 km/h (3 Bft) O-NO 70 0 min 0,000 mm 0,0 UV-I 60 W/m 11,2 C 16,2 C 20,9 km/h (4 Bft) 98,00 %
06.05.2017 19:14 19,1 C 16,7 C 61 % 1004,6 hPa 0,0 l/m 13,5 km/h (3 Bft) O-NO 65 0 min 0,000 mm 0,0 UV-I 60 W/m 11,4 C 16,6 C 19,3 km/h (3 Bft) 95,74 %
06.05.2017 19:16 19,0 C 16,7 C 62 % 1004,6 hPa 0,0 l/m 14,3 km/h (3 Bft) O 84 0 min 0,000 mm 0,0 UV-I 62 W/m 11,6 C 16,2 C 19,3 km/h (3 Bft) 95,74 %
06.05.2017 19:18 18,9 C 16,7 C 62 % 1004,5 hPa 0,0 l/m 13,3 km/h (3 Bft) O-NO 71 0 min 0,000 mm 0,0 UV-I 62 W/m 11,5 C 16,4 C 19,3 km/h (3 Bft) 92,11 %
06.05.2017 19:20 18,8 C 16,7 C 62 % 1004,5 hPa 0,0 l/m 11,7 km/h (2 Bft) O-NO 68 0 min 0,000 mm 0,0 UV-I 63 W/m 11,4 C 16,7 C 17,7 km/h (3 Bft) 91,49 %
06.05.2017 19:22 18,7 C 16,7 C 63 % 1004,5 hPa 0,0 l/m 10,7 km/h (2 Bft) O-NO 69 0 min 0,000 mm 0,0 UV-I 63 W/m 11,5 C 17,0 C 17,7 km/h (3 Bft) 97,22 %
06.05.2017 19:24 18,7 C 16,7 C 63 % 1004,5 hPa 0,0 l/m 11,0 km/h (2 Bft) O-NO 65 0 min 0,000 mm 0,0 UV-I 63 W/m 11,5 C 16,9 C 16,1 km/h (3 Bft) 95,16 %
06.05.2017 19:26 18,7 C 16,7 C 63 % 1004,5 hPa 0,0 l/m 12,3 km/h (3 Bft) O 82 0 min 0,000 mm 0,0 UV-I 67 W/m 11,5 C 16,4 C 19,3 km/h (3 Bft) 95,74 %
06.05.2017 19:28 18,7 C 16,7 C 63 % 1004,5 hPa 0,0 l/m 8,7 km/h (2 Bft) NO 47 0 min 0,000 mm 0,0 UV-I 67 W/m 11,5 C 17,7 C 14,5 km/h (3 Bft) 97,87 %
06.05.2017 19:30 18,7 C 16,7 C 64 % 1004,5 hPa 0,0 l/m 8,7 km/h (2 Bft) NO 54 0 min 0,000 mm 0,0 UV-I 61 W/m 11,7 C 17,7 C 14,5 km/h (3 Bft) 92,00 %
06.05.2017 19:32 18,7 C 16,7 C 64 % 1004,4 hPa 0,0 l/m 7,3 km/h (2 Bft) NO 49 0 min 0,000 mm 0,0 UV-I 63 W/m 11,7 C 18,3 C 11,3 km/h (2 Bft) 92,00 %
06.05.2017 19:34 18,6 C 16,7 C 64 % 1004,4 hPa 0,0 l/m 7,5 km/h (2 Bft) O-NO 63 0 min 0,000 mm 0,0 UV-I 48 W/m 11,7 C 18,1 C 11,3 km/h (2 Bft) 97,37 %
06.05.2017 19:36 18,6 C 16,7 C 65 % 1004,3 hPa 0,0 l/m 8,1 km/h (2 Bft) NO 50 0 min 0,000 mm 0,0 UV-I 45 W/m 11,9 C 17,8 C 12,9 km/h (3 Bft) 95,74 %
06.05.2017 19:38 18,4 C 16,7 C 65 % 1004,3 hPa 0,0 l/m 7,4 km/h (2 Bft) O-NO 58 0 min 0,000 mm 0,0 UV-I 47 W/m 11,7 C 17,9 C 9,7 km/h (2 Bft) 97,87 %
06.05.2017 19:40 18,3 C 16,7 C 66 % 1004,3 hPa 0,0 l/m 5,2 km/h (1 Bft) O-NO 59 0 min 0,000 mm 0,0 UV-I 36 W/m 11,8 C 18,3 C 8,0 km/h (2 Bft) 93,62 %
06.05.2017 19:42 18,1 C 16,7 C 67 % 1004,2 hPa 0,0 l/m 6,6 km/h (2 Bft) N-NO 28 0 min 0,000 mm 0,0 UV-I 45 W/m 11,9 C 18,0 C 9,7 km/h (2 Bft) 95,74 %
06.05.2017 19:44 17,9 C 16,7 C 68 % 1004,2 hPa 0,0 l/m 5,0 km/h (1 Bft) NO 51 0 min 0,000 mm 0,0 UV-I 47 W/m 11,9 C 17,9 C 8,0 km/h (2 Bft) 97,37 %
06.05.2017 19:46 17,9 C 16,7 C 68 % 1004,2 hPa 0,0 l/m 5,7 km/h (1 Bft) O-NO 58 0 min 0,000 mm 0,0 UV-I 46 W/m 11,9 C 17,9 C 8,0 km/h (2 Bft) 96,77 %
06.05.2017 19:48 17,9 C 16,7 C 68 % 1004,2 hPa 0,0 l/m 5,7 km/h (1 Bft) NO 46 0 min 0,000 mm 0,0 UV-I 44 W/m 11,9 C 17,9 C 6,4 km/h (2 Bft) 94,74 %
06.05.2017 19:50 17,9 C 16,7 C 68 % 1004,2 hPa 0,0 l/m 4,8 km/h (1 Bft) O-NO 69 0 min 0,000 mm 0,0 UV-I 41 W/m 11,9 C 17,9 C 6,4 km/h (2 Bft) 97,87 %
06.05.2017 19:52 17,8 C 16,7 C 69 % 1004,2 hPa 0,0 l/m 5,6 km/h (1 Bft) NO 51 2 min 0,000 mm 0,0 UV-I 39 W/m 12,0 C 17,8 C 8,0 km/h (2 Bft) 96,00 %
06.05.2017 19:54 17,8 C 16,7 C 68 % 1004,2 hPa 0,0 l/m 5,9 km/h (2 Bft) O-NO 64 2 min 0,000 mm 0,0 UV-I 37 W/m 11,8 C 17,8 C 8,0 km/h (2 Bft) 95,74 %
06.05.2017 19:56 17,8 C 16,7 C 68 % 1004,2 hPa 0,0 l/m 6,3 km/h (2 Bft) O-NO 64 2 min 0,000 mm 0,0 UV-I 35 W/m 11,8 C 17,8 C 11,3 km/h (2 Bft) 97,87 %
06.05.2017 19:58 17,8 C 16,7 C 68 % 1004,1 hPa 0,0 l/m 7,1 km/h (2 Bft) NO 51 2 min 0,000 mm 0,0 UV-I 34 W/m 11,8 C 17,5 C 9,7 km/h (2 Bft) 97,87 %
06.05.2017 20:00 17,8 C 16,7 C 68 % 1004,1 hPa 0,0 l/m 5,7 km/h (1 Bft) O-NO 59 2 min 0,000 mm 0,0 UV-I 31 W/m 11,8 C 17,8 C 9,7 km/h (2 Bft) 100,00 %
06.05.2017 20:02 17,7 C 16,7 C 68 % 1004,1 hPa 0,0 l/m 7,3 km/h (2 Bft) NO 53 2 min 0,077 mm 0,0 UV-I 26 W/m 11,7 C 17,3 C 12,9 km/h (3 Bft) 100,00 %
06.05.2017 20:04 17,7 C 16,7 C 68 % 1004,1 hPa 0,0 l/m 5,7 km/h (1 Bft) NO 53 2 min 0,000 mm 0,0 UV-I 25 W/m 11,7 C 17,7 C 8,0 km/h (2 Bft) 93,62 %
06.05.2017 20:06 17,6 C 16,7 C 68 % 1004,1 hPa 0,0 l/m 6,5 km/h (2 Bft) NO 55 2 min 0,000 mm 0,0 UV-I 22 W/m 11,6 C 17,6 C 9,7 km/h (2 Bft) 98,00 %
06.05.2017 20:08 17,6 C 16,7 C 68 % 1004,1 hPa 0,0 l/m 6,7 km/h (2 Bft) O-NO 63 2 min 0,000 mm 0,0 UV-I 20 W/m 11,6 C 17,5 C 12,9 km/h (3 Bft) 100,00 %
06.05.2017 20:10 17,6 C 16,7 C 68 % 1004,1 hPa 0,0 l/m 7,5 km/h (2 Bft) O-NO 57 2 min 0,000 mm 0,0 UV-I 18 W/m 11,6 C 17,1 C 12,9 km/h (3 Bft) 97,87 %
06.05.2017 20:12 17,5 C 16,7 C 68 % 1004,1 hPa 0,0 l/m 6,3 km/h (2 Bft) O-NO 61 2 min 0,000 mm 0,0 UV-I 17 W/m 11,5 C 17,5 C 8,0 km/h (2 Bft) 97,87 %
06.05.2017 20:14 17,5 C 16,7 C 68 % 1004,2 hPa 0,0 l/m 6,9 km/h (2 Bft) NO 52 0 min 0,000 mm 0,0 UV-I 14 W/m 11,5 C 17,3 C 8,0 km/h (2 Bft) 96,00 %
06.05.2017 20:16 17,4 C 16,7 C 68 % 1004,1 hPa 0,0 l/m 6,1 km/h (2 Bft) O-NO 62 0 min 0,000 mm 0,0 UV-I 12 W/m 11,4 C 17,4 C 8,0 km/h (2 Bft) 100,00 %
06.05.2017 20:18 17,4 C 16,7 C 69 % 1004,1 hPa 0,0 l/m 7,4 km/h (2 Bft) O-NO 62 0 min 0,000 mm 0,0 UV-I 11 W/m 11,7 C 16,9 C 9,7 km/h (2 Bft) 93,62 %
06.05.2017 20:20 17,3 C 16,7 C 69 % 1004,1 hPa 0,0 l/m 5,7 km/h (1 Bft) NO 56 0 min 0,000 mm 0,0 UV-I 10 W/m 11,6 C 17,3 C 8,0 km/h (2 Bft) 97,87 %
06.05.2017 20:22 17,2 C 16,7 C 69 % 1004,1 hPa 0,0 l/m 5,6 km/h (1 Bft) NO 54 0 min 0,000 mm 0,0 UV-I 9 W/m 11,5 C 17,2 C 6,4 km/h (2 Bft) 93,62 %
06.05.2017 20:24 17,2 C 16,7 C 69 % 1004,1 hPa 0,0 l/m 6,1 km/h (2 Bft) NO 51 0 min 0,000 mm 0,0 UV-I 8 W/m 11,5 C 17,2 C 9,7 km/h (2 Bft) 95,74 %
06.05.2017 20:26 17,2 C 16,7 C 69 % 1004,1 hPa 0,0 l/m 7,1 km/h (2 Bft) O-NO 57 0 min 0,000 mm 0,0 UV-I 7 W/m 11,5 C 16,9 C 9,7 km/h (2 Bft) 98,04 %
06.05.2017 20:28 17,2 C 16,7 C 69 % 1004,1 hPa 0,0 l/m 7,4 km/h (2 Bft) NO 50 0 min 0,000 mm 0,0 UV-I 5 W/m 11,5 C 16,7 C 9,7 km/h (2 Bft) 97,87 %
06.05.2017 20:30 17,2 C 16,7 C 69 % 1004,2 hPa 0,0 l/m 9,1 km/h (2 Bft) O-NO 64 0 min 0,000 mm 0,0 UV-I 5 W/m 11,5 C 15,9 C 12,9 km/h (3 Bft) 95,74 %
06.05.2017 20:32 17,2 C 16,7 C 69 % 1004,2 hPa 0,0 l/m 8,2 km/h (2 Bft) O-NO 69 0 min 0,000 mm 0,0 UV-I 5 W/m 11,5 C 16,3 C 12,9 km/h (3 Bft) 97,56 %
06.05.2017 20:34 17,2 C 16,7 C 69 % 1004,2 hPa 0,0 l/m 7,8 km/h (2 Bft) NO 56 0 min 0,000 mm 0,0 UV-I 5 W/m 11,5 C 16,5 C 11,3 km/h (2 Bft) 95,74 %
06.05.2017 20:36 17,1 C 16,7 C 69 % 1004,2 hPa 0,0 l/m 7,7 km/h (2 Bft) NO 53 0 min 0,000 mm 0,0 UV-I 4 W/m 11,4 C 16,5 C 11,3 km/h (2 Bft) 97,87 %
06.05.2017 20:38 17,1 C 16,7 C 69 % 1004,2 hPa 0,0 l/m 7,3 km/h (2 Bft) O-NO 61 0 min 0,000 mm 0,0 UV-I 0 W/m 11,4 C 16,6 C 12,9 km/h (3 Bft) 95,74 %
06.05.2017 20:40 17,1 C 16,7 C 69 % 1004,2 hPa 0,0 l/m 8,4 km/h (2 Bft) NO 51 0 min 0,000 mm 0,0 UV-I 0 W/m 11,4 C 16,1 C 14,5 km/h (3 Bft) 94,00 %
06.05.2017 20:42 17,0 C 16,7 C 69 % 1004,2 hPa 0,0 l/m 6,8 km/h (2 Bft) NO 41 0 min 0,000 mm 0,0 UV-I 0 W/m 11,3 C 16,8 C 9,7 km/h (2 Bft) 95,74 %
06.05.2017 20:44 16,9 C 16,7 C 69 % 1004,2 hPa 0,0 l/m 6,2 km/h (2 Bft) NO 36 0 min 0,000 mm 0,0 UV-I 0 W/m 11,2 C 16,9 C 8,0 km/h (2 Bft) 96,00 %
06.05.2017 20:46 16,9 C 16,7 C 69 % 1004,2 hPa 0,0 l/m 5,9 km/h (2 Bft) O-NO 59 0 min 0,000 mm 0,0 UV-I 0 W/m 11,2 C 16,9 C 9,7 km/h (2 Bft) 95,74 %
06.05.2017 20:48 16,8 C 16,7 C 69 % 1004,2 hPa 0,0 l/m 7,2 km/h (2 Bft) O-NO 61 0 min 0,000 mm 0,0 UV-I 0 W/m 11,1 C 16,4 C 9,7 km/h (2 Bft) 97,92 %
06.05.2017 20:50 16,8 C 16,7 C 70 % 1004,2 hPa 0,0 l/m 6,3 km/h (2 Bft) NO 55 0 min 0,000 mm 0,0 UV-I 0 W/m 11,3 C 16,8 C 9,7 km/h (2 Bft) 97,87 %
06.05.2017 20:52 16,7 C 16,7 C 70 % 1004,2 hPa 0,0 l/m 5,5 km/h (1 Bft) O-NO 60 0 min 0,000 mm 0,0 UV-I 0 W/m 11,2 C 16,7 C 8,0 km/h (2 Bft) 89,36 %
06.05.2017 20:54 16,7 C 16,7 C 70 % 1004,2 hPa 0,0 l/m 6,0 km/h (2 Bft) NO 53 0 min 0,000 mm 0,0 UV-I 0 W/m 11,2 C 16,7 C 9,7 km/h (2 Bft) 97,14 %
06.05.2017 20:56 16,6 C 16,7 C 71 % 1004,2 hPa 0,0 l/m 3,7 km/h (1 Bft) NO 51 0 min 0,000 mm 0,0 UV-I 0 W/m 11,3 C 16,6 C 6,4 km/h (2 Bft) 95,74 %
06.05.2017 20:58 16,4 C 16,7 C 71 % 1004,2 hPa 0,0 l/m 6,1 km/h (2 Bft) NO 46 0 min 0,000 mm 0,0 UV-I 0 W/m 11,1 C 16,4 C 8,0 km/h (2 Bft) 98,00 %
06.05.2017 21:00 16,3 C 16,7 C 72 % 1004,3 hPa 0,0 l/m 6,2 km/h (2 Bft) NO 43 0 min 0,000 mm 0,0 UV-I 0 W/m 11,2 C 16,3 C 8,0 km/h (2 Bft) 92,00 %
06.05.2017 21:02 16,2 C 16,7 C 72 % 1004,2 hPa 0,0 l/m 4,8 km/h (1 Bft) NO 38 0 min 0,025 mm 0,0 UV-I 0 W/m 11,1 C 16,2 C 8,0 km/h (2 Bft) 98,00 %
06.05.2017 21:04 16,2 C 16,7 C 72 % 1004,2 hPa 0,0 l/m 5,7 km/h (1 Bft) NO 41 0 min 0,000 mm 0,0 UV-I 0 W/m 11,1 C 16,2 C 9,7 km/h (2 Bft) 97,37 %
06.05.2017 21:06 16,2 C 16,7 C 72 % 1004,2 hPa 0,0 l/m 5,9 km/h (2 Bft) NO 41 0 min 0,000 mm 0,0 UV-I 0 W/m 11,1 C 16,2 C 8,0 km/h (2 Bft) 100,00 %
06.05.2017 21:08 16,1 C 16,7 C 73 % 1004,2 hPa 0,0 l/m 7,0 km/h (2 Bft) NO 37 0 min 0,000 mm 0,0 UV-I 0 W/m 11,3 C 15,8 C 9,7 km/h (2 Bft) 95,74 %
06.05.2017 21:10 16,1 C 16,7 C 72 % 1004,2 hPa 0,0 l/m 8,0 km/h (2 Bft) NO 48 0 min 0,000 mm 0,0 UV-I 0 W/m 11,0 C 15,3 C 11,3 km/h (2 Bft) 97,87 %
06.05.2017 21:12 16,1 C 16,7 C 72 % 1004,1 hPa 0,0 l/m 9,6 km/h (2 Bft) NO 48 0 min 0,000 mm 0,0 UV-I 0 W/m 11,0 C 14,5 C 16,1 km/h (3 Bft) 95,74 %
06.05.2017 21:14 16,2 C 16,7 C 72 % 1004,2 hPa 0,0 l/m 8,8 km/h (2 Bft) NO 36 0 min 0,000 mm 0,0 UV-I 0 W/m 11,1 C 15,0 C 16,1 km/h (3 Bft) 98,00 %
06.05.2017 21:16 16,2 C 16,7 C 72 % 1004,2 hPa 0,0 l/m 7,5 km/h (2 Bft) N-NO 19 0 min 0,000 mm 0,0 UV-I 0 W/m 11,1 C 15,6 C 11,3 km/h (2 Bft) 95,74 %
06.05.2017 21:18 16,3 C 16,7 C 72 % 1004,1 hPa 0,0 l/m 6,7 km/h (2 Bft) N-NO 30 0 min 0,000 mm 0,0 UV-I 0 W/m 11,2 C 16,2 C 9,7 km/h (2 Bft) 97,87 %
06.05.2017 21:20 16,2 C 16,7 C 72 % 1004,2 hPa 0,0 l/m 7,0 km/h (2 Bft) N-NO 19 0 min 0,000 mm 0,0 UV-I 0 W/m 11,1 C 15,9 C 11,3 km/h (2 Bft) 98,00 %
06.05.2017 21:22 16,1 C 16,7 C 73 % 1004,1 hPa 0,0 l/m 6,9 km/h (2 Bft) N-NO 17 0 min 0,000 mm 0,0 UV-I 0 W/m 11,3 C 15,8 C 14,5 km/h (3 Bft) 95,74 %
06.05.2017 21:24 15,9 C 16,7 C 74 % 1004,2 hPa 0,0 l/m 5,9 km/h (2 Bft) N-NO 31 0 min 0,000 mm 0,0 UV-I 0 W/m 11,3 C 15,9 C 9,7 km/h (2 Bft) 100,00 %
06.05.2017 21:26 15,8 C 16,7 C 74 % 1004,2 hPa 0,0 l/m 3,9 km/h (1 Bft) N-NO 26 0 min 0,000 mm 0,0 UV-I 0 W/m 11,2 C 15,8 C 6,4 km/h (2 Bft) 93,75 %
06.05.2017 21:28 15,8 C 16,7 C 74 % 1004,2 hPa 0,0 l/m 5,8 km/h (2 Bft) N-NO 21 0 min 0,000 mm 0,0 UV-I 0 W/m 11,2 C 15,8 C 9,7 km/h (2 Bft) 95,74 %
06.05.2017 21:30 15,7 C 16,7 C 74 % 1004,2 hPa 0,0 l/m 4,8 km/h (1 Bft) N-NO 17 0 min 0,000 mm 0,0 UV-I 0 W/m 11,1 C 15,7 C 8,0 km/h (2 Bft) 95,74 %
06.05.2017 21:32 15,7 C 16,7 C 75 % 1004,2 hPa 0,0 l/m 5,3 km/h (1 Bft) N-NO 32 0 min 0,000 mm 0,0 UV-I 0 W/m 11,3 C 15,7 C 12,9 km/h (3 Bft) 100,00 %
06.05.2017 21:34 15,6 C 16,7 C 75 % 1004,3 hPa 0,0 l/m 7,1 km/h (2 Bft) N-NO 28 0 min 0,000 mm 0,0 UV-I 0 W/m 11,2 C 15,2 C 9,7 km/h (2 Bft) 97,87 %
06.05.2017 21:36 15,6 C 16,7 C 75 % 1004,3 hPa 0,0 l/m 7,6 km/h (2 Bft) N-NO 21 0 min 0,000 mm 0,0 UV-I 0 W/m 11,2 C 14,9 C 12,9 km/h (3 Bft) 95,74 %
06.05.2017 21:38 15,6 C 16,7 C 75 % 1004,3 hPa 0,0 l/m 6,7 km/h (2 Bft) N-NO 19 0 min 0,000 mm 0,0 UV-I 0 W/m 11,2 C 15,4 C 12,9 km/h (3 Bft) 100,00 %
06.05.2017 21:40 15,6 C 16,7 C 75 % 1004,2 hPa 0,0 l/m 5,8 km/h (2 Bft) N-NO 30 0 min 0,000 mm 0,0 UV-I 0 W/m 11,2 C 15,6 C 12,9 km/h (3 Bft) 93,62 %
06.05.2017 21:42 15,5 C 16,7 C 75 % 1004,3 hPa 0,0 l/m 5,9 km/h (2 Bft) N-NO 24 0 min 0,000 mm 0,0 UV-I 0 W/m 11,1 C 15,5 C 8,0 km/h (2 Bft) 97,14 %
06.05.2017 21:44 15,4 C 16,7 C 75 % 1004,2 hPa 0,0 l/m 6,9 km/h (2 Bft) N-NO 16 0 min 0,000 mm 0,0 UV-I 0 W/m 11,0 C 15,1 C 11,3 km/h (2 Bft) 100,00 %
06.05.2017 21:46 15,4 C 16,7 C 76 % 1004,3 hPa 0,0 l/m 4,0 km/h (1 Bft) N-NO 24 0 min 0,000 mm 0,0 UV-I 0 W/m 11,2 C 15,4 C 8,0 km/h (2 Bft) 97,87 %
06.05.2017 21:48 15,3 C 16,7 C 76 % 1004,3 hPa 0,0 l/m 5,4 km/h (1 Bft) N-NO 26 0 min 0,000 mm 0,0 UV-I 0 W/m 11,1 C 15,3 C 8,0 km/h (2 Bft) 95,74 %
06.05.2017 21:50 15,3 C 16,7 C 75 % 1004,2 hPa 0,0 l/m 6,5 km/h (2 Bft) N-NO 24 0 min 0,000 mm 0,0 UV-I 0 W/m 10,9 C 15,3 C 12,9 km/h (3 Bft) 100,00 %
06.05.2017 21:52 15,3 C 16,7 C 75 % 1004,3 hPa 0,0 l/m 6,1 km/h (2 Bft) N-NO 31 0 min 0,000 mm 0,0 UV-I 0 W/m 10,9 C 15,3 C 9,7 km/h (2 Bft) 97,87 %
06.05.2017 21:54 15,3 C 16,7 C 75 % 1004,3 hPa 0,0 l/m 7,0 km/h (2 Bft) N-NO 27 0 min 0,000 mm 0,0 UV-I 0 W/m 10,9 C 15,0 C 11,3 km/h (2 Bft) 100,00 %
06.05.2017 21:56 15,3 C 16,7 C 75 % 1004,3 hPa 0,0 l/m 7,5 km/h (2 Bft) N-NO 26 0 min 0,000 mm 0,0 UV-I 0 W/m 10,9 C 14,7 C 12,9 km/h (3 Bft) 97,87 %
06.05.2017 21:58 15,3 C 16,7 C 75 % 1004,3 hPa 0,0 l/m 6,9 km/h (2 Bft) N-NO 17 0 min 0,000 mm 0,0 UV-I 0 W/m 10,9 C 15,0 C 11,3 km/h (2 Bft) 100,00 %
06.05.2017 22:00 15,3 C 16,7 C 75 % 1004,3 hPa 0,0 l/m 7,6 km/h (2 Bft) N-NO 23 0 min 0,000 mm 0,0 UV-I 0 W/m 10,9 C 14,6 C 11,3 km/h (2 Bft) 93,62 %
06.05.2017 22:02 15,3 C 16,7 C 75 % 1004,3 hPa 0,0 l/m 7,7 km/h (2 Bft) N-NO 28 0 min 0,025 mm 0,0 UV-I 0 W/m 10,9 C 14,6 C 14,5 km/h (3 Bft) 95,74 %
06.05.2017 22:04 15,3 C 16,7 C 74 % 1004,3 hPa 0,0 l/m 8,0 km/h (2 Bft) N-NO 13 0 min 0,000 mm 0,0 UV-I 0 W/m 10,7 C 14,4 C 12,9 km/h (3 Bft) 95,83 %
06.05.2017 22:06 15,3 C 16,7 C 74 % 1004,3 hPa 0,0 l/m 8,3 km/h (2 Bft) NO 34 0 min 0,000 mm 0,0 UV-I 0 W/m 10,7 C 14,3 C 11,3 km/h (2 Bft) 98,00 %
06.05.2017 22:08 15,3 C 16,7 C 74 % 1004,3 hPa 0,0 l/m 9,2 km/h (2 Bft) N-NO 30 0 min 0,000 mm 0,0 UV-I 0 W/m 10,7 C 13,8 C 14,5 km/h (3 Bft) 95,74 %
06.05.2017 22:10 15,3 C 16,7 C 74 % 1004,3 hPa 0,0 l/m 9,7 km/h (2 Bft) N-NO 32 0 min 0,000 mm 0,0 UV-I 0 W/m 10,7 C 13,6 C 12,9 km/h (3 Bft) 100,00 %
06.05.2017 22:12 15,3 C 16,7 C 74 % 1004,3 hPa 0,0 l/m 10,1 km/h (2 Bft) N-NO 18 0 min 0,000 mm 0,0 UV-I 0 W/m 10,7 C 13,4 C 14,5 km/h (3 Bft) 94,00 %
06.05.2017 22:14 15,3 C 16,7 C 74 % 1004,3 hPa 0,0 l/m 8,6 km/h (2 Bft) N-NO 23 0 min 0,000 mm 0,0 UV-I 0 W/m 10,7 C 14,1 C 12,9 km/h (3 Bft) 97,96 %
06.05.2017 22:16 15,3 C 16,7 C 74 % 1004,3 hPa 0,0 l/m 6,4 km/h (2 Bft) N-NO 29 0 min 0,000 mm 0,0 UV-I 0 W/m 10,7 C 15,3 C 8,0 km/h (2 Bft) 95,74 %
06.05.2017 22:18 15,2 C 16,7 C 75 % 1004,3 hPa 0,0 l/m 6,9 km/h (2 Bft) N-NO 26 0 min 0,000 mm 0,0 UV-I 0 W/m 10,8 C 14,9 C 12,9 km/h (3 Bft) 98,00 %
06.05.2017 22:20 15,2 C 16,7 C 74 % 1004,4 hPa 0,0 l/m 5,6 km/h (1 Bft) N-NO 14 0 min 0,000 mm 0,0 UV-I 0 W/m 10,6 C 15,2 C 8,0 km/h (2 Bft) 100,00 %
06.05.2017 22:22 15,2 C 16,7 C 75 % 1004,4 hPa 0,0 l/m 4,8 km/h (1 Bft) N-NO 24 0 min 0,000 mm 0,0 UV-I 0 W/m 10,8 C 15,2 C 8,0 km/h (2 Bft) 97,87 %
06.05.2017 22:24 15,1 C 16,7 C 75 % 1004,4 hPa 0,0 l/m 4,1 km/h (1 Bft) N-NO 16 0 min 0,000 mm 0,0 UV-I 0 W/m 10,7 C 15,1 C 6,4 km/h (2 Bft) 100,00 %
06.05.2017 22:26 15,0 C 16,7 C 75 % 1004,4 hPa 0,0 l/m 4,4 km/h (1 Bft) N-NO 24 0 min 0,000 mm 0,0 UV-I 0 W/m 10,6 C 15,0 C 8,0 km/h (2 Bft) 97,87 %
06.05.2017 22:28 15,0 C 16,7 C 75 % 1004,4 hPa 0,0 l/m 4,9 km/h (1 Bft) N-NO 22 0 min 0,000 mm 0,0 UV-I 0 W/m 10,6 C 15,0 C 8,0 km/h (2 Bft) 97,87 %
06.05.2017 22:30 14,9 C 16,7 C 75 % 1004,4 hPa 0,0 l/m 3,5 km/h (1 Bft) N 9 0 min 0,000 mm 0,0 UV-I 0 W/m 10,5 C 14,9 C 8,0 km/h (2 Bft) 95,74 %
06.05.2017 22:32 14,9 C 16,7 C 75 % 1004,4 hPa 0,0 l/m 4,8 km/h (1 Bft) NO 34 0 min 0,000 mm 0,0 UV-I 0 W/m 10,5 C 14,9 C 12,9 km/h (3 Bft) 95,12 %
06.05.2017 22:34 14,9 C 16,7 C 75 % 1004,4 hPa 0,0 l/m 5,5 km/h (1 Bft) N-NO 23 0 min 0,000 mm 0,0 UV-I 0 W/m 10,5 C 14,9 C 11,3 km/h (2 Bft) 97,87 %
06.05.2017 22:36 14,9 C 16,7 C 75 % 1004,4 hPa 0,0 l/m 4,1 km/h (1 Bft) N 5 0 min 0,000 mm 0,0 UV-I 0 W/m 10,5 C 14,9 C 8,0 km/h (2 Bft) 93,62 %
06.05.2017 22:38 14,9 C 16,7 C 75 % 1004,4 hPa 0,0 l/m 3,1 km/h (1 Bft) N-NO 13 0 min 0,000 mm 0,0 UV-I 0 W/m 10,5 C 14,9 C 8,0 km/h (2 Bft) 95,74 %
06.05.2017 22:40 14,9 C 16,7 C 75 % 1004,4 hPa 0,0 l/m 3,6 km/h (1 Bft) N-NO 19 0 min 0,000 mm 0,0 UV-I 0 W/m 10,5 C 14,9 C 6,4 km/h (2 Bft) 97,92 %
06.05.2017 22:42 14,9 C 16,7 C 75 % 1004,4 hPa 0,0 l/m 5,3 km/h (1 Bft) N-NO 23 0 min 0,000 mm 0,0 UV-I 0 W/m 10,5 C 14,9 C 8,0 km/h (2 Bft) 92,00 %
06.05.2017 22:44 14,9 C 16,7 C 75 % 1004,5 hPa 0,0 l/m 6,0 km/h (2 Bft) N-NO 30 0 min 0,000 mm 0,0 UV-I 0 W/m 10,5 C 14,9 C 8,0 km/h (2 Bft) 91,49 %
06.05.2017 22:46 14,9 C 16,7 C 74 % 1004,4 hPa 0,0 l/m 6,3 km/h (2 Bft) N-NO 27 0 min 0,000 mm 0,0 UV-I 0 W/m 10,3 C 14,9 C 8,0 km/h (2 Bft) 91,49 %
06.05.2017 22:48 15,0 C 16,7 C 75 % 1004,5 hPa 0,0 l/m 5,4 km/h (1 Bft) N-NO 26 0 min 0,000 mm 0,0 UV-I 0 W/m 10,6 C 15,0 C 8,0 km/h (2 Bft) 93,62 %
06.05.2017 22:50 14,9 C 16,7 C 75 % 1004,5 hPa 0,0 l/m 4,0 km/h (1 Bft) N-NO 24 0 min 0,000 mm 0,0 UV-I 0 W/m 10,5 C 14,9 C 6,4 km/h (2 Bft) 93,62 %
06.05.2017 22:52 14,9 C 16,7 C 75 % 1004,5 hPa 0,0 l/m 3,7 km/h (1 Bft) N-NO 24 0 min 0,000 mm 0,0 UV-I 0 W/m 10,5 C 14,9 C 6,4 km/h (2 Bft) 93,62 %
06.05.2017 22:54 14,8 C 16,7 C 75 % 1004,5 hPa 0,0 l/m 2,6 km/h (1 Bft) N-NO 30 0 min 0,000 mm 0,0 UV-I 0 W/m 10,4 C 14,8 C 6,4 km/h (2 Bft) 93,62 %
06.05.2017 22:56 14,8 C 16,7 C 75 % 1004,5 hPa 0,0 l/m 1,5 km/h (1 Bft) N-NO 29 0 min 0,000 mm 0,0 UV-I 0 W/m 10,4 C 14,8 C 6,4 km/h (2 Bft) 93,62 %
06.05.2017 22:58 14,7 C 16,7 C 76 % 1004,5 hPa 0,0 l/m 1,2 km/h (1 Bft) N-NO 28 0 min 0,000 mm 0,0 UV-I 0 W/m 10,5 C 14,7 C 4,8 km/h (1 Bft) 92,11 %
06.05.2017 23:00 14,7 C 16,7 C 76 % 1004,5 hPa 0,0 l/m 1,5 km/h (1 Bft) N-NO 32 0 min 0,000 mm 0,0 UV-I 0 W/m 10,5 C 14,7 C 4,8 km/h (1 Bft) 91,49 %
06.05.2017 23:02 14,7 C 16,7 C 76 % 1004,5 hPa 0,0 l/m 1,8 km/h (1 Bft) N-NO 24 0 min 0,026 mm 0,0 UV-I 0 W/m 10,5 C 14,7 C 4,8 km/h (1 Bft) 93,62 %
06.05.2017 23:04 14,7 C 16,7 C 76 % 1004,5 hPa 0,0 l/m 0,4 km/h (0 Bft) N-NO 25 0 min 0,000 mm 0,0 UV-I 0 W/m 10,5 C 14,7 C 1,6 km/h (1 Bft) 95,74 %
06.05.2017 23:06 14,7 C 16,7 C 76 % 1004,6 hPa 0,0 l/m 0,5 km/h (0 Bft) N-NO 24 0 min 0,000 mm 0,0 UV-I 0 W/m 10,5 C 14,7 C 1,6 km/h (1 Bft) 95,74 %
06.05.2017 23:08 14,6 C 16,7 C 76 % 1004,6 hPa 0,0 l/m 0,2 km/h (0 Bft) N-NO 24 0 min 0,000 mm 0,0 UV-I 0 W/m 10,4 C 14,6 C 1,6 km/h (1 Bft) 93,62 %
06.05.2017 23:10 14,6 C 16,7 C 77 % 1004,6 hPa 0,0 l/m 0,2 km/h (0 Bft) N-NO 24 0 min 0,000 mm 0,0 UV-I 0 W/m 10,6 C 14,6 C 1,6 km/h (1 Bft) 96,00 %
06.05.2017 23:12 14,6 C 16,7 C 76 % 1004,6 hPa 0,0 l/m 1,7 km/h (1 Bft) N 5 0 min 0,000 mm 0,0 UV-I 0 W/m 10,4 C 14,6 C 3,2 km/h (1 Bft) 95,74 %
06.05.2017 23:14 14,6 C 16,7 C 76 % 1004,6 hPa 0,0 l/m 1,0 km/h (0 Bft) N 10 0 min 0,000 mm 0,0 UV-I 0 W/m 10,4 C 14,6 C 4,8 km/h (1 Bft) 95,74 %
06.05.2017 23:16 14,6 C 16,7 C 76 % 1004,6 hPa 0,0 l/m 1,5 km/h (1 Bft) N-NO 12 0 min 0,000 mm 0,0 UV-I 0 W/m 10,4 C 14,6 C 3,2 km/h (1 Bft) 97,87 %
06.05.2017 23:18 14,6 C 16,7 C 76 % 1004,6 hPa 0,0 l/m 1,2 km/h (1 Bft) N 5 0 min 0,000 mm 0,0 UV-I 0 W/m 10,4 C 14,6 C 3,2 km/h (1 Bft) 96,00 %
06.05.2017 23:20 14,5 C 16,7 C 76 % 1004,6 hPa 0,0 l/m 0,7 km/h (0 Bft) N 5 0 min 0,000 mm 0,0 UV-I 0 W/m 10,3 C 14,5 C 3,2 km/h (1 Bft) 95,92 %
06.05.2017 23:22 14,5 C 16,7 C 76 % 1004,6 hPa 0,0 l/m 0,8 km/h (0 Bft) N 5 0 min 0,000 mm 0,0 UV-I 0 W/m 10,3 C 14,5 C 3,2 km/h (1 Bft) 97,87 %
06.05.2017 23:24 14,4 C 16,7 C 77 % 1004,6 hPa 0,0 l/m 1,0 km/h (0 Bft) N 5 0 min 0,000 mm 0,0 UV-I 0 W/m 10,4 C 14,4 C 3,2 km/h (1 Bft) 91,67 %
06.05.2017 23:26 14,4 C 16,7 C 77 % 1004,6 hPa 0,0 l/m 1,9 km/h (1 Bft) N-NO 15 0 min 0,000 mm 0,0 UV-I 0 W/m 10,4 C 14,4 C 4,8 km/h (1 Bft) 98,04 %
06.05.2017 23:28 14,4 C 16,7 C 76 % 1004,6 hPa 0,0 l/m 0,5 km/h (0 Bft) N-NO 15 0 min 0,000 mm 0,0 UV-I 0 W/m 10,2 C 14,4 C 3,2 km/h (1 Bft) 95,74 %
06.05.2017 23:30 14,5 C 16,7 C 76 % 1004,6 hPa 0,0 l/m 1,2 km/h (1 Bft) N-NO 15 0 min 0,000 mm 0,0 UV-I 0 W/m 10,3 C 14,5 C 3,2 km/h (1 Bft) 93,62 %
06.05.2017 23:32 14,6 C 16,7 C 75 % 1004,6 hPa 0,0 l/m 1,5 km/h (1 Bft) N-NO 15 0 min 0,000 mm 0,0 UV-I 0 W/m 10,2 C 14,6 C 3,2 km/h (1 Bft) 95,74 %
06.05.2017 23:34 14,6 C 16,7 C 75 % 1004,6 hPa 0,0 l/m 0,3 km/h (0 Bft) N-NO 15 0 min 0,000 mm 0,0 UV-I 0 W/m 10,2 C 14,6 C 1,6 km/h (1 Bft) 95,74 %
06.05.2017 23:36 14,7 C 16,7 C 75 % 1004,6 hPa 0,0 l/m 0,0 km/h (0 Bft) N-NO 15 0 min 0,000 mm 0,0 UV-I 0 W/m 10,3 C 14,7 C 0,0 km/h (0 Bft) 93,62 %
06.05.2017 23:38 14,7 C 16,7 C 75 % 1004,6 hPa 0,0 l/m 0,0 km/h (0 Bft) N-NO 15 0 min 0,000 mm 0,0 UV-I 0 W/m 10,3 C 14,7 C 1,6 km/h (1 Bft) 93,62 %
06.05.2017 23:40 14,7 C 16,7 C 75 % 1004,7 hPa 0,0 l/m 0,1 km/h (0 Bft) N-NO 15 0 min 0,000 mm 0,0 UV-I 0 W/m 10,3 C 14,7 C 1,6 km/h (1 Bft) 97,87 %
06.05.2017 23:42 14,6 C 16,7 C 76 % 1004,7 hPa 0,0 l/m 0,0 km/h (0 Bft) N-NO 15 0 min 0,000 mm 0,0 UV-I 0 W/m 10,4 C 14,6 C 0,0 km/h (0 Bft) 95,74 %
06.05.2017 23:44 14,4 C 16,7 C 77 % 1004,7 hPa 0,0 l/m 0,0 km/h (0 Bft) N-NO 15 0 min 0,000 mm 0,0 UV-I 0 W/m 10,4 C 14,4 C 1,6 km/h (1 Bft) 95,74 %
06.05.2017 23:46 14,3 C 16,7 C 78 % 1004,7 hPa 0,0 l/m 0,0 km/h (0 Bft) N-NO 15 0 min 0,000 mm 0,0 UV-I 0 W/m 10,5 C 14,3 C 0,0 km/h (0 Bft) 97,87 %
06.05.2017 23:48 14,3 C 16,7 C 78 % 1004,7 hPa 0,0 l/m 0,0 km/h (0 Bft) N-NO 15 0 min 0,000 mm 0,0 UV-I 0 W/m 10,5 C 14,3 C 0,0 km/h (0 Bft) 97,87 %
06.05.2017 23:50 14,3 C 16,7 C 79 % 1004,7 hPa 0,0 l/m 0,0 km/h (0 Bft) N-NO 15 0 min 0,000 mm 0,0 UV-I 0 W/m 10,7 C 14,3 C 1,6 km/h (1 Bft) 91,49 %
06.05.2017 23:52 14,2 C 16,7 C 78 % 1004,7 hPa 0,0 l/m 0,1 km/h (0 Bft) N-NO 15 0 min 0,000 mm 0,0 UV-I 0 W/m 10,4 C 14,2 C 1,6 km/h (1 Bft) 97,87 %
06.05.2017 23:54 14,2 C 16,7 C 79 % 1004,7 hPa 0,0 l/m 0,0 km/h (0 Bft) N-NO 15 0 min 0,000 mm 0,0 UV-I 0 W/m 10,6 C 14,2 C 1,6 km/h (1 Bft) 100,00 %
06.05.2017 23:56 14,1 C 16,7 C 79 % 1004,7 hPa 0,0 l/m 0,5 km/h (0 Bft) N-NO 15 0 min 0,000 mm 0,0 UV-I 0 W/m 10,5 C 14,1 C 1,6 km/h (1 Bft) 97,87 %
06.05.2017 23:58 14,0 C 16,7 C 80 % 1004,8 hPa 0,0 l/m 0,7 km/h (0 Bft) N-NO 15 0 min 0,000 mm 0,0 UV-I 0 W/m 10,6 C 14,0 C 3,2 km/h (1 Bft) 97,87 %
_ Min-Zeit 06:04 05:54 14:42 19:58 - 00:00 - - - - - - 04:52 07:38 00:00 09:30
Minimum _ 4,6 C 13,9 C 50 % 1004,1 hPa - 0,0 km/h (0 Bft) - - - - - - 4,1 C 1,5 C 0,0 km/h (0 Bft) 85,11 %
_ Max-Zeit 15:06 15:18 06:20 00:00 06:10 16:03 - - 09:39 13:00 13:04 12:42 15:52 15:02 17:00 00:12
Maximum _ 21,1 C 16,7 C 98 % 1017,4 hPa 0,2 l/m 25,1 km/h
NO (4 Bft)
- - 3 min 0,559 mm 5,0 UV-I 899 W/m 13,2 C 19,6 C 33,8 km/h
O-NO (5 Bft)
100,00 %
Durchschnitt _ 13,4 C 15,2 C 78 % 1010,4 hPa #0,2 l/m 9,4 km/h (2 Bft) O-NO - #10:46 h #4,750 mm 2,9 UV-I 467 W/m 9,3 C 11,7 C 14,0 km/h (3 Bft) 96,27 %